[[{"header":{"parameterUnit":"m.s-1","parameterCategory":1,"la1":30.6,"la2":28.766,"lo1":-90.7593,"lo2":-88.6598,"dy":0.0162,"dx":0.0183,"nx":116,"ny":114,"refTime":"2024-03-06T06:00:00:Z","depth":0,"parameterNumber":2,"parameterNumberName":"U-component_of_WINDS"},"data":[0.0,0.0,0.0,0.0,0.0,0.0,0.0,0.0,0.0,0.0,0.0,0.0,0.0,0.0,0.0,0.0,0.0,0.0,0.0,0.0,0.0,0.0,0.0,0.0,0.0,0.0,0.0,0.0,0.0,0.0,0.0,0.0,0.0,0.0,0.0,0.0,0.0,0.0,0.0,0.0,0.0,0.0,0.0,0.0,0.0,0.0,0.0,0.0,0.0,0.0,0.0,0.0,0.0,0.0,0.0,0.0,0.0,0.0,0.0,0.0,0.0,0.0,0.0,0.0,0.0,0.0,0.0,0.0,0.0,0.0,0.0,0.0,0.0,0.0,0.0,0.0,0.0,0.0,0.0,0.0,0.0,0.0,0.0,0.0,0.0,0.0,0.0,0.0,0.0,0.0,0.0,0.0,0.0,0.0,0.0,0.0,0.0,0.0,0.0,0.0,0.0,0.0,0.0,0.0,0.0,0.0,0.0,0.0,0.0,0.0,0.0,0.0,0.0,0.0,0.0,0.0,0.0,0.0,0.0,0.0,0.0,0.0,0.0,0.0,0.0,0.0,0.0,0.0,0.0,0.0,0.0,0.0,0.0,0.0,0.0,0.0,0.0,0.0,0.0,0.0,0.0,0.0,0.0,0.0,0.0,0.0,0.0,0.0,0.0,0.0,0.0,0.0,0.0,0.0,0.0,0.0,0.0,0.0,0.0,0.0,0.0,0.0,0.0,0.0,0.0,0.0,0.0,0.0,0.0,0.0,0.0,0.0,0.0,0.0,0.0,0.0,0.0,0.0,0.0,0.0,0.0,0.0,0.0,0.0,0.0,0.0,0.0,0.0,0.0,0.0,0.0,0.0,0.0,0.0,0.0,0.0,0.0,0.0,0.0,0.0,0.0,0.0,0.0,0.0,0.0,0.0,0.0,0.0,0.0,0.0,0.0,0.0,0.0,0.0,0.0,0.0,0.0,0.0,0.0,0.0,0.0,0.0,0.0,0.0,0.0,0.0,0.0,0.0,0.0,0.0,0.0,0.0,0.0,0.0,0.0,0.0,0.0,0.0,0.0,0.0,0.0,0.0,0.0,0.0,0.0,0.0,0.0,0.0,0.0,0.0,0.0,0.0,0.0,0.0,0.0,0.0,0.0,0.0,0.0,0.0,0.0,0.0,0.0,0.0,0.0,0.0,0.0,0.0,0.0,0.0,0.0,0.0,0.0,0.0,0.0,0.0,0.0,0.0,0.0,0.0,0.0,0.0,0.0,0.0,0.0,0.0,0.0,0.0,0.0,0.0,0.0,0.0,0.0,0.0,0.0,0.0,0.0,0.0,0.0,0.0,0.0,0.0,0.0,0.0,0.0,0.0,0.0,0.0,0.0,0.0,0.0,0.0,0.0,0.0,0.0,0.0,0.0,0.0,0.0,0.0,0.0,0.0,0.0,0.0,0.0,0.0,0.0,0.0,0.0,0.0,0.0,0.0,0.0,0.0,0.0,0.0,0.0,0.0,0.0,0.0,0.0,0.0,0.0,0.0,0.0,0.0,0.0,0.0,0.0,0.0,0.0,0.0,0.0,0.0,0.0,0.0,0.0,0.0,0.0,0.0,0.0,0.0,0.0,0.0,0.0,0.0,0.0,0.0,0.0,0.0,0.0,0.0,0.0,0.0,0.0,0.0,0.0,0.0,0.0,0.0,0.0,0.0,0.0,0.0,0.0,0.0,0.0,0.0,0.0,0.0,0.0,0.0,0.0,0.0,0.0,0.0,0.0,0.0,0.0,0.0,0.0,0.0,0.0,0.0,0.0,0.0,0.0,0.0,0.0,0.0,0.0,0.0,0.0,0.0,0.0,0.0,0.0,0.0,0.0,0.0,0.0,0.0,0.0,0.0,0.0,0.0,0.0,0.0,0.0,0.0,0.0,0.0,0.0,0.0,0.0,0.0,0.0,0.0,0.0,0.0,0.0,0.0,0.0,0.0,0.0,0.0,0.0,0.0,0.0,0.0,0.0,0.0,0.0,0.0,0.0,0.0,0.0,0.0,0.0,0.0,0.0,0.0,0.0,0.0,0.0,0.0,0.0,0.0,0.0,0.0,0.0,0.0,0.0,0.0,0.0,0.0,0.0,0.0,0.0,0.0,0.0,0.0,0.0,0.0,0.0,0.0,0.0,0.0,0.0,0.0,0.0,0.0,0.0,0.0,0.0,0.0,0.0,0.0,0.0,0.0,0.0,0.0,0.0,0.0,0.0,0.0,0.0,0.0,0.0,0.0,0.0,0.0,0.0,0.0,0.0,0.0,0.0,0.0,0.0,0.0,0.0,0.0,0.0,0.0,0.0,0.0,0.0,0.0,0.0,0.0,0.0,0.0,0.0,0.0,0.0,0.0,0.0,0.0,0.0,0.0,0.0,0.0,0.0,0.0,0.0,0.0,0.0,0.0,0.0,0.0,0.0,0.0,0.0,0.0,0.0,0.0,0.0,0.0,0.0,0.0,0.0,0.0,0.0,0.0,0.0,0.0,0.0,0.0,0.0,0.0,0.0,0.0,0.0,0.0,0.0,0.0,0.0,0.0,0.0,0.0,0.0,0.0,0.0,0.0,0.0,0.0,0.0,0.0,0.0,0.0,0.0,0.0,0.0,0.0,0.0,0.0,0.0,0.0,0.0,0.0,0.0,0.0,0.0,0.0,0.0,0.0,0.0,0.0,0.0,0.0,0.0,0.0,0.0,0.0,0.0,0.0,0.0,0.0,0.0,0.0,0.0,0.0,0.0,0.0,0.0,0.0,0.0,0.0,0.0,0.0,0.0,0.0,0.0,0.0,0.0,0.0,0.0,0.0,0.0,0.0,0.0,0.0,0.0,0.0,0.0,0.0,0.0,0.0,0.0,0.0,0.0,0.0,0.0,0.0,0.0,0.0,0.0,0.0,0.0,0.0,0.0,0.0,0.0,0.0,0.0,0.0,0.0,0.0,0.0,0.0,0.0,0.0,0.0,0.0,0.0,0.0,0.0,0.0,0.0,0.0,0.0,0.0,0.0,0.0,0.0,0.0,0.0,0.0,0.0,0.0,0.0,0.0,0.0,0.0,0.0,0.0,0.0,0.0,0.0,0.0,0.0,0.0,0.0,0.0,0.0,0.0,0.0,0.0,0.0,0.0,0.0,0.0,0.0,0.0,0.0,0.0,0.0,0.0,0.0,0.0,0.0,0.0,0.0,0.0,0.0,0.0,0.0,0.0,0.0,0.0,0.0,0.0,0.0,0.0,0.0,0.0,0.0,0.0,0.0,0.0,0.0,0.0,0.0,0.0,0.0,0.0,0.0,0.0,0.0,0.0,0.0,0.0,0.0,0.0,0.0,0.0,0.0,0.0,0.0,0.0,0.0,0.0,0.0,0.0,0.0,0.0,0.0,0.0,0.0,0.0,0.0,0.0,0.0,0.0,0.0,0.0,0.0,0.0,0.0,0.0,0.0,0.0,0.0,0.0,0.0,0.0,0.0,0.0,0.0,0.0,0.0,0.0,0.0,0.0,0.0,0.0,0.0,0.0,0.0,0.0,0.0,0.0,0.0,0.0,0.0,0.0,0.0,0.0,0.0,0.0,0.0,0.0,0.0,0.0,0.0,0.0,0.0,0.0,0.0,0.0,0.0,0.0,0.0,0.0,0.0,0.0,0.0,0.0,0.0,0.0,0.0,0.0,0.0,0.0,0.0,0.0,0.0,0.0,0.0,0.0,0.0,0.0,0.0,0.0,0.0,0.0,0.0,0.0,0.0,0.0,0.0,0.0,0.0,0.0,0.0,0.0,0.0,0.0,0.0,0.0,0.0,0.0,0.0,0.0,0.0,0.0,0.0,0.0,0.0,0.0,0.0,0.0,0.0,0.0,0.0,0.0,0.0,0.0,0.0,0.0,0.0,0.0,0.0,0.0,0.0,0.0,0.0,0.0,0.0,0.0,0.0,0.0,0.0,0.0,0.0,0.0,0.0,0.0,0.0,0.0,0.0,0.0,0.0,0.0,0.0,0.0,0.0,0.0,0.0,0.0,0.0,0.0,0.0,0.0,0.0,0.0,0.0,0.0,0.0,0.0,0.0,0.0,0.0,0.0,0.0,0.0,0.0,0.0,0.0,0.0,0.0,0.0,0.0,0.0,0.0,0.0,0.0,0.0,0.0,0.0,0.0,0.0,0.0,0.0,0.0,0.0,0.0,0.0,0.0,0.0,0.0,0.0,0.0,0.0,0.0,0.0,0.0,0.0,0.0,0.0,0.0,0.0,0.0,0.0,0.0,0.0,0.0,0.0,0.0,0.0,0.0,0.0,0.0,0.0,0.0,0.0,0.0,0.0,0.0,0.0,0.0,0.0,0.0,0.0,0.0,0.0,0.0,0.0,0.0,0.0,0.0,0.0,0.0,0.0,0.0,0.0,0.0,0.0,0.0,0.0,0.0,0.0,0.0,0.0,0.0,0.0,0.0,0.0,0.0,0.0,0.0,0.0,0.0,0.0,0.0,0.0,0.0,0.0,0.0,0.0,0.0,0.0,0.0,0.0,0.0,0.0,0.0,0.0,0.0,0.0,0.0,0.0,0.0,0.0,0.0,0.0,0.0,0.0,0.0,0.0,0.0,0.0,0.0,0.0,0.0,0.0,0.0,0.0,0.0,0.0,0.0,0.0,0.0,0.0,0.0,0.0,0.0,0.0,0.0,0.0,0.0,0.0,0.0,0.0,0.0,0.0,0.0,0.0,0.0,0.0,0.0,0.0,0.0,0.0,0.0,0.0,0.0,0.0,0.0,0.0,0.0,0.0,0.0,0.0,0.0,0.0,0.0,0.0,0.0,0.0,0.0,0.0,0.0,0.0,0.0,0.0,0.0,0.0,0.0,0.0,0.0,0.0,0.0,0.0,0.0,0.0,0.0,0.0,0.0,0.0,0.0,0.0,0.0,0.0,0.0,0.0,0.0,0.0,0.0,0.0,0.0,0.0,0.0,0.0,0.0,0.0,0.0,0.0,0.0,0.0,0.0,0.0,0.0,0.0,0.0,0.0,0.0,0.0,0.0,0.0,0.0,0.0,0.0,0.0,0.0,0.0,0.0,0.0,0.0,0.0,0.0,0.0,0.0,0.0,0.0,0.0,0.0,0.0,0.0,0.0,0.0,0.0,0.0,0.0,0.0,0.0,0.0,0.0,0.0,0.0,0.0,0.0,0.0,0.0,0.0,0.0,0.0,0.0,0.0,0.0,0.0,0.0,0.0,0.0,0.0,0.0,0.0,0.0,0.0,0.0,0.0,0.0,0.0,0.0,0.0,0.0,0.0,0.0,0.0,0.0,0.0,0.0,0.0,0.0,0.0,0.0,0.0,0.0,0.0,0.0,0.0,0.0,0.0,0.0,0.0,0.0,0.0,0.0,0.0,0.0,0.0,0.0,0.0,0.0,0.0,0.0,0.0,0.0,0.0,0.0,0.0,0.0,0.0,0.0,0.0,0.0,0.0,0.0,0.0,0.0,0.0,0.0,0.0,0.0,0.0,0.0,0.0,0.0,0.0,0.0,0.0,0.0,0.0,0.0,0.0,0.0,0.0,0.0,0.0,0.0,0.0,0.0,0.0,0.0,0.0,0.0,0.0,0.0,0.0,0.0,0.0,0.0,0.0,0.0,0.0,0.0,0.0,0.0,0.0,0.0,0.0,0.0,0.0,0.0,0.0,0.0,0.0,0.0,0.0,0.0,0.0,0.0,0.0,0.0,0.0,0.0,0.0,0.0,0.0,0.0,0.0,0.0,0.0,0.0,0.0,0.0,0.0,0.0,0.0,0.0,0.0,0.0,0.0,0.0,0.0,0.0,0.0,0.0,0.0,0.0,0.0,0.0,0.0,0.0,0.0,0.0,0.0,0.0,0.0,0.0,0.0,0.0,0.0,0.0,0.0,0.0,0.0,0.0,0.0,0.0,0.0,0.0,0.0,0.0,0.0,0.0,0.0,0.0,0.0,0.0,0.0,0.0,0.0,0.0,0.0,0.0,0.0,0.0,0.0,0.0,0.0,0.0,0.0,0.0,0.0,0.0,0.0,0.0,0.0,0.0,0.0,0.0,0.0,0.0,0.0,0.0,0.0,0.0,0.0,0.0,1.719,0.0,0.0,0.0,0.0,0.0,0.0,0.0,0.0,0.0,0.0,0.0,0.0,0.0,0.0,0.0,0.0,0.0,0.0,0.0,0.0,0.0,0.0,0.0,0.0,0.0,0.0,0.0,0.1733,0.1821,0.191,0.226,0.2079,0.1283,0.1283,0.1018,0.0399,-0.0598,-0.1044,-0.0873,-0.186,-0.2037,-0.1464,-0.1402,-0.0762,0.0333,0.0,0.0,0.0,0.0,0.0,0.0,0.0,0.0,0.0,0.0,0.0,0.0,0.0,0.0,0.0,0.0,0.0,0.0,0.0,0.0,0.0,0.0,0.0,0.0,0.0,0.0,0.0,0.0,0.0,0.0,0.0,0.0,0.0,0.0,0.0,0.0,0.0,0.0,0.0,0.0,0.0,0.0,0.0,0.0,0.0,0.0,0.0,0.0,0.0,0.0,0.0,0.0,0.0,0.0,0.0,0.0,0.0,0.0,0.0,0.0,0.0,0.0,0.0,0.0,0.0,0.0,0.0,0.0,0.0,0.0,0.0,1.7134,0.0,0.0,0.0,0.0,0.0,0.0,0.0,0.0,0.0,0.0,0.0,0.0,0.0,0.0,0.0,0.0,0.0,0.0,0.0,0.0,0.0,0.0,0.0,0.0089,0.0045,0.085,0.0312,0.0534,0.183,0.1111,0.0754,0.0976,0.0399,-0.0089,-0.0358,-0.1861,-0.2521,-0.2272,-0.3666,-0.417,-0.3793,-0.3741,-0.2393,-0.0167,-0.0612,0.0,0.0,0.0,0.0,0.0,0.0,0.0,0.0,0.0,0.0,0.0,0.0,0.0,0.0,0.0,0.0,0.0,0.0,0.0,0.0,0.0,0.0,0.0,0.0,0.0,0.0,0.0,0.0,0.0,0.0,0.0,0.0,0.0,0.0,0.0,0.0,0.0,0.0,0.0,0.0,0.0,0.0,0.0,0.0,0.0,0.0,0.0,0.0,0.0,0.0,0.0,0.0,0.0,0.0,0.0,0.0,0.0,0.0,0.0,0.0,0.0,0.0,0.0,1.5108,1.5165,1.5267,1.5312,1.5447,1.5728,1.6555,1.7161,1.7544,0.0,0.0,0.0,0.0,0.0,0.0,0.0,0.0,0.0,0.0,0.0,0.0,0.0,0.0,0.0,0.0,0.0,0.0,0.0,0.0,0.0,0.0,-0.0313,-0.0313,0.0089,0.0402,0.0089,-0.1114,-0.0178,-0.0356,-0.2188,-0.1689,-0.2029,-0.346,-0.3368,-0.3548,-0.4137,-0.3485,-0.3387,-0.3785,-0.3403,-0.3287,-0.3324,-0.2057,-0.2063,-0.2961,0.0,0.0,0.0,0.0,0.0,0.0,0.0,0.0,0.0,0.0,0.0,0.0,0.0,0.0,0.0,0.0,0.0,0.0,0.0,0.0,0.0,0.0,0.0,0.0,0.0,0.0,0.0,0.0,0.0,0.0,0.0,0.0,0.0,0.0,0.0,0.0,0.0,0.0,0.0,0.0,0.0,1.9124,1.9675,0.0,0.0,0.0,0.0,0.0,0.0,0.0,0.0,0.0,0.0,0.0,0.0,0.0,0.0,1.6818,1.6797,1.6246,1.5108,1.5108,1.5108,1.5108,1.5267,1.539,1.5546,1.5813,0.0,1.6637,1.7381,0.0,0.0,0.0,0.0,0.0,0.0,0.0,0.0,0.0,0.0,0.0,0.0,0.0,0.0,0.0,0.0,0.0,0.0,0.0,0.0,0.0,-0.0626,-0.067,-0.0045,-0.0313,-0.0626,-0.098,-0.0893,-0.1337,-0.2492,-0.2587,-0.3236,-0.457,-0.4606,-0.4621,-0.462,-0.3712,-0.3411,-0.3685,-0.3466,-0.3685,-0.4226,-0.3169,-0.3121,-0.3688,-0.3294,0.0,0.0,0.0,0.0,0.0,0.0,0.0,0.0,0.0,0.0,0.0,0.0,0.0,0.0,0.0,0.0,0.0,0.0,0.0,0.0,0.0,0.0,0.0,0.0,0.0,0.0,0.0,0.0,0.0,0.0,0.0,0.0,0.0,0.0,0.0,0.0,0.0,0.0,0.0,1.8793,1.9295,1.9696,1.9925,2.015,0.0,0.0,0.0,0.0,0.0,0.0,0.0,0.0,0.0,2.0149,2.0716,1.9695,1.6828,1.7433,1.6843,1.5108,1.5165,1.5244,1.5334,1.548,1.5582,1.5659,1.5748,1.5969,1.6362,1.7092,1.7947,1.8784,0.0,0.0,0.0,0.0,2.1023,2.1672,0.0,0.0,0.0,0.0,0.0,0.0,0.0,0.0,0.0,0.0,0.0,0.0,-0.0624,-0.0892,-0.0847,0.0,-0.0716,-0.1162,-0.0935,-0.1607,-0.2241,-0.2879,-0.3474,-0.4322,-0.5377,-0.5581,-0.5251,-0.4401,-0.4076,-0.3968,-0.4076,-0.3968,-0.4298,-0.4952,-0.4226,-0.4009,-0.4184,-0.4294,-0.4673,0.0,0.0,0.0,0.0,0.0,0.0,0.0,0.0,0.0,0.0,0.0,0.0,0.0,0.0,0.0,0.0,0.0,0.0,0.0,0.0,0.0,0.0,0.0,0.0,0.0,0.0,0.0,0.0,0.0,0.0,0.0,0.0,0.0,0.0,0.0,0.0,0.0,0.0,1.9095,1.9536,1.9859,2.0239,2.0512,0.0,0.0,0.0,0.0,0.0,0.0,2.1142,2.1142,2.0606,1.9464,2.0418,1.9609,1.6828,1.7353,1.679,1.5108,1.521,1.53,1.5424,1.557,1.5703,1.5792,1.5836,1.6057,1.6392,1.7008,1.7933,1.9101,1.931,1.9839,2.0478,2.0628,2.115,2.1823,0.0,0.0,0.0,0.0,0.0,0.0,0.0,0.0,0.0,0.0,0.0,-0.3209,-0.1513,-0.1203,-0.0758,0.0134,-0.0358,-0.1205,-0.2315,-0.2448,-0.3077,-0.4415,-0.4756,-0.5405,-0.6421,-0.6028,-0.5109,-0.3638,-0.4304,-0.4901,-0.5378,-0.5007,-0.5386,-0.6253,-0.512,-0.4629,-0.4673,-0.4659,-0.5093,-0.5806,0.0,0.0,0.0,0.0,0.0,0.0,0.0,0.0,0.0,0.0,0.0,0.0,0.0,0.0,0.0,0.0,0.0,0.0,0.0,0.0,0.0,0.0,0.0,0.0,0.0,0.0,0.0,0.0,0.0,0.0,0.0,0.0,0.0,0.0,0.0,0.0,0.0,0.0,0.0,2.0139,2.0581,0.0,0.0,0.0,0.0,2.1477,2.0138,1.9338,1.9427,1.9368,1.8814,1.7673,1.8293,1.8062,1.6807,1.5759,1.5233,1.5108,1.5108,1.5165,1.5312,1.5424,1.557,1.5715,1.5913,1.6293,1.6795,1.734,1.7612,1.772,1.8936,1.9435,1.9573,2.0314,2.0862,2.1355,0.0,0.0,0.0,0.0,0.0,0.0,0.0,0.0,-0.6204,-0.5956,-0.5224,-0.431,-0.3302,-0.2617,-0.2049,-0.1558,-0.1204,-0.1517,-0.2682,-0.2422,-0.293,-0.4528,-0.5079,-0.5687,-0.64,-0.6269,-0.571,-0.4677,-0.4952,-0.5171,-0.5386,-0.4896,-0.5278,-0.6263,-0.5514,-0.539,-0.566,-0.5386,-0.5655,-0.6195,-0.6583,-0.7182,0.0,0.0,0.0,0.0,0.0,0.0,0.0,0.0,0.0,0.0,0.0,0.0,0.0,0.0,0.0,0.0,0.0,0.0,0.0,0.0,0.0,0.0,0.0,0.0,0.0,0.0,0.0,0.0,0.0,0.0,0.0,0.0,0.0,0.0,0.0,0.0,0.0,2.0227,2.0597,0.0,0.0,2.1493,2.1584,2.1735,2.017,1.9212,1.924,1.8112,1.7138,1.6416,1.7346,1.715,1.5737,1.6027,1.583,1.5108,1.5289,1.5379,1.5435,1.5603,1.5703,1.5748,1.5836,1.6088,1.6504,1.7623,1.8153,1.8305,1.9236,1.9711,2.0045,2.1117,2.1761,2.223,0.0,0.0,0.0,0.0,0.0,0.0,0.0,0.0,-0.7224,-0.659,-0.5689,-0.4785,-0.3789,-0.3058,-0.2583,-0.2448,-0.1958,-0.2152,-0.3327,-0.3293,-0.3846,-0.514,-0.5756,-0.6212,-0.6411,-0.6411,-0.6069,-0.5421,-0.5643,-0.5789,-0.5858,-0.5525,-0.5801,-0.6538,-0.6045,-0.6032,-0.6365,-0.6021,-0.6055,-0.6362,-0.6588,-0.7079,-0.7723,0.0,0.0,0.0,0.0,0.0,0.0,0.0,0.0,0.0,0.0,0.0,0.0,0.0,0.0,0.0,0.0,0.0,0.0,0.0,0.0,0.0,0.0,0.0,0.0,0.0,0.0,0.0,0.0,0.0,0.0,0.0,0.0,0.0,0.0,0.0,2.008,2.0261,2.0681,2.1166,2.1648,2.1708,2.1781,2.1911,2.0258,1.8981,1.8387,1.7764,1.6542,1.4645,1.6517,1.6589,1.4549,1.5513,1.5614,1.488,1.5244,1.5563,1.5796,1.5921,1.6152,1.632,1.6378,1.6514,1.6811,1.7963,1.8665,1.9039,1.9956,2.0481,2.0855,2.196,2.2499,2.2899,0.0,0.0,0.0,0.0,0.0,0.0,0.0,-0.9545,-0.895,-0.6842,-0.582,-0.4663,-0.3061,-0.2487,-0.2308,-0.2443,-0.2536,-0.317,-0.4388,-0.5139,-0.5793,-0.6309,-0.6972,-0.7036,-0.6426,-0.6426,-0.6197,-0.5776,-0.6349,-0.6745,-0.6957,-0.6902,-0.7021,-0.7255,-0.6657,-0.6547,-0.6777,-0.6571,-0.6365,-0.6228,-0.6717,-0.7348,-0.8025,0.0,0.0,0.0,0.0,0.0,0.0,0.0,0.0,0.0,0.0,0.0,0.0,0.0,0.0,0.0,0.0,0.0,0.0,0.0,0.0,0.0,0.0,0.0,0.0,0.0,0.0,0.0,0.0,0.0,0.0,0.0,0.0,0.0,1.9479,1.9854,2.017,2.0208,2.0942,2.1479,2.1694,2.2024,2.2152,2.2027,2.0327,1.8555,1.6867,1.8278,1.7024,1.2443,1.5771,1.626,1.3437,1.4078,1.4428,1.4417,1.5028,1.5672,1.6315,1.6362,1.6765,1.7424,1.7533,1.7678,1.7858,1.8401,1.9035,1.9751,2.1003,2.1585,2.1886,2.2718,2.3096,2.3323,0.0,0.0,0.0,0.0,0.0,0.0,0.0,-0.9448,-0.9279,-0.8537,-0.7624,-0.6934,-0.6726,-0.5885,-0.5466,-0.5668,-0.5412,-0.5574,-0.6394,-0.6429,-0.664,-0.7131,-0.716,-0.7165,-0.7119,-0.7119,-0.7172,-0.7224,-0.74,-0.7495,-0.7563,-0.7176,-0.7167,-0.726,-0.6748,-0.6428,-0.6173,-0.6305,-0.6189,-0.5989,-0.6276,-0.6534,-0.674,0.0,0.0,0.0,0.0,0.0,0.0,0.0,0.0,0.0,0.0,0.0,0.0,0.0,0.0,0.0,0.0,0.0,0.0,0.0,0.0,0.0,0.0,0.0,0.0,0.0,0.0,0.0,0.0,0.0,0.0,0.0,0.0,1.9797,1.9889,2.0308,2.0712,2.1023,2.1432,2.1797,2.2053,2.2157,2.2152,2.2027,2.0327,1.9081,1.8617,1.7739,1.6282,1.423,1.5371,1.5327,1.3858,1.4327,1.4593,1.4674,1.5389,1.5863,1.6158,1.6711,1.7134,1.7412,1.7424,1.7521,1.7751,1.8773,1.9593,2.0248,2.0685,2.1167,2.1764,2.3139,2.437,2.5398,0.0,0.0,0.0,0.0,0.0,0.0,0.0,-0.9487,-0.9319,-0.8504,-0.7982,-0.7638,-0.7515,-0.6974,-0.6768,-0.7141,-0.6962,-0.7103,-0.7682,-0.7536,-0.7713,-0.8349,-0.783,-0.7689,-0.7998,-0.7779,-0.7896,-0.8248,-0.7886,-0.7756,-0.785,-0.7477,-0.7215,-0.7106,-0.6849,-0.6519,-0.6095,-0.615,-0.5994,-0.5766,-0.5706,-0.5947,-0.6332,-0.6386,-0.6131,-0.5751,-0.5747,-0.5529,-0.5148,-0.5105,0.0,0.0,0.0,0.0,0.0,0.0,0.0,0.0,0.0,0.0,0.0,0.0,0.0,0.0,0.0,0.0,0.0,0.0,0.0,0.0,0.0,0.0,0.0,0.0,2.0843,2.0847,2.0992,2.0783,2.0695,2.0909,2.1308,2.1631,2.1784,2.235,2.2651,2.2513,2.1824,2.1078,2.0281,1.9939,1.8781,1.6632,1.7535,1.742,1.6142,1.58,1.577,1.6093,1.5955,1.6198,1.6729,1.7249,1.763,0.0,1.7984,1.8085,1.8323,1.9008,1.9855,0.0,0.0,0.0,0.0,0.0,2.5083,2.6026,0.0,0.0,0.0,0.0,0.0,0.0,0.0,-0.9655,-0.9279,-0.7702,-0.7694,-0.7563,-0.6842,-0.6807,-0.7058,-0.7528,-0.7886,-0.8208,-0.8686,-0.8539,-0.8758,-0.9458,-0.8665,-0.839,-0.8826,-0.8458,-0.8492,-0.8995,-0.8126,-0.7858,-0.8047,-0.7681,-0.7297,-0.6911,-0.6911,-0.6713,-0.637,-0.6065,-0.5796,-0.5512,-0.5083,-0.5467,-0.6278,-0.6069,-0.5492,-0.4941,-0.516,-0.4772,-0.4168,-0.4666,0.0,0.0,0.0,0.0,0.0,0.0,0.0,0.0,0.0,0.0,0.0,0.0,0.0,0.0,0.0,0.0,0.0,0.0,0.0,0.0,0.0,0.0,0.0,0.0,2.2063,2.2286,2.2286,2.1291,2.0535,2.057,2.1132,2.1519,2.144,2.2609,2.3331,2.3226,2.3873,2.3536,2.1853,0.0,0.0,0.0,0.0,2.0911,1.9185,1.7962,1.7629,1.8151,1.7023,1.6943,1.782,1.8019,1.8343,1.8798,1.8798,1.8905,1.9182,1.917,1.9964,2.1264,2.2204,2.3024,2.3711,2.4695,2.5323,2.5775,0.0,0.0,0.0,0.0,0.0,0.0,0.0,-0.9971,-0.9725,-0.8805,-0.8716,-0.8683,-0.848,-0.8439,-0.8534,-0.8739,-0.997,-1.0704,-1.0648,-0.9746,-0.902,-0.8626,-0.8482,-0.8564,-0.8945,-0.9104,-0.9309,-0.9636,-0.8862,-0.8441,-0.8366,-0.7898,-0.7509,-0.717,-0.717,-0.6831,-0.6207,-0.5977,-0.5712,-0.5432,-0.5181,-0.5143,-0.5139,-0.4629,-0.4125,-0.3677,-0.335,-0.285,-0.24,-0.285,-0.2907,-0.2796,-0.2734,0.0,0.0,0.0,0.0,0.0,0.0,0.0,0.0,0.0,0.0,0.0,0.0,0.0,0.0,0.0,0.0,0.0,0.0,0.0,0.0,2.1499,2.2019,2.2286,2.2286,2.207,2.1997,2.229,2.2684,2.2909,2.2891,2.314,2.3323,2.3289,2.3351,2.3408,2.3371,2.3632,0.0,2.1141,2.1694,2.1235,1.9602,1.9526,1.9599,1.9844,0.0,0.0,1.9141,1.9651,1.9461,1.8614,1.8614,1.8732,1.8905,1.8999,1.9842,2.1187,2.2601,2.3595,2.423,2.4436,2.5091,2.5881,0.0,0.0,0.0,0.0,0.0,0.0,0.0,-0.9961,-0.9883,-0.9328,-0.9417,-0.9506,-0.9475,-0.9686,-0.9989,-1.0413,-1.1213,-1.1533,-1.124,-1.0049,-0.919,-0.8745,-0.8723,-0.8948,-0.9537,-0.9459,-0.9621,-1.004,-0.8877,-0.8301,-0.8236,-0.7366,-0.6881,-0.6676,-0.6475,-0.6206,-0.5862,-0.5522,-0.5226,-0.4948,-0.4681,-0.4504,-0.437,-0.4346,-0.391,-0.3408,-0.3299,-0.2629,-0.1846,-0.224,-0.224,-0.2015,-0.1679,-0.1846,-0.2071,0.0,0.0,0.0,0.0,0.0,0.0,0.0,0.0,0.0,0.0,0.0,0.0,0.0,0.0,1.8223,1.9533,0.0,2.173,2.2513,2.2998,2.3302,2.3302,2.3302,2.3118,2.2627,2.2848,2.3048,2.3048,2.3545,2.3861,2.3861,2.4148,2.4414,2.4609,2.4661,2.4344,2.3633,2.3768,2.3474,2.2665,2.1852,2.1557,2.1741,2.1242,2.0848,2.0604,2.071,2.0506,2.0104,2.0217,2.0002,1.9684,2.0287,2.1392,2.2868,2.3504,2.3821,2.3936,2.4293,2.4879,2.5654,0.0,0.0,0.0,0.0,0.0,0.0,0.0,-0.9952,-1.0,-0.9558,-0.9765,-0.9932,-0.9902,-1.0381,-1.1081,-1.1991,-1.1742,-1.1458,-1.1249,-1.0005,-0.9099,-0.8791,-0.8851,-0.9234,-0.9884,-0.9616,-0.9786,-1.0301,-0.8753,-0.7977,-0.7917,-0.6775,-0.6133,-0.6062,-0.5726,-0.5529,-0.5393,-0.4903,-0.4628,-0.4414,-0.41,-0.3919,-0.3922,-0.4216,-0.3909,-0.3355,-0.3574,-0.2794,-0.1736,-0.2015,-0.1847,-0.1399,-0.0841,-0.1176,-0.168,-0.1454,-0.1958,0.0,0.0,0.0,0.0,0.0,0.0,0.0,0.0,0.0,1.1337,1.5644,1.7575,1.8931,2.028,2.1649,2.2694,2.3201,2.3681,2.4036,2.4036,2.4036,2.364,2.2677,2.2901,2.3127,2.3127,2.3915,2.4457,2.4457,2.497,2.5329,2.5368,2.5497,2.5589,2.5642,2.5642,2.5605,2.5605,2.4067,2.34,2.3571,2.2275,2.1851,2.2188,2.1876,2.1805,2.1945,2.2123,2.1783,2.1104,2.2023,2.3237,2.4491,2.4444,2.4108,2.3752,2.4347,2.4977,2.5645,0.0,0.0,0.0,0.0,0.0,0.0,0.0,0.0,-1.0118,-0.9658,-0.9746,-0.9746,-0.9558,-1.0036,-1.1093,-1.2905,-1.1526,-1.0822,-1.1428,-0.9717,-0.8468,-0.8031,-0.844,-0.8827,-0.9305,-0.9635,-0.9988,-1.0301,-0.8865,-0.8021,-0.7712,-0.6713,-0.5975,-0.549,-0.5552,-0.5274,-0.472,-0.4467,-0.4156,-0.3882,-0.3714,-0.3673,-0.3686,-0.351,-0.334,-0.313,-0.3186,-0.2406,-0.1402,-0.1736,-0.1456,-0.0953,-0.0785,-0.0785,-0.0953,-0.1567,0.0,-0.2232,-0.2907,-0.1226,0.141,0.4424,0.5228,0.6075,0.0,0.0,1.2848,1.4736,1.7508,1.9683,1.9888,2.1077,2.2077,2.217,2.2663,2.3068,2.3068,2.3068,2.3143,2.3443,2.3948,2.4306,2.4306,2.4474,2.4585,2.4585,2.4599,2.4791,2.5192,2.5208,2.5378,2.5844,2.5754,2.5663,2.5605,2.5268,2.5043,2.4968,2.4794,2.4462,2.4024,2.402,2.3686,2.3111,2.3263,2.3201,2.3026,2.3614,2.3987,2.4215,2.49,2.4967,2.4689,2.5048,2.5775,2.6631,0.0,0.0,0.0,0.0,0.0,0.0,0.0,0.0,0.0,-1.0099,-1.0176,-1.0264,-1.0264,-1.1074,-1.2095,-1.3144,-1.1689,-1.0965,-1.1621,-0.9415,-0.815,-0.8302,-0.8255,-0.8392,-0.884,-0.9063,-0.9398,-0.9799,-0.8414,-0.7637,-0.7377,-0.6018,-0.5251,-0.491,-0.4772,-0.4433,-0.3954,-0.3641,-0.3326,-0.3013,-0.3105,-0.3132,-0.3058,-0.325,-0.3225,-0.313,-0.3572,-0.3016,0.0,0.0,-0.2011,-0.101,-0.0954,-0.1064,-0.1287,-0.179,-0.2235,0.0,-0.1334,-0.0225,0.1386,0.0,0.546,0.6476,0.8661,1.0186,1.1768,1.3932,1.5991,1.7607,1.82,1.9571,2.0591,0.0,2.1027,2.1647,2.2275,2.2381,2.2667,2.3493,2.3867,2.4193,2.4457,2.4385,2.4328,2.4328,2.4078,2.4078,2.4256,2.4313,2.4451,2.4679,2.4623,2.4583,2.4558,2.4973,2.5051,2.4872,2.5412,2.5544,2.5279,2.5091,2.4926,2.4836,2.4106,2.4579,2.5803,2.4999,2.505,2.5627,2.5694,2.5346,2.4798,2.4768,2.4972,2.5386,0.0,0.0,0.0,0.0,0.0,0.0,0.0,0.0,0.0,0.0,-1.0467,-1.0671,-1.0919,-1.1871,-1.27,-1.3176,-1.1948,-1.1223,-1.1323,-0.9155,-0.7937,-0.809,-0.7771,-0.7847,-0.8341,-0.8299,-0.8451,-0.9011,-0.7578,-0.6852,-0.6578,-0.5157,-0.4326,-0.3954,-0.3727,-0.3449,-0.3115,-0.2832,-0.2596,-0.2356,-0.246,-0.2572,-0.2646,-0.2911,-0.3083,-0.3297,-0.3956,-0.3572,0.0,0.0,-0.2894,-0.1788,-0.1843,-0.2009,-0.2286,-0.2676,-0.3125,-0.3016,-0.0898,0.0,0.0,0.3992,0.5355,0.6556,0.8515,0.9591,1.0774,1.286,1.4394,1.5538,1.6231,1.7787,1.8955,1.8955,1.9636,2.0463,2.1295,2.1547,2.1997,2.2891,2.3128,2.3391,2.3822,2.3979,2.4078,2.4078,2.3824,2.3653,2.3696,2.3782,2.3839,2.3839,2.4048,2.4139,2.4068,2.4863,2.5107,2.4896,2.5576,2.6031,2.6275,2.6174,2.634,2.6598,2.5401,2.5893,2.7481,2.613,2.6043,2.6749,2.6547,2.6074,2.5444,2.515,2.5126,2.5379,0.0,0.0,0.0,0.0,0.0,0.0,0.0,0.0,0.0,0.0,0.0,0.0,0.0,-1.1891,-1.2494,-1.2962,-1.2273,-1.1323,-1.0195,-0.9051,-0.7883,-0.681,-0.6874,-0.7203,-0.7723,-0.7265,-0.7323,-0.7968,-0.6473,-0.5536,-0.5118,-0.411,-0.3201,-0.248,-0.2608,-0.2449,-0.2126,-0.2128,-0.21,-0.2093,-0.197,-0.218,-0.2581,-0.2327,-0.2796,-0.3624,-0.4067,0.0,0.0,0.0,-0.3938,-0.3487,-0.3657,-0.3712,0.0,-0.4601,-0.467,-0.4101,0.0,0.0,0.077,0.3384,0.4842,0.6227,0.85,0.9875,1.0857,1.1439,1.3126,1.4492,1.4298,1.593,1.73,1.73,1.8713,1.985,1.9837,2.0446,2.0979,2.1417,2.1629,2.1885,0.0,2.3333,2.4024,2.4024,2.3882,2.3839,2.3982,2.3882,2.3839,2.3982,2.4676,2.4952,2.4702,2.5455,2.5787,2.5679,2.571,2.6165,2.7003,2.7606,2.8057,2.8271,2.7456,2.718,2.7303,2.6917,2.6824,2.6945,2.7518,2.7478,2.7081,2.6838,2.713,2.7861,0.0,0.0,0.0,0.0,0.0,0.0,0.0,0.0,0.0,0.0,0.0,0.0,0.0,0.0,0.0,0.0,-1.1379,-1.0754,-1.0171,-0.8842,-0.7865,-0.7402,-0.6756,-0.6574,-0.6819,-0.668,-0.673,-0.7039,-0.5986,-0.5104,-0.435,-0.3554,-0.27,-0.1902,-0.1946,-0.175,-0.1437,-0.1422,-0.1278,-0.1076,-0.1301,-0.1511,-0.1652,-0.2308,-0.2796,-0.3294,0.0,0.0,0.0,-0.5218,-0.4827,-0.3886,-0.4106,0.0,-0.4488,-0.4776,-0.4563,-0.3758,-0.1856,0.0,0.0548,0.2787,0.3952,0.4863,0.5967,0.7214,0.8243,0.8441,0.9574,1.0719,1.1131,1.2598,1.3884,1.4599,1.5733,1.698,1.8282,1.8655,1.9261,2.0406,2.0604,0.0,0.0,0.0,0.0,2.2741,2.2543,2.248,2.2526,2.248,2.268,2.3108,2.3717,2.4224,2.463,2.5708,2.6243,2.6306,2.6741,2.7169,2.7523,2.7685,2.7667,2.7595,2.7018,2.6716,2.6581,2.6748,2.6518,2.6209,2.7153,2.7188,2.6731,2.7226,2.776,2.8257,0.0,0.0,0.0,0.0,0.0,0.0,0.0,0.0,0.0,0.0,0.0,0.0,0.0,0.0,0.0,0.0,0.0,0.0,-1.0108,-0.8849,-0.8072,-0.7925,-0.7128,-0.675,-0.6912,-0.6673,-0.658,-0.6529,-0.5678,-0.4647,-0.35,-0.2903,-0.2071,-0.1232,-0.1157,-0.1031,-0.0787,-0.0718,-0.0707,-0.0752,-0.1099,-0.1428,-0.1847,-0.2575,-0.3132,0.0,0.0,0.0,0.0,-0.5823,-0.5546,-0.4831,-0.5105,-0.5374,-0.5479,-0.5167,-0.4783,-0.3978,-0.1856,-0.0899,0.0,0.1973,0.2877,0.36,0.4593,0.5515,0.6237,0.6572,0.7321,0.8009,0.842,1.0026,1.15,1.2142,1.3647,1.5216,1.677,1.7203,1.7804,1.9052,1.9441,0.0,0.0,0.0,0.0,2.1493,2.1534,2.1684,2.2014,2.2187,2.2526,2.315,2.3731,2.4276,2.4704,2.5843,2.6618,2.6946,2.753,2.7754,2.761,2.761,2.7407,2.701,2.6641,2.6576,2.6773,2.6882,2.6888,2.6888,2.7861,2.7998,2.7769,2.8505,2.908,2.9359,0.0,0.0,0.0,0.0,0.0,0.0,0.0,0.0,0.0,0.0,0.0,0.0,0.0,0.0,0.0,0.0,0.0,0.0,-0.9784,-0.9026,-0.8508,-0.8277,-0.7771,-0.7616,-0.7818,-0.723,-0.674,-0.6416,-0.5386,-0.4188,-0.2749,-0.2109,-0.1371,-0.0553,-0.0417,-0.0353,-0.0352,-0.0171,-0.0504,-0.1118,-0.1285,-0.1955,-0.2905,-0.3074,0.0,0.0,0.0,0.0,0.0,0.0,0.0,0.0,0.0,-0.6756,-0.6756,-0.5605,-0.523,-0.4772,-0.2625,-0.1688,-0.087,0.0894,0.1643,0.2477,0.4191,0.4653,0.4982,0.5774,0.6237,0.6433,0.0,0.0,1.0071,1.0134,1.2461,1.4526,1.536,1.6017,1.6704,0.0,0.0,0.0,0.0,0.0,0.0,2.0357,0.0,2.1444,2.2365,2.281,2.3264,2.3877,2.4643,2.499,2.4927,2.5983,2.693,2.761,2.7944,2.7837,2.7287,2.7473,2.7283,2.6788,2.6424,2.6832,2.7681,2.7356,2.7885,2.8873,2.9471,2.9854,3.0078,3.0588,3.1012,3.1238,0.0,0.0,0.0,0.0,0.0,0.0,0.0,0.0,0.0,0.0,0.0,0.0,0.0,0.0,0.0,0.0,0.0,0.0,-0.883,-0.86,-0.8283,-0.7723,-0.7557,-0.7337,-0.6966,-0.695,0.0,-0.6258,-0.5332,-0.4418,-0.3498,-0.2826,-0.2047,-0.132,-0.1309,-0.1191,-0.1079,-0.1236,-0.1399,-0.151,0.0,-0.2127,-0.2462,0.0,0.0,0.0,0.0,0.0,0.0,0.0,0.0,0.0,0.0,-0.5391,-0.5336,-0.4673,-0.4244,-0.3776,-0.2891,-0.1991,-0.109,-0.0198,0.0401,0.1006,0.1876,0.2876,0.3675,0.3875,0.4005,0.4408,0.0,0.0,0.0,0.9255,1.141,0.0,1.4709,1.4632,0.0,0.0,0.0,1.644,1.6946,1.7202,0.0,0.0,2.0163,2.0821,2.108,2.157,2.2182,2.2851,2.3482,2.4368,2.5382,2.6672,2.7458,2.7725,2.7342,2.7202,2.7224,2.7271,2.7117,2.682,2.7237,2.7519,2.7802,2.7937,2.8315,2.8873,2.9671,3.0106,3.0421,3.142,3.1992,3.2309,0.0,0.0,0.0,0.0,0.0,0.0,0.0,0.0,0.0,0.0,0.0,0.0,0.0,0.0,0.0,0.0,0.0,0.0,0.0,-0.8514,-0.8296,-0.8143,-0.7871,-0.7498,-0.7176,-0.7171,0.0,0.0,0.0,0.0,-0.3782,-0.3123,-0.2402,-0.1788,-0.1509,-0.1342,-0.1232,-0.1343,0.0,0.0,0.0,0.0,0.0,0.0,0.0,0.0,0.0,0.0,0.0,0.0,0.0,-0.4886,-0.4787,-0.4787,-0.4787,-0.4288,0.0,-0.3179,-0.2377,-0.1573,-0.0778,-0.02,0.0135,0.0538,0.1008,0.1611,0.2213,0.2348,0.2683,0.0,0.0,0.0,0.0,0.0,0.0,0.0,1.3588,1.3408,1.3648,0.0,1.5381,0.0,1.6539,1.7081,1.7717,0.0,1.9277,1.9925,2.0495,2.1304,2.2083,2.2857,2.3436,2.4444,2.5701,2.6811,2.7425,2.7467,2.7488,2.7315,2.701,2.7441,2.7389,2.7008,0.0,2.8314,2.8675,2.908,2.9641,3.0347,3.1268,3.1771,3.2068,3.3328,3.3902,3.4109,0.0,0.0,0.0,0.0,0.0,0.0,0.0,0.0,0.0,0.0,0.0,0.0,0.0,0.0,0.0,0.0,0.0,0.0,0.0,0.0,0.0,0.0,-0.819,-0.7818,0.0,0.0,0.0,0.0,0.0,0.0,0.0,0.0,0.0,0.0,0.0,0.0,0.0,0.0,0.0,0.0,0.0,0.0,0.0,0.0,0.0,0.0,0.0,0.0,0.0,0.0,-0.3508,-0.3843,-0.4125,-0.4291,-0.4346,-0.3863,-0.333,-0.2611,-0.1596,-0.0886,-0.0261,0.0268,0.0404,0.0606,0.0942,0.0941,0.1008,0.1412,0.0,0.2753,0.2954,0.0,0.7483,0.7683,0.0,1.1476,1.2328,1.2451,1.3,1.446,1.5031,1.5575,1.6415,1.7464,1.8162,1.84,1.8516,1.9156,2.0505,2.1606,2.2539,2.3301,2.3989,2.4808,2.5729,2.6582,2.7041,2.7082,2.7951,2.7904,2.702,2.7879,2.7977,2.7481,0.0,0.0,2.9984,3.0564,3.1382,3.2402,3.3283,3.3793,3.4089,3.5411,3.596,3.6054,0.0,0.0,0.0,0.0,0.0,0.0,0.0,0.0,0.0,0.0,-0.5836,-0.6326,0.0,0.0,0.0,0.0,0.0,0.0,0.0,0.0,0.0,0.0,-0.7498,-0.7331,0.0,0.0,0.0,0.0,0.0,0.0,0.0,0.0,0.0,0.0,0.0,0.0,0.0,0.0,0.0,0.0,0.0,0.0,0.0,0.0,0.0,0.0,0.0,0.0,0.0,0.0,-0.3123,-0.2734,-0.2627,-0.2291,-0.1964,-0.2252,-0.2025,-0.1597,-0.1455,-0.0913,-0.0467,-0.0336,0.0067,0.0539,0.0607,0.1077,0.0,0.0,0.0,0.3088,0.4228,0.5269,0.0,0.7483,0.0,0.0,0.0,0.0,1.2474,0.0,0.0,0.0,0.0,0.0,0.0,0.0,0.0,0.0,2.09,2.174,2.2518,2.339,2.406,2.4637,2.5005,2.6106,2.693,2.7443,2.7942,2.8248,2.8445,2.851,2.8576,2.8744,0.0,0.0,3.1153,3.1981,3.2681,3.3311,3.3827,3.4126,3.4419,3.5847,3.6476,3.6816,0.0,0.0,0.0,0.0,0.0,0.0,0.0,-0.4171,-0.4274,-0.4782,-0.4857,-0.522,-0.6211,-0.6467,-0.6685,0.0,0.0,0.0,0.0,0.0,0.0,0.0,0.0,0.0,0.0,0.0,0.0,0.0,0.0,0.0,0.0,0.0,0.0,0.0,0.0,0.0,0.0,0.0,0.0,0.0,0.0,0.0,0.0,0.0,0.0,0.0,0.0,0.0,0.0,0.0,-0.2289,-0.1675,-0.1621,-0.1285,-0.09,-0.1105,-0.0781,-0.031,-0.0319,0.0131,0.0605,0.0605,0.0807,0.1077,0.0942,0.0,0.0,0.0,0.2218,0.2887,0.3556,0.0,0.0,0.0,0.0,0.0,0.0,0.0,0.0,0.0,0.0,0.0,0.0,0.0,0.0,0.0,0.0,0.0,2.0266,2.1475,2.2421,2.3245,2.4699,2.5554,2.5838,2.7032,2.7751,2.7939,2.8679,2.9034,2.8961,2.958,2.9988,3.0291,3.0988,0.0,3.228,3.294,3.3414,3.3859,3.4812,3.5006,3.4852,3.6368,3.6717,3.6552,0.0,0.0,0.0,0.0,0.0,0.0,0.0,-0.3316,-0.3481,-0.4006,-0.3776,-0.3908,-0.4812,-0.5507,-0.6036,0.0,0.0,0.0,0.0,0.0,0.0,0.0,0.0,0.0,0.0,0.0,0.0,0.0,0.0,0.0,0.0,0.0,0.0,0.0,0.0,0.0,0.0,0.0,0.0,0.0,0.0,0.0,0.0,0.0,0.0,0.0,0.0,0.0,0.0,0.0,-0.1789,-0.1006,-0.1062,-0.0618,-0.0114,-0.0294,0.0182,0.0814,0.0902,0.1256,0.1614,0.1614,0.1614,0.1547,0.1412,0.1277,0.0,0.0,0.2218,0.3021,0.3353,0.0,0.0,0.0,0.0,0.0,0.0,0.0,0.0,0.0,0.0,0.0,0.0,0.0,0.0,0.0,0.0,0.0,2.0107,2.1647,2.2727,2.3336,2.5209,2.64,2.6719,2.7954,2.8566,2.8513,2.9654,3.0008,2.9635,3.0654,3.1297,3.1693,3.2205,0.0,0.0,3.3601,3.3833,3.3974,3.5154,3.5275,3.4907,3.6237,3.6318,3.5836,0.0,0.0,0.0,0.0,0.0,0.0,0.0,-0.222,-0.2169,-0.2609,-0.2286,-0.2176,-0.272,-0.4488,-0.5655,0.0,0.0,0.0,0.0,0.0,0.0,0.0,0.0,0.0,0.0,0.0,0.0,0.0,0.0,0.0,0.0,0.0,0.0,0.0,0.0,0.0,0.0,0.0,0.0,0.0,0.0,0.0,0.0,0.0,0.0,0.0,0.0,0.0,0.0,0.0,0.0,-0.1229,-0.1006,-0.0114,0.0767,0.0061,0.0,0.0,0.1528,0.1544,0.1614,0.1614,0.1614,0.1614,0.1547,0.0,0.0,0.3222,0.3625,0.409,0.5355,0.6272,0.0,0.0,0.0,0.0,0.0,0.0,0.0,0.0,0.0,0.0,0.0,0.0,0.0,0.0,0.0,0.0,0.0,2.3096,2.3816,2.409,2.5331,2.6174,2.6526,2.7834,2.8743,2.9145,3.0338,3.1025,3.1309,3.135,3.1795,3.2492,0.0,0.0,0.0,3.39,3.3955,3.349,3.3741,3.3928,3.4042,3.4576,3.478,3.4889,0.0,0.0,0.0,0.0,0.0,0.0,-0.2065,-0.19,-0.1846,-0.2068,-0.19,-0.1846,-0.2068,-0.3063,-0.4003,-0.4611,0.0,0.0,0.0,0.0,0.0,0.0,0.0,0.0,0.0,0.0,0.0,0.0,0.0,0.0,0.0,0.0,0.0,0.0,0.0,0.0,0.0,0.0,0.0,0.0,0.0,0.0,0.0,0.0,0.0,0.0,0.0,0.0,0.0,0.0,0.0,0.0,-0.0516,0.0531,0.0,0.0,0.1258,0.1621,0.2134,0.2284,0.2217,0.2018,0.2084,0.215,0.1883,0.0,0.2552,0.3021,0.382,0.4553,0.515,0.5815,0.6535,0.0,0.0,0.0,0.0,0.0,0.0,0.0,0.0,0.0,0.0,0.0,0.0,0.0,0.0,0.0,0.0,2.2711,2.3359,2.4163,2.6044,2.7223,2.7652,2.8947,2.9832,3.0323,3.1086,3.148,3.161,3.1916,3.2467,3.3315,0.0,0.0,0.0,3.3768,3.366,3.3532,3.3865,3.3805,3.3523,3.3969,3.3881,3.3543,0.0,0.0,0.0,0.0,0.0,-0.1175,-0.1175,-0.1062,-0.1062,-0.1231,-0.1175,-0.1231,-0.1343,-0.1677,-0.2232,-0.3118,-0.3118,0.0,0.0,0.0,0.0,0.0,0.0,0.0,0.0,0.0,0.0,0.0,0.0,0.0,0.0,0.0,0.0,0.0,0.0,0.0,0.0,0.0,0.0,0.0,0.0,0.0,0.0,0.0,0.0,0.0,0.0,0.0,0.0,0.0,0.0,0.0,0.0,0.0,0.0,0.0,0.1849,0.2097,0.2673,0.2822,0.282,0.2755,0.2887,0.3019,0.0,0.0,0.3553,0.3618,0.4414,0.5209,0.5411,0.6203,0.699,0.0,0.0,1.0053,0.0,0.0,0.0,0.0,0.0,0.0,0.0,0.0,0.0,0.0,0.0,0.0,0.0,2.2628,2.3323,2.4513,2.6505,2.7782,2.8236,2.9288,3.019,3.0821,3.1146,3.1379,3.1625,3.2023,3.2548,3.3125,0.0,0.0,0.0,3.2871,3.2681,3.2605,3.3139,3.3007,3.2651,3.309,3.2913,3.2437,0.0,0.0,0.0,0.0,0.0,0.0,0.0393,0.0671,0.0671,0.0056,0.0224,0.0168,-0.0336,-0.0393,-0.0672,-0.1285,-0.2397,0.0,0.0,0.0,0.0,0.0,0.0,0.0,0.0,0.0,0.0,-0.313,-0.3302,0.0,0.0,0.0,0.0,0.0,0.0,0.0,0.0,0.0,0.0,0.0,0.0,0.0,0.0,0.0,0.0,0.0,0.0,0.0,0.0,0.0,0.0,0.0,0.0,0.098,0.1992,0.0,0.2233,0.3159,0.3226,0.3226,0.3291,0.3818,0.4015,0.4148,0.0,0.0,0.5014,0.5738,0.587,0.6071,0.6745,0.8032,0.8988,0.8988,1.0155,0.0,0.0,0.0,0.0,0.0,0.0,0.0,0.0,0.0,0.0,0.0,0.0,0.0,0.0,2.3292,2.407,2.5331,2.6598,2.743,2.7776,2.8481,2.9233,3.0129,3.0251,3.0673,3.1351,3.1655,3.1728,0.0,0.0,0.0,0.0,3.1014,3.0724,3.0199,3.0781,3.1061,3.1179,3.1634,3.18,3.1837,0.0,0.0,0.0,0.0,0.0,0.0,0.0,0.1118,0.1118,0.0895,0.0951,0.0951,0.0783,0.0392,0.0056,-0.0112,-0.0839,0.0,0.0,0.0,0.0,0.0,0.0,0.0,0.0,0.0,-0.2404,-0.2237,-0.2293,-0.2293,-0.2237,0.0,0.0,0.0,0.0,0.0,0.0,0.0,0.0,0.0,0.0,0.0,0.0,0.0,0.0,0.0,0.0,0.0,0.0,0.0,0.0,0.0,0.0,0.0,0.0,0.2697,0.2732,0.2956,0.3491,0.3892,0.4156,0.4018,0.448,0.4878,0.4812,0.0,0.5606,0.5873,0.6654,0.7377,0.7642,0.8415,0.8988,0.8988,0.9761,0.0,0.0,0.0,0.0,0.0,0.0,0.0,0.0,0.0,0.0,0.0,0.0,0.0,0.0,2.3695,2.4895,2.6027,2.7139,2.7894,2.8157,2.9233,2.9993,3.0404,3.1043,3.1424,3.164,3.1358,0.0,0.0,0.0,0.0,0.0,3.0429,3.0405,3.0584,3.0851,3.1184,3.1596,3.1763,3.18,3.18,0.0,0.0,0.0,0.0,0.0,0.0,0.0,0.19,0.19,0.1679,0.1733,0.1732,0.151,0.1175,0.084,0.0617,0.028,0.0,0.0,0.0,0.0,0.0,0.0,0.0,0.0,-0.1679,-0.1679,-0.1456,-0.1512,-0.1512,-0.1456,-0.14,-0.1345,0.0,0.0,0.0,0.0,0.0,0.0,0.0,0.0,0.0,-0.0112,0.0,0.0,0.0,0.0,0.0,0.0,0.0,0.0,0.0,0.0,0.0,0.0,0.0,0.362,0.3687,0.0,0.4556,0.4821,0.4948,0.5411,0.0,0.0,0.0,0.685,0.685,0.7762,0.8544,0.8544,0.9122,0.9576,0.9576,1.0212,0.0,0.0,0.0,0.0,0.0,0.0,0.0,0.0,0.0,0.0,0.0,0.0,0.0,0.0,0.0,2.4838,2.5849,2.6744,2.743,2.7908,2.8739,2.9359,2.978,3.0644,3.1161,3.1379,3.1172,0.0,0.0,0.0,0.0,0.0,2.9672,2.9745,3.0107,3.0385,3.069,3.1083,3.1257,3.1334,3.1449,0.0,0.0,0.0,0.0,0.0,0.0,0.0,0.2965,0.2907,0.235,0.2571,0.2569,0.2014,0.1902,0.1679,0.1065,0.0,0.0,0.0,0.0,0.0,0.0,0.0,0.0,0.0,-0.14,-0.14,-0.0842,-0.0954,-0.0954,-0.0842,-0.0729,-0.0842,-0.1234,-0.0954,0.0,0.0,0.0,0.0,0.0,0.0785,0.1232,0.0,0.0,0.0,0.0,0.0,0.0,0.0,0.0,0.0,0.0,0.0,0.0,0.0,0.0,0.0,0.0,0.0,0.5153,0.5484,0.6478,0.6741,0.6868,0.7391,0.0,0.0,0.849,0.9005,0.9518,0.9582,1.0161,1.0611,1.0611,1.1303,0.0,0.0,0.0,0.0,0.0,0.0,0.0,0.0,0.0,0.0,0.0,0.0,0.0,0.0,0.0,2.412,2.4933,2.5569,2.6346,2.7201,2.7335,2.7776,2.8546,2.9393,3.0119,3.069,3.097,0.0,0.0,0.0,0.0,0.0,2.8826,2.8904,2.8997,2.9572,2.9793,2.9881,3.0351,3.0642,3.0868,0.0,0.0,0.0,0.0,0.0,0.0,0.0,0.0,0.0,0.0,0.3411,0.3461,0.335,0.2905,0.2571,0.0,0.0,0.0,0.0,0.0,0.0,0.0,0.0,0.0,0.0,-0.0336,-0.0336,-0.0224,-0.0224,-0.0224,-0.0224,-0.0168,-0.028,-0.0449,-0.0505,-0.0336,0.0,0.0,0.0,0.0,0.1512,0.1734,0.0,0.0,0.0,0.0,0.3154,0.3505,0.0,0.0,0.0,0.0,0.0,0.0,0.0,0.0,0.4367,0.4697,0.5491,0.0,0.6408,0.6609,0.6999,0.7326,0.0,0.0,0.0,0.0,0.0,0.9837,1.0085,1.0975,1.1747,1.1747,1.1872,0.0,0.0,0.0,0.0,0.0,0.0,0.0,0.0,0.0,0.0,0.0,0.0,0.0,0.0,0.0,2.4009,2.4719,2.5627,2.6195,2.6633,2.7815,2.8546,2.8739,2.9747,3.0038,2.9711,2.9792,0.0,0.0,0.0,0.0,2.8621,2.8779,2.9075,2.9438,2.9572,2.9924,3.0351,3.0477,3.0707,3.1083,0.0,0.0,0.0,0.0,0.0,0.0,0.0,0.0,0.0,0.0,0.0,0.407,0.4181,0.363,0.0,0.0,0.0,0.0,0.0,0.0,0.0,0.0,0.0,0.0,0.0,0.0,0.0,0.0,0.0,0.0,0.0,-0.0056,-0.0168,-0.028,-0.028,0.0,0.0,0.0,0.0,0.0,0.2125,0.0,0.0,0.0,0.0,0.0,0.4079,0.4312,0.0,0.4573,0.4638,0.4694,0.0,0.0,0.0,0.0,0.496,0.5554,0.6086,0.6284,0.6478,0.7134,0.7526,0.7787,0.7922,0.0,0.0,0.0,0.0,1.0598,1.1038,1.174,0.0,1.212,0.0,0.0,0.0,0.0,0.0,0.0,0.0,0.0,0.0,0.0,0.0,0.0,0.0,0.0,0.0,0.0,2.3801,2.4154,2.5217,2.607,2.6837,2.7908,2.8509,2.8509,2.9373,2.9543,2.8964,2.8997,2.8862,0.0,0.0,0.0,2.8621,2.8763,2.9013,2.9257,2.938,2.9589,2.9837,2.9837,3.0081,3.0418,0.0,0.0,0.0,0.0,0.0,0.0,0.0,0.0,0.0,0.0,0.0,0.0,0.0,0.0,0.0,0.0,0.0,0.0,0.0,0.0,0.0,0.0,0.0,0.0224,0.0224,0.0224,0.0168,0.0168,0.028,0.028,0.028,0.0168,0.0,-0.0168,-0.0056,0.0393,0.0,0.0,0.0,0.0,0.2697,0.0,0.0,0.0,0.0,0.0,0.0,0.0,0.0,0.4985,0.496,0.4831,0.4831,0.0,0.0,0.0,0.0,0.0,0.6802,0.6544,0.6478,0.7792,0.8052,0.8117,0.8447,0.0,0.0,0.0,0.0,0.0,0.0,0.0,0.0,0.0,0.0,0.0,0.0,0.0,0.0,0.0,0.0,0.0,0.0,0.0,0.0,0.0,0.0,0.0,0.0,0.0,0.0,2.3751,2.4945,2.6082,2.7268,2.7749,2.8079,2.8145,2.8881,2.8872,2.8237,2.8411,2.8422,0.0,0.0,0.0,2.8589,2.8826,2.892,2.8967,2.9075,2.9075,2.9075,2.9075,2.9369,2.9855,0.0,0.0,0.0,0.0,0.0,0.0,0.0,0.0,0.0,0.0,0.0,0.0,0.0,0.0,0.0,0.0,0.0,0.0,0.0,0.0,0.0,0.0,0.1677,0.1119,0.1119,0.1119,0.1064,0.0954,0.1456,0.1623,0.1511,0.1511,0.1286,0.0895,0.1008,0.1344,0.1842,0.0,0.0,0.297,0.3571,0.0,0.0,0.0,0.0,0.0,0.0,0.0,0.0,0.5935,0.555,0.5024,0.4827,0.0,0.0,0.0,0.0,0.0,0.7447,0.7512,0.7582,0.8247,0.8452,0.8447,0.8517,0.0,0.0,0.0,0.0,0.0,0.0,0.0,0.0,0.0,0.0,0.0,0.0,0.0,0.0,0.0,0.0,0.0,0.0,0.0,0.0,0.0,0.0,0.0,0.0,0.0,0.0,2.4646,2.6013,2.6837,2.704,2.739,2.7789,2.83,2.8573,2.8242,2.7387,2.7937,2.7722,0.0,0.0,2.8332,2.8444,2.8905,2.9075,2.9075,2.9075,2.9075,2.9075,2.9075,2.9884,3.1139,0.0,0.0,0.0,0.0,0.0,0.0,0.0,0.0,0.0,0.0,0.0,0.0,0.0,0.0,0.0,0.0,0.0,0.0,0.0,0.0,0.0,0.3852,0.2847,0.2068,0.1679,0.1679,0.1623,0.1456,0.1736,0.1846,0.179,0.1734,0.1789,0.1955,0.1958,0.2313,0.2921,0.3382,0.365,0.3829,0.0,0.0,0.0,0.0,0.0,0.0,0.0,0.0,0.0,0.0,0.6075,0.5873,0.6141,0.0,0.0,0.0,0.0,0.0,0.8032,0.8425,0.8818,0.9582,0.9582,0.9582,1.0015,0.0,0.0,0.0,0.0,0.0,0.0,0.0,0.0,0.0,0.0,0.0,0.0,0.0,0.0,0.0,0.0,0.0,0.0,0.0,0.0,0.0,0.0,0.0,0.0,0.0,0.0,0.0,2.5606,2.6208,2.6564,2.704,2.7643,2.8444,2.8587,2.8138,2.7189,2.7485,2.7272,2.6721,0.0,2.8206,2.8885,2.9373,2.9816,3.0131,3.0211,3.0259,3.0291,3.0815,3.187,3.3149,0.0,0.0,0.0,0.0,0.0,0.0,0.0,0.0,0.0,0.0,0.0,0.0,0.0,0.0,0.0,0.0,0.0,0.0,0.0,0.0,0.4629,0.4791,0.4015,0.3236,0.2404,0.2293,0.2183,0.2125,0.2237,0.2291,0.2347,0.2289,0.2579,0.3107,0.2936,0.3275,0.3968,0.438,0.4621,0.4665,0.0,0.0,0.0,0.0,0.0,0.0,0.0,0.0,0.0,0.0,0.0,0.0,0.0,0.0,0.0,0.7647,0.8166,0.8753,0.8753,0.9087,0.9734,1.0591,0.0,1.0528,1.1392,0.0,0.0,0.0,0.0,0.0,0.0,0.0,0.0,0.0,0.0,0.0,0.0,0.0,0.0,0.0,0.0,0.0,0.0,0.0,0.0,0.0,0.0,0.0,0.0,0.0,0.0,0.0,2.5324,2.5734,2.622,2.696,2.7709,2.8392,2.8522,2.822,2.7515,2.7515,2.7398,2.7186,2.7579,2.8329,2.927,2.9878,3.0423,3.0942,3.1281,3.1605,3.1911,3.2978,3.3989,3.489,0.0,0.0,0.0,0.0,0.0,0.0,0.0,0.0,0.0,0.0,0.0,0.0,0.0,0.0,0.0,0.0,0.0,0.0,0.0,0.0,0.5664,0.5719,0.5332,0.4618,0.3514,0.3186,0.3019,0.3019,0.3461,0.3793,0.4012,0.4181,0.431,0.4378,0.4082,0.4333,0.4887,0.4823,0.5076,0.5589,0.5443,0.0,0.0,0.0,0.0,0.0,0.0,0.0,0.0,0.0,0.0,0.0,0.0,0.0,0.8425,0.8425,0.8888,0.9414,0.9414,0.9484,0.9734,1.0737,1.0611,0.0,1.1703,1.2158,0.0,0.0,0.0,0.0,0.0,0.0,0.0,0.0,0.0,0.0,0.0,0.0,0.0,0.0,0.0,0.0,0.0,0.0,0.0,0.0,0.0,0.0,0.0,0.0,0.0,0.0,0.0,2.622,2.6346,2.7617,2.8105,2.7842,2.8392,2.8551,2.8517,2.8517,2.8521,2.8592,2.898,2.9228,2.9366,3.0134,3.051,3.067,3.1766,3.2771,3.37,3.4919,3.543,3.5678,0.0,0.0,0.0,0.0,0.0,0.0,0.0,0.0,0.0,0.0,0.0,0.0,0.0,0.0,0.0,0.0,0.0,0.0,0.0,0.0,0.5987,0.6046,0.5773,0.5386,0.5003,0.4567,0.4291,0.4236,0.4401,0.4619,0.4826,0.477,0.4912,0.5244,0.5005,0.5211,0.5732,0.5545,0.5605,0.5837,0.5571,0.5986,0.0,0.0,0.0,0.0,0.0,0.0,0.0,0.0,0.8296,0.8166,0.8565,0.8894,0.9151,0.9151,0.9285,0.9548,0.9926,1.0168,1.0471,1.1296,1.1365,0.0,0.0,0.0,0.0,0.0,0.0,0.0,0.0,0.0,0.0,0.0,0.0,0.0,0.0,0.0,0.0,0.0,0.0,0.0,0.0,0.0,0.0,0.0,0.0,0.0,0.0,0.0,0.0,2.5312,2.5523,2.5652,2.5721,2.6676,2.7284,2.763,2.8688,2.8893,2.8269,2.8707,2.8856,2.8737,2.9112,2.9555,2.9967,3.05,3.1175,3.1942,3.3087,3.4516,3.5986,3.6474,3.7183,3.7959,0.0,0.0,0.0,0.0,0.0,0.0,0.0,0.0,0.0,0.0,0.0,0.0,0.0,0.0,0.0,0.0,0.0,0.0,0.6756,0.6583,0.6475,0.648,0.6209,0.6078,0.6032,0.5703,0.5369,0.5031,0.5253,0.54,0.5522,0.5459,0.5608,0.5961,0.5785,0.5942,0.6229,0.6109,0.6047,0.6017,0.6013,0.647,0.0,0.0,0.0,0.0,0.0,0.0,0.0,0.0,0.8818,0.8888,0.935,0.9484,0.9484,0.9548,0.9728,0.9977,1.0421,1.0717,1.1087,0.0,0.0,0.0,0.0,0.0,0.0,0.0,0.0,0.0,0.0,0.0,0.0,0.0,0.0,0.0,0.0,0.0,0.0,0.0,0.0,0.0,0.0,0.0,0.0,0.0,0.0,0.0,0.0,0.0,0.0,0.0,2.5312,2.5382,2.5453,2.6208,2.6744,2.7229,2.8597,2.9039,2.8759,2.9199,2.9389,2.9333,2.9618,2.9967,3.0408,3.0863,3.1825,3.3131,3.4573,3.6055,3.7431,3.767,3.8433,3.9272,0.0,0.0,0.0,0.0,0.0,0.0,0.0,0.0,0.0,0.0,0.0,0.0,0.0,0.0,0.0,0.0,0.0,0.0,0.7901,0.7628,0.7354,0.709,0.6869,0.6648,0.653,0.6478,0.6129,0.5431,0.5969,0.6181,0.6186,0.6487,0.6589,0.6589,0.6467,0.6382,0.642,0.642,0.635,0.628,0.6728,0.6798,0.6741,0.0,0.0,0.0,0.0,0.0,0.0,0.0,0.9484,0.9484,0.9484,0.9484,0.9548,0.974,1.0295,1.0836,1.0954,1.1017,1.1329,0.0,0.0,0.0,0.0,0.0,0.0,0.0,0.0,0.0,0.0,0.0,0.0,0.0,0.0,0.0,0.0,0.0,0.0,0.0,0.0,0.0,0.0,0.0,0.0,0.0,0.0,0.0,0.0,0.0,0.0,0.0,2.5312,2.5453,2.5898,2.6539,2.6744,2.6521,2.7855,2.903,3.0111,3.0111,3.028,3.0568,3.0568,3.0568,3.0642,3.1117,3.2347,3.412,3.6121,3.7148,3.7706,3.8495,3.904,3.9272,0.0,0.0,0.0,0.0,0.0,0.0,0.0,0.0,0.0,0.0,0.0,0.0,0.0,0.0,0.0,0.0,0.0,0.0,0.7628,0.7521,0.7438,0.7332,0.7231,0.7167,0.7091,0.7014,0.6778,0.6397,0.652,0.6619,0.6697,0.6626,0.6602,0.6655,0.6465,0.6371,0.642,0.6284,0.6539,0.6924,0.6924,0.712,0.7447,0.0,0.0,0.0,0.0,0.0,0.0,0.0,0.0,0.0,0.9484,0.9484,0.9484,0.9548,0.9862,1.0168,1.0541,1.1281,0.0,0.0,0.0,0.0,0.0,0.0,0.0,0.0,0.0,0.0,0.0,0.0,0.0,0.0,0.0,0.0,0.0,0.0,0.0,0.0,0.0,0.0,0.0,0.0,0.0,0.0,0.0,0.0,0.0,0.0,0.0,0.0,2.5465,2.5535,2.5688,2.6176,2.6577,2.6973,2.8051,2.8698,2.8967,2.9498,3.0068,3.0568,3.0568,3.0568,3.0671,3.153,3.2779,3.4235,3.5548,3.6668,3.7648,3.8303,3.8838,3.9272,0.0,0.0,0.0,0.0,0.0,0.0,0.0,0.0,0.0,0.0,0.7794,0.7901,0.0,0.0,0.0,0.0,0.0,0.0,0.6874,0.7115,0.7221,0.705,0.7238,0.7341,0.7264,0.7293,0.7215,0.7092,0.6973,0.697,0.7031,0.6766,0.663,0.6675,0.6482,0.642,0.642,0.6284,0.6408,0.6666,0.6859,0.7186,0.7642,0.0,0.0,0.0,0.0,0.0,0.0,0.0,0.0,0.0,0.9612,0.9612,0.9676,1.011,1.0485,1.0912,1.1531,1.2212,0.0,0.0,0.0,0.0,0.0,0.0,0.0,0.0,0.0,0.0,0.0,0.0,0.0,0.0,0.0,0.0,0.0,0.0,0.0,0.0,0.0,0.0,0.0,0.0,0.0,0.0,0.0,0.0,0.0,0.0,0.0,0.0,2.5382,2.5535,2.5688,2.598,2.6383,2.6905,2.7484,2.7868,2.8117,2.9421,3.019,3.0582,3.0843,3.0945,3.1078,3.2399,3.3365,3.4041,3.5369,3.6487,3.7338,3.8001,3.8655,3.9272,0.0,0.0,0.7085,0.7085,0.0,0.0,0.0,0.0,0.0,0.0,0.7794,0.7848,0.0,0.0,0.0,0.6993,0.7058,0.6824,0.6059,0.6663,0.6885,0.6556,0.706,0.7289,0.7245,0.7431,0.7521,0.7521,0.733,0.7204,0.7138,0.6872,0.6675,0.6675,0.6482,0.642,0.642,0.642,0.6284,0.6086,0.6798,0.7186,0.7582,0.8296,0.0,0.0,0.0,0.0,0.0,0.0,0.0,0.0,0.974,0.9804,0.9989,1.0926,1.1663,1.2397,1.318,0.0,0.0,0.0,0.0,0.0,0.0,0.0,0.0,0.0,0.0,0.0,0.0,0.0,0.0,0.0,0.0,0.0,0.0,0.0,0.0,0.0,0.0,0.0,0.0,0.0,0.0,0.0,0.0,0.0,0.0,0.0,0.0,0.0,2.5382,2.5535,2.591,2.598,2.6119,0.0,2.6589,2.6905,2.767,2.9546,3.0507,3.0611,3.125,3.1555,3.17,3.3431,3.3927,3.3798,3.5525,3.6461,3.6904,3.7679,3.8511,3.9272,0.0,0.0,0.6864,0.7085,0.0,0.0,0.0,0.0,0.0,0.0,0.0,0.0,0.0,0.0,0.0,0.7298,0.7314,0.7239,0.6983,0.7121,0.7165,0.7078,0.7302,0.7476,0.7459,0.7502,0.7521,0.7521,0.733,0.7138,0.6946,0.6806,0.6609,0.6482,0.6416,0.642,0.642,0.642,0.6679,0.7195,0.7907,0.8102,0.8102,0.8818,0.9134,0.0,0.0,0.0,0.0,0.0,0.0,0.0,0.9926,0.9989,0.9983,1.0238,1.0863,1.1597,1.2101,1.3115,0.0,0.0,0.0,0.0,0.0,0.0,0.0,0.0,0.0,0.0,0.0,0.0,0.0,0.0,0.0,0.0,0.0,0.0,0.0,0.0,0.0,0.0,0.0,0.0,0.0,0.0,0.0,0.0,0.0,0.0,0.0,2.5758,2.591,2.6062,2.6131,2.6258,2.6383,0.0,2.704,2.767,2.8298,2.8762,2.9532,3.0611,3.125,3.1816,3.2367,3.3267,3.3959,3.4559,3.5852,3.6631,3.7175,3.8214,3.8914,3.9272,0.0,0.0,0.0,0.0,0.0,0.0,0.0,0.0,0.0,0.0,0.0,0.0,0.0,0.7303,0.0,0.0,0.709,0.6939,0.6542,0.6861,0.714,0.7354,0.7469,0.7521,0.7521,0.7521,0.7461,0.733,0.7138,0.7012,0.6881,0.6679,0.6482,0.642,0.642,0.642,0.6416,0.6811,0.7064,0.7386,0.8102,0.8425,0.8613,0.9,0.9262,0.0,0.0,0.0,0.0,0.0,0.0,0.0,0.0,0.0,1.0445,1.0826,1.1269,1.1845,1.2936,0.0,0.0,0.0,0.0,0.0,0.0,0.0,0.0,0.0,0.0,0.0,0.0,0.0,0.0,0.0,0.0,0.0,0.0,0.0,0.0,0.0,0.0,0.0,0.0,0.0,0.0,0.0,0.0,0.0,0.0,2.5606,2.5688,2.5898,2.598,2.6131,2.6213,2.627,2.6396,2.6533,2.685,2.7351,2.8051,2.9079,3.0088,3.1061,3.1714,3.2367,3.3021,3.3659,3.4191,3.4616,3.5415,3.6024,3.6646,3.737,3.7969,3.8439,0.0,0.0,0.0,0.0,0.0,0.0,0.0,0.0,0.0,0.0,0.0,0.0,0.0,0.7448,0.7335,0.0,0.0,0.0,0.605,0.6506,0.7026,0.7451,0.7521,0.7521,0.7521,0.7456,0.7396,0.7204,0.6942,0.0,0.0,0.0,0.0,0.642,0.6548,0.6613,0.6613,0.7391,0.7601,0.7559,0.8223,0.8831,0.925,0.0,0.0,0.0,0.0,1.0258,1.029,1.0526,0.0,0.0,0.0,0.0,1.0929,1.1657,1.1985,1.2379,1.3892,0.0,1.5164,0.0,0.0,0.0,0.0,0.0,0.0,0.0,0.0,0.0,0.0,0.0,0.0,0.0,0.0,0.0,0.0,0.0,0.0,0.0,0.0,0.0,0.0,0.0,0.0,0.0,0.0,0.0,2.5606,2.5676,2.5828,2.598,2.5968,2.605,2.627,2.627,2.6339,2.6533,2.6589,2.704,2.7736,2.9707,3.0834,3.1353,3.2159,3.2875,3.358,3.422,3.4481,3.4534,3.4935,3.5494,3.6039,3.6415,3.689,3.7488,0.0,0.0,0.0,0.0,0.0,0.0,0.0,0.0,0.0,0.0,0.6625,0.6659,0.6849,0.6897,0.6983,0.7102,0.7116,0.7201,0.727,0.0,0.0,0.7521,0.7521,0.7521,0.7521,0.733,0.7199,0.7204,0.0,0.0,0.0,0.0,0.0,0.6416,0.0,0.7326,0.7396,0.8102,0.8472,0.8719,0.9464,0.9934,1.0268,0.0,0.0,0.0,0.0,0.0,0.0,1.1288,1.1301,0.0,0.0,0.0,0.0,1.1438,1.1906,1.2444,0.0,0.0,0.0,0.0,0.0,0.0,0.0,0.0,0.0,0.0,0.0,0.0,0.0,0.0,0.0,0.0,0.0,0.0,0.0,0.0,0.0,0.0,0.0,0.0,0.0,0.0,0.0,0.0,0.0,0.0,2.5828,2.6062,2.6201,2.6383,2.6396,2.6465,2.6465,2.6465,2.6465,2.6533,2.7095,2.7736,2.8454,2.9839,3.0595,3.0708,3.1968,3.2875,3.358,3.4368,3.475,3.492,3.5688,3.6133,3.643,3.7011,3.731,3.7488,0.0,0.0,0.0,0.0,0.0,0.0,0.0,0.0,0.0,0.0,0.0,0.6917,0.7012,0.7125,0.7229,0.7383,0.7388,0.7426,0.7517,0.7521,0.7521,0.7521,0.7521,0.7521,0.7521,0.733,0.7138,0.7012,0.0,0.0,0.0,0.7693,0.7626,0.0,0.0,0.0,0.0,0.9288,0.962,0.9793,1.0479,1.0827,0.0,0.0,0.0,0.0,0.0,0.0,0.0,0.0,0.0,1.167,1.167,0.0,0.0,0.0,1.188,0.0,1.3721,1.5056,0.0,0.0,0.0,0.0,0.0,0.0,0.0,0.0,0.0,0.0,0.0,0.0,0.0,0.0,0.0,0.0,0.0,0.0,0.0,0.0,0.0,0.0,0.0,0.0,0.0,0.0,0.0,2.5016,2.5241,2.584,2.627,2.6465,2.6533,2.6533,2.6533,2.6533,2.6533,2.6533,2.6782,2.7095,2.7443,2.9143,3.0541,3.1647,3.263,3.3478,3.4236,3.4581,3.475,3.4935,3.5459,3.5703,3.5767,3.6196,3.6321,3.643,0.0,0.0,0.0,0.0,0.0,0.0,0.0,0.0,0.0,0.0,0.0,0.724,0.7293,0.0,0.0,0.0,0.7521,0.7521,0.7521,0.7521,0.7521,0.7521,0.7521,0.7521,0.7521,0.7265,0.7166,0.0,0.0,0.0,0.8318,0.8727,0.8822,0.0,0.9089,0.0,0.0,0.0,0.0,0.0,0.0,0.0,0.0,0.0,0.0,0.0,0.0,0.0,0.0,0.0,0.0,0.0,0.0,0.0,0.0,0.0,0.0,0.0,0.0,0.0,0.0,0.0,0.0,0.0,0.0,0.0,0.0,0.0,0.0,0.0,0.0,0.0,0.0,0.0,0.0,0.0,0.0,0.0,0.0,0.0,0.0,0.0,0.0,0.0,0.0,0.0,0.0,2.4636,2.5087,2.5828,2.6339,2.6533,2.6533,2.6533,2.6533,2.6533,2.6533,2.6533,2.6533,2.6665,2.7011,2.8716,3.0455,3.216,3.3122,3.3966,3.4698,3.4765,3.4817,3.5001,3.5213,3.5294,3.5294,3.5439,3.5504,3.5569,0.0,0.0,0.0,0.0,0.0,0.0,0.0,0.0,0.0,0.0,0.0,0.7293,0.7483,0.7517,0.7521,0.7521,0.7521,0.7521,0.7521,0.7521,0.7521,0.7521,0.7521,0.0,0.7521,0.7138,0.0,0.0,0.0,0.0,0.9313,0.9254,0.9721,1.0647,1.0399,1.0297,1.0378,0.0,0.0,0.0,0.0,0.0,0.0,0.0,0.0,0.0,0.0,0.0,0.0,0.0,0.0,0.0,0.0,0.0,0.0,0.0,0.0,0.0,0.0,0.0,0.0,0.0,0.0,0.0,0.0,0.0,0.0,0.0,0.0,0.0,0.0,0.0,0.0,0.0,0.0,0.0,0.0,0.0,0.0,0.0,0.0,0.0,0.0,0.0,0.0,0.0,0.0,2.5087,2.6062,2.6327,2.6465,2.6533,2.6533,2.6533,2.6533,2.6533,2.6533,2.6533,2.6533,2.713,2.8239,2.8978,2.998,3.1221,3.2815,3.3966,3.4698,3.4802,3.5016,3.5213,3.5439,3.5504,3.5504,3.5504,3.5504,3.5569,0.0,0.0,0.0,0.0,0.0,0.0,0.0,0.0,0.0,0.0,0.0,0.0,0.0,0.7396,0.7461,0.733,0.7391,0.7521,0.7521,0.7521,0.7521,0.7521,0.7912,0.0,0.0,0.0,0.0,0.0,0.0,0.9742,1.0278,1.071,1.1215,1.176,1.0904,1.0951,1.1624,1.1912,0.0,0.0,0.0,0.0,0.0,0.0,0.0,0.0,0.0,0.0,0.0,0.0,0.0,0.0,0.0,0.0,0.0,0.0,0.0,0.0,0.0,0.0,0.0,0.0,0.0,0.0,0.0,0.0,0.0,0.0,0.0,0.0,0.0,0.0,0.0,0.0,0.0,0.0,0.0,0.0,0.0,0.0,0.0,0.0,0.0,0.0,0.0,0.0,0.0,0.0,2.5382,2.6107,2.6533,2.6533,2.6533,2.6533,2.6533,2.6533,2.6533,2.6533,2.6533,2.688,2.7691,2.9297,3.0483,3.1472,3.3446,3.4182,3.4167,3.4654,3.5082,3.5424,3.5439,3.5504,3.5504,3.5504,3.5504,3.5564,0.0,0.0,0.0,0.0,0.0,0.0,0.0,0.0,0.0,0.0,0.0,0.0,0.0,0.0,0.7461,0.7652,0.7717,0.7847,0.8107,0.8042,0.7977,0.7977,0.8505,0.0,0.0,0.0,0.0,0.0,0.0,0.0,0.0,1.1499,1.1893,1.2291,1.1297,1.1388,0.0,0.0,0.0,1.2305,0.0,0.0,1.2305,0.0,0.0,0.0,0.0,0.0,0.0,0.0,0.0,0.0,0.0,0.0,0.0,0.0,0.0,0.0,0.0,0.0,0.0,0.0,0.0,0.0,0.0,0.0,0.0,0.0,0.0,0.0,0.0,0.0,0.0,0.0,0.0,0.0,0.0,0.0,0.0,0.0,0.0,0.0,0.0,0.0,0.0,0.0,0.0,0.0,2.5511,2.6164,2.6533,2.6533,2.6533,2.6533,2.6533,2.6533,2.6533,2.6533,2.6533,2.6854,2.7641,2.8969,3.01,3.1061,3.3045,3.4016,3.4288,3.4787,3.5213,3.5504,3.5504,3.5504,3.5504,3.5504,3.5639,3.5893,0.0,0.0,0.0,0.0,0.0,0.0,0.0,0.0,0.0,0.0,0.0,0.0,0.0,0.0,0.0,0.8425,0.8296,0.8495,0.9204,0.9087,0.8964,0.9028,0.934,0.0,0.0,0.0,0.0,0.0,0.0,0.0,0.0,0.0,1.1558,1.2305,1.1484,1.1558,1.2305,0.0,1.2305,1.2305,0.0,1.2305,1.2305,0.0,0.0,0.0,1.2298,1.2298,0.0,0.0,0.0,0.0,0.0,0.0,0.0,0.0,0.0,0.0,0.0,0.0,0.0,0.0,0.0,0.0,0.0,0.0,0.0,0.0,0.0,0.0,0.0,0.0,0.0,0.0,0.0,0.0,0.0,0.0,0.0,0.0,0.0,0.0,0.0,0.0,0.0,0.0,0.0,2.5441,2.6465,2.6533,2.6533,2.6533,2.6533,2.6533,2.6533,2.6533,2.6533,2.6533,2.6546,2.7055,2.8109,2.8122,2.8812,3.0011,3.1623,3.3478,3.5213,3.5213,3.5294,3.5504,3.5504,3.5504,3.5504,3.5534,3.5938,3.6492,0.0,0.0,0.0,0.0,0.0,0.0,0.0,0.0,0.0,0.0,0.0,0.0,0.0,0.0,0.7717,0.8112,0.7591,0.7591,0.8306,0.8464,0.882,0.9357,1.0073,1.0585,0.0,0.0,0.0,0.0,0.0,0.0,0.0,0.0,0.0,0.0,1.2077,1.2077,1.2305,1.2305,0.0,0.0,1.2305,1.2305,0.0,0.0,0.0,0.0,0.0,1.2753,0.0,0.0,1.2746,1.2599,0.0,0.0,0.0,0.0,0.0,0.0,1.29,0.0,0.0,0.0,0.0,0.0,0.0,1.7442,0.0,0.0,0.0,0.0,0.0,0.0,0.0,0.0,0.0,0.0,0.0,0.0,0.0,0.0,0.0,0.0,0.0,0.0,0.0,0.0,2.5652,2.6245,2.6465,2.6533,2.6533,2.6533,2.6533,2.6533,2.6533,2.6533,2.6533,2.6533,2.6866,2.749,2.8315,2.9292,3.058,3.2119,3.3129,3.4274,3.5439,3.5294,3.5294,3.5504,3.5504,3.5504,3.5564,3.6043,3.6327,3.6611,0.0,0.0,0.6207,0.632,0.0,0.0,0.0,0.0,0.0,0.0,0.0,0.0,0.0,0.0,0.0,0.8361,0.8231,0.8468,0.929,0.9435,0.9702,1.0288,1.0974,1.1339,1.1436,0.0,0.0,0.0,0.0,0.0,0.0,0.0,0.0,0.0,1.2305,1.2305,0.0,0.0,0.0,0.0,1.2305,0.0,0.0,1.2452,1.2526,0.0,0.0,0.0,1.282,1.2973,1.2973,0.0,0.0,0.0,0.0,0.0,0.0,0.0,0.0,0.0,0.0,0.0,0.0,0.0,1.6724,1.7226,1.7647,0.0,0.0,0.0,0.0,0.0,0.0,0.0,0.0,0.0,0.0,0.0,0.0,0.0,0.0,0.0,0.0,0.0,0.0,2.5229,2.6025,2.6533,2.6533,2.6533,2.6533,2.6533,2.6533,2.6533,2.6533,2.6533,2.6533,2.6533,2.7017,2.7641,2.8328,2.9387,3.0592,3.1769,3.3059,3.3905,3.4476,3.5067,3.5359,3.5504,3.5504,3.5669,3.5953,3.6342,3.6821,3.7389,0.0,0.0,0.6426,0.6426,0.6565,0.6613,0.0,0.0,0.0,0.0,0.0,0.0,0.0,0.0,0.0,0.0,0.9538,1.016,1.1075,1.1002,1.1135,1.1463,1.1757,1.1917,1.1917,1.1917,0.0,0.0,0.0,0.0,0.0,0.0,0.0,0.0,1.2405,1.2405,0.0,0.0,0.0,1.2392,1.2331,1.2305,0.0,0.0,1.2526,0.0,1.2673,1.2673,1.2746,1.3119,1.32,0.0,0.0,0.0,0.0,0.0,1.3827,0.0,0.0,0.0,0.0,0.0,0.0,0.0,1.6788,1.7038,1.7226,0.0,0.0,0.0,0.0,0.0,0.0,0.0,0.0,0.0,0.0,0.0,0.0,0.0,0.0,0.0,0.0,2.3537,2.4409,2.5229,2.6025,2.6533,2.6533,2.6533,2.6533,2.6533,2.6533,2.6533,2.6533,2.6533,2.6559,2.6634,2.7188,2.7729,2.8283,2.9122,2.9869,3.0508,3.2335,3.3101,3.3325,3.4854,3.5504,3.5519,3.5594,3.5968,3.6507,3.6641,3.7419,3.8407,0.8122,0.8132,0.8035,0.8035,0.8071,0.7907,0.0,0.0,0.0,0.0,0.0,0.0,0.0,0.0,0.0,0.0,0.9742,0.9759,1.0504,1.0715,1.1147,1.1784,1.2064,1.2218,1.2218,1.2218,1.2245,0.0,0.0,0.0,0.0,0.0,0.0,0.0,1.3033,1.3033,0.0,0.0,0.0,1.3199,1.2567,0.0,1.2526,1.2746,1.29,1.3119,1.3273,1.3346,1.3346,0.0,1.32,1.32,0.0,0.0,0.0,0.0,0.0,0.0,0.0,0.0,0.0,0.0,0.0,0.0,1.8075,1.8035,1.7794,0.0,0.0,0.0,0.0,0.0,0.0,0.0,0.0,0.0,0.0,0.0,0.0,0.0,0.0,0.0,0.0,2.3621,2.4409,2.5229,2.6025,2.6533,2.6533,2.6533,2.6533,2.6533,2.6533,2.6533,2.6533,2.6533,2.6747,2.713,2.7885,2.8515,2.9234,3.0637,3.1748,3.2648,3.3616,3.4394,3.5001,3.5359,3.5504,3.5549,3.6088,3.6372,3.6611,3.7644,3.8182,3.8467,0.879,0.8619,0.8231,0.7912,0.8107,0.8203,0.0,0.0,0.0,0.0,0.0,0.0,0.0,0.0,0.0,0.0,0.0,0.0,0.0,0.0,1.1566,1.2078,1.2225,1.2305,1.2305,1.2305,1.2378,1.2525,0.0,0.0,0.0,0.0,0.0,0.0,0.0,0.0,0.0,0.0,1.3286,1.3331,1.302,0.0,1.3265,1.3187,1.328,1.3414,1.3404,1.3419,1.3492,1.3273,1.3273,0.0,0.0,1.3748,1.42,0.0,1.5284,1.6504,0.0,0.0,0.0,1.7569,0.0,0.0,0.0,1.8514,1.8161,1.83,0.0,0.0,0.0,0.0,0.0,0.0,0.0,0.0,0.0,0.0,0.0,0.0,0.0,0.0,0.0,2.3694,2.4624,2.5804,2.6245,2.6533,2.6533,2.6533,2.6533,2.6533,2.6533,2.6533,2.6533,2.6533,2.6741,2.7293,2.805,2.874,2.9387,3.0686,3.1529,3.2028,3.3213,3.3988,3.4438,3.5148,3.5699,3.6028,3.6357,3.6671,3.706,3.8033,3.8601,3.896,0.9356,0.8986,0.8429,0.7912,0.8336,0.8623,0.0,0.0,0.0,0.0,0.0,0.0,0.0,0.0,0.0,0.0,0.0,0.0,0.0,0.0,0.0,1.2291,1.2305,1.2305,1.2305,1.2358,1.2505,1.2822,0.0,0.0,0.0,0.0,0.0,0.0,0.0,0.0,0.0,0.0,0.0,1.3534,0.0,1.3922,1.3803,1.3544,1.3606,1.3805,1.3688,1.3815,1.3888,1.3741,0.0,1.3888,1.3756,1.438,0.0,0.0,0.0,0.0,0.0,0.0,0.0,0.0,0.0,1.7658,0.0,0.0,0.0,1.8686,0.0,0.0,0.0,0.0,0.0,0.0,0.0,0.0,0.0,0.0,0.0,0.0,0.0,0.0,0.0,2.4059,2.5134,2.6383,2.6533,2.6533,2.6533,2.6533,2.6533,2.6533,2.6533,2.6533,2.6533,2.6533,2.6861,2.7515,2.816,2.8804,2.954,3.054,3.1048,3.1259,3.272,3.3506,3.3728,3.5134,3.6013,3.6492,3.6611,3.7045,3.7674,3.8347,3.8945,3.9424,0.9949,1.0049,1.0145,1.0079,1.0276,1.0374,0.0,0.0,0.0,0.0,0.0,0.0,0.0,0.0,0.0,0.0,0.0,0.0,1.2251,0.0,0.0,1.2305,1.2305,1.2305,1.2305,1.2559,1.2788,1.2822,0.0,0.0,0.0,0.0,0.0,0.0,1.3988,0.0,0.0,0.0,1.4226,0.0,1.5442,1.4852,0.0,1.3696,1.3846,1.4151,1.5088,1.5447,1.5454,0.0,1.5447,1.5302,0.0,1.4462,0.0,0.0,0.0,0.0,0.0,0.0,0.0,0.0,1.8811,0.0,0.0,0.0,1.9195,1.9219,0.0,0.0,0.0,0.0,0.0,0.0,0.0,0.0,0.0,0.0,0.0,0.0,0.0,0.0,0.0,0.0,2.6314,2.6465,2.6533,2.6533,2.6533,2.6533,2.6533,2.6533,2.6533,2.6533,2.6533,2.6533,2.7119,2.8286,2.8507,2.9327,3.0594,3.1489,3.2304,3.2932,3.3837,3.4558,3.5338,3.6066,3.6417,3.6537,3.709,3.7704,3.8362,3.905,3.9349,3.9424,1.038,1.0423,1.0362,1.0021,1.0317,1.0584,0.0,0.0,0.0,0.0,0.0,0.0,0.0,0.0,0.0,0.0,0.0,1.2305,0.0,0.0,0.0,0.0,0.0,0.0,1.2559,1.2859,1.31,1.3267,1.34,0.0,0.0,0.0,0.0,0.0,1.4243,0.0,1.4977,0.0,0.0,0.0,0.0,0.0,0.0,1.563,1.5902,1.588,1.6329,1.6472,1.6472,0.0,1.61,0.0,0.0,0.0,0.0,0.0,0.0,0.0,0.0,0.0,0.0,0.0,0.0,0.0,0.0,0.0,1.9961,0.0,0.0,0.0,0.0,0.0,0.0,0.0,0.0,0.0,0.0,0.0,0.0,0.0,0.0,0.0,0.0,0.0,0.0,0.0,0.0,2.6533,2.6533,2.6533,2.6533,2.6533,2.6533,2.6533,2.6533,2.6905,2.7531,2.8375,2.901,2.9822,3.0698,3.1663,3.229,3.2648,3.3822,3.4461,3.4883,3.606,3.6701,3.709,3.7719,3.8138,3.8467,3.917,3.9424,3.9424,1.0685,0.0,0.0,0.0,0.0,0.0,0.0,0.0,0.0,0.0,0.0,0.0,1.2425,1.2498,0.0,0.0,0.0,1.2552,0.0,0.0,1.2552,0.0,0.0,0.0,0.0,0.0,1.3434,1.3559,1.3728,0.0,0.0,0.0,0.0,0.0,0.0,1.4727,1.5289,0.0,0.0,1.5869,1.6108,1.6593,1.705,1.7443,1.725,1.7013,1.7482,1.7635,1.7635,1.7635,1.7175,0.0,1.7175,0.0,0.0,0.0,0.0,0.0,1.9618,0.0,0.0,0.0,0.0,0.0,0.0,0.0,0.0,0.0,0.0,0.0,0.0,0.0,0.0,0.0,0.0,0.0,0.0,0.0,0.0,0.0,0.0,0.0,0.0,0.0,0.0,0.0,0.0,0.0,2.6533,2.6533,2.6533,2.6533,2.6533,2.6533,2.6533,2.7202,2.7901,2.846,2.9387,3.0115,3.0849,3.1455,3.1869,3.2146,3.3478,3.421,3.4685,3.6164,3.7105,3.7749,3.8407,3.8676,3.8736,3.923,3.9424,3.9424,1.1087,1.0882,0.0,0.0,0.0,0.0,0.0,0.0,0.0,0.0,0.0,0.0,0.0,0.0,0.0,0.0,0.0,1.318,1.318,0.0,1.318,0.0,0.0,1.32,0.0,0.0,0.0,1.3559,0.0,0.0,0.0,0.0,0.0,0.0,0.0,1.4243,1.4475,1.4391,1.5144,1.6476,1.7261,1.878,2.0235,0.0,1.7309,1.6903,1.8612,0.0,0.0,1.9265,1.9186,0.0,0.0,0.0,0.0,0.0,0.0,0.0,0.0,0.0,0.0,2.0566,0.0,0.0,0.0,0.0,2.0644,0.0,0.0,0.0,0.0,0.0,0.0,0.0,0.0,0.0,0.0,0.0,0.0,0.0,0.0,0.0,0.0,0.0,0.0,0.0,0.0,0.0,2.6533,2.6533,2.6533,2.6533,2.6533,2.6533,2.6533,2.7202,2.7972,2.8703,2.9473,3.019,3.0986,3.0986,3.1394,3.2146,3.2932,3.4041,3.5354,3.6802,3.7764,3.8422,3.9125,3.9394,3.9394,3.9409,3.9424,3.9424,1.1111,0.0,0.0,0.0,0.0,0.0,0.0,1.1652,0.0,0.0,0.0,0.0,0.0,0.0,1.3213,0.0,0.0,1.3213,1.3213,1.3213,0.0,0.0,0.0,1.3494,0.0,0.0,0.0,0.0,0.0,0.0,0.0,0.0,0.0,0.0,0.0,1.5054,0.0,0.0,0.0,0.0,0.0,1.8718,1.8877,0.0,0.0,1.9353,1.9923,2.0167,0.0,2.0167,1.9775,1.9381,1.9599,1.8957,1.8318,1.9766,1.9775,0.0,0.0,0.0,2.0741,2.0644,0.0,0.0,0.0,0.0,0.0,0.0,0.0,0.0,0.0,0.0,0.0,0.0,0.0,0.0,0.0,0.0,0.0,0.0,0.0,0.0,0.0,0.0,0.0,0.0,0.0,0.0,0.0,2.6533,2.6533,2.6533,2.6533,2.6521,2.6658,2.778,2.8485,2.8905,3.0082,3.0716,3.0986,3.1542,3.216,3.2889,3.4057,3.515,3.6185,3.7545,3.8197,3.8467,3.9155,3.9424,3.9424,3.9424,3.9424,3.9424,1.1111,0.0,0.0,0.0,0.0,0.0,0.0,0.0,0.0,0.0,1.2863,0.0,1.3367,0.0,1.352,0.0,1.352,1.352,1.352,1.3837,0.0,1.3992,1.4416,0.0,0.0,0.0,0.0,0.0,0.0,1.4088,0.0,0.0,0.0,0.0,0.0,0.0,1.6772,0.0,1.7172,0.0,0.0,1.9274,0.0,0.0,1.9696,1.9766,0.0,2.0566,2.0566,2.0566,2.0245,1.9854,2.0411,1.9844,1.9125,2.0245,2.0167,1.9932,2.0489,2.0819,0.0,2.0809,2.1051,0.0,2.1061,0.0,0.0,0.0,0.0,0.0,0.0,0.0,0.0,0.0,0.0,0.0,0.0,2.2478,0.0,0.0,0.0,0.0,0.0,0.0,0.0,0.0,0.0,0.0,0.0,0.0,2.6533,2.6533,2.6521,2.6746,2.7018,2.8216,2.8995,2.9274,3.0455,3.0986,3.0986,3.1455,3.2209,3.3223,3.4384,3.5616,3.6867,3.7978,3.8542,3.8796,3.9245,3.9424,3.9424,3.9424,3.9424,3.9424,1.1129,1.1141,0.0,0.0,1.1148,0.0,0.0,0.0,1.2142,0.0,1.3076,1.3415,1.3585,1.3915,1.4088,1.4088,1.4088,0.0,1.4088,1.4908,0.0,0.0,1.6206,1.6617,1.6617,0.0,0.0,0.0,0.0,0.0,0.0,0.0,0.0,0.0,1.4088,0.0,1.6034,1.6034,1.7342,1.946,2.0245,2.0566,2.0566,2.0566,1.952,1.8318,2.0001,2.0566,2.0566,2.0566,2.0566,2.0566,2.0566,2.0566,2.0566,2.0566,2.0644,2.0654,2.0829,2.0906,2.0984,2.1128,0.0,0.0,0.0,0.0,2.1282,0.0,0.0,0.0,0.0,0.0,0.0,0.0,0.0,0.0,0.0,0.0,0.0,0.0,0.0,0.0,0.0,0.0,0.0,0.0,0.0,0.0,0.0,0.0,2.6533,2.6533,2.6658,2.698,2.7608,2.8537,2.9248,2.9818,3.0624,3.0986,3.0986,3.1061,3.1801,3.3233,3.3966,3.5453,3.7434,3.8139,3.8826,3.9424,3.9424,3.9424,3.9424,3.9424,3.9424,3.9424,1.1425,1.1582,1.1715,0.0,1.1715,1.1739,0.0,0.0,0.0,0.0,1.3457,1.3891,1.3975,1.4041,1.4088,1.4088,1.4088,0.0,0.0,0.0,0.0,1.4419,1.5228,1.5718,1.5718,1.5477,0.0,1.5394,0.0,0.0,1.5068,0.0,0.0,0.0,0.0,0.0,1.6927,1.6927,1.8221,2.0333,2.0489,2.0245,0.0,0.0,1.9932,1.9134,2.0245,2.0566,2.0566,2.0566,2.0566,2.0566,2.0566,2.0566,2.0566,2.0566,2.0731,2.0819,2.0906,2.1128,2.1359,2.1205,2.1436,2.1578,0.0,0.0,0.0,0.0,0.0,0.0,0.0,0.0,0.0,0.0,0.0,0.0,0.0,0.0,0.0,0.0,0.0,0.0,0.0,0.0,0.0,0.0,0.0,0.0,0.0,0.0,0.0,2.6533,2.6658,2.7062,2.7844,2.8608,2.932,3.0064,3.0712,3.0986,3.0986,3.1603,3.2559,3.3952,3.5211,3.6675,3.8139,3.8874,3.926,3.9424,3.9424,3.9424,3.9424,3.9424,3.9424,3.9424,1.1703,0.0,0.0,1.2089,0.0,0.0,1.2276,0.0,0.0,1.315,1.3639,0.0,1.3913,1.4004,1.4135,1.4262,1.4162,0.0,0.0,0.0,0.0,1.5235,1.6453,1.7098,1.7098,1.6698,0.0,1.5966,0.0,0.0,1.4824,0.0,0.0,0.0,0.0,1.5884,0.0,1.8461,1.9274,2.0089,2.0489,0.0,0.0,2.0701,2.0659,2.0491,2.0983,2.1025,2.0889,2.1084,2.1143,2.1143,2.1143,2.1143,2.1222,2.1302,2.1382,2.1481,2.1719,2.1805,2.1798,2.1808,2.1809,2.1807,2.1655,2.1731,2.1807,0.0,0.0,0.0,0.0,0.0,0.0,0.0,0.0,0.0,0.0,0.0,0.0,0.0,0.0,0.0,0.0,0.0,0.0,0.0,0.0,0.0,0.0,0.0,0.0,2.6589,2.6726,2.7327,2.8344,2.8879,2.9608,3.0516,3.083,3.0986,3.0986,3.166,3.2954,3.4721,3.5723,3.7186,3.8871,3.926,3.9424,3.9424,3.9424,3.9424,3.9424,3.9424,3.9424,3.9424,1.2017,0.0,0.0,0.0,0.0,0.0,0.0,1.2787,0.0,1.3366,0.0,1.3789,1.3789,1.409,1.4302,1.4556,0.0,1.4309,1.4563,1.5918,1.6668,1.6668,1.8262,1.9225,1.9225,1.8434,0.0,0.0,0.0,0.0,0.0,0.0,0.0,0.0,0.0,0.0,0.0,2.0079,2.0205,0.0,2.0332,2.0918,2.1318,2.1318,2.1553,2.1894,2.1953,2.1689,2.1377,2.1758,2.1885,2.1885,2.1885,2.1885,2.1967,2.2122,2.2205,2.2369,2.2788,2.2664,2.2357,2.2584,2.2283,2.1983,2.1983,2.1942,2.189,2.189,2.1849,2.1807,0.0,0.0,0.0,0.0,0.0,0.0,0.0,0.0,0.0,0.0,0.0,0.0,0.0,0.0,0.0,0.0,0.0,0.0,0.0,0.0,0.0,2.6714,2.7007,0.0,2.9022,0.0,2.9928,3.0986,3.0986,3.1026,3.1117,3.183,3.3287,3.5356,3.607,3.7504,3.9424,3.9424,3.9424,3.9424,3.9424,3.9424,3.9424,3.9424,3.9424,3.9424,0.0,0.0,0.0,0.0,0.0,1.3124,1.3243,1.3406,1.351,1.3646,1.4031,1.4356,1.4356,1.4663,1.483,1.4883,1.4836,0.0,0.0,0.0,0.0,1.6424,1.7877,1.8733,1.8733,1.8241,1.7917,0.0,0.0,0.0,0.0,0.0,0.0,0.0,0.0,0.0,1.9036,2.0079,0.0,2.0873,2.1033,2.1377,2.1777,2.1777,2.1816,2.1934,2.2275,2.2129,2.1787,2.1865,2.1885,2.1885,2.1885,2.1885,2.1967,2.2122,2.2287,2.2523,2.2788,2.297,2.307,2.307,2.3008,2.2946,2.2946,2.2646,2.2377,2.2377,2.2066,2.1807,2.1807,0.0,0.0,0.0,0.0,0.0,0.0,0.0,0.0,0.0,0.0,0.0,0.0,0.0,0.0,0.0,0.0,0.0,0.0,0.0,0.0,0.0,2.7528,0.0,0.0,0.0,3.032,3.0986,3.0986,3.1235,3.1692,3.3151,3.4538,3.6005,3.7375,3.8552,3.9424,3.9424,3.9424,3.9424,3.9424,3.9424,3.9424,3.9424,3.9424,3.9424,0.0,0.0,0.0,0.0,0.0,0.0,0.0,1.4089,0.0,1.3978,1.4294,1.4566,1.4566,1.4787,1.5023,1.5177,1.505,1.503,1.5177,1.5913,1.661,1.7041,1.8198,0.0,1.9552,1.9365,1.8733,1.7623,0.0,0.0,0.0,0.0,0.0,0.0,0.0,1.9102,0.0,0.0,0.0,2.0971,2.1399,2.1826,2.2207,2.2207,2.2344,2.2568,2.2764,2.2705,2.2539,2.2539,2.2539,2.2539,2.2709,2.2719,2.2804,2.3133,2.3301,2.3469,2.3637,2.3639,2.3546,2.3546,2.336,2.3184,2.3184,2.3018,2.2853,2.2853,2.248,2.2087,2.1849,2.1807,0.0,0.0,0.0,0.0,0.0,0.0,0.0,0.0,0.0,0.0,0.0,0.0,0.0,0.0,0.0,0.0,0.0,0.0,0.0,0.0,0.0,0.0,0.0,0.0,0.0,3.0986,3.0986,3.1287,3.1849,3.2943,3.4389,3.6189,3.7164,3.8326,3.9424,3.9424,3.9424,3.9424,3.9424,3.9424,3.9424,3.9424,3.9424,3.9424,0.0,1.2832,0.0,0.0,1.3623,0.0,1.4258,1.4774,1.495,1.4386,1.4596,1.4773,1.4773,1.5073,1.5331,1.5558,1.5431,1.5404,1.5571,1.6442,1.7249,1.7889,1.8953,1.9874,2.064,2.0558,1.9667,0.0,0.0,0.0,0.0,0.0,0.0,0.0,0.0,0.0,0.0,0.0,2.1582,2.1053,2.1752,2.2275,2.2646,2.2646,2.2852,2.3135,2.3135,2.3135,2.3154,2.3242,2.3213,2.3144,2.3416,2.3503,2.359,2.4034,2.4206,2.4206,2.4464,2.4291,2.4022,2.4022,2.3743,2.3474,2.3474,2.3401,2.3329,2.3329,2.2967,2.2501,2.2035,2.2095,0.0,0.0,0.0,0.0,0.0,0.0,0.0,0.0,0.0,0.0,0.0,0.0,0.0,0.0,0.0,0.0,0.0,0.0,0.0,0.0,0.0,2.8716,2.9457,0.0,3.0542,0.0,3.1104,3.1533,3.2251,3.3052,3.4562,3.6552,3.7158,3.8144,3.9424,3.9424,3.9424,3.9424,3.9424,3.9424,3.9424,3.9424,3.9514,3.9634,0.0,0.0,0.0,0.0,0.0,0.0,1.4552,1.4982,1.5251,1.4957,1.5177,1.5357,1.5357,1.5832,1.6159,1.6186,1.6406,1.644,1.6206,1.7955,1.8832,1.8708,2.0086,2.0966,2.1053,2.0704,2.0409,0.0,0.0,0.0,0.0,0.0,0.0,0.0,0.0,0.0,0.0,2.1865,2.2016,2.2366,2.2451,2.2705,2.3076,2.3076,2.3105,2.3135,2.3135,2.3135,2.3193,2.3594,2.3467,2.3144,2.3416,2.3503,2.359,2.4034,2.4206,2.4206,2.4464,2.4509,2.4478,2.4478,2.4447,2.4416,2.4416,2.4105,2.3815,2.3815,2.3443,2.2977,2.2511,2.3019,2.3177,0.0,0.0,0.0,0.0,0.0,0.0,0.0,0.0,0.0,0.0,0.0,0.0,0.0,0.0,0.0,0.0,0.0,0.0,2.7963,0.0,2.947,3.0045,3.062,3.0934,3.0999,3.1509,3.2418,3.372,3.5176,3.658,3.804,3.8855,3.9265,3.9424,3.9424,3.9424,3.9424,3.9424,3.9424,3.9424,3.9424,3.9798,4.0307,0.0,0.0,0.0,0.0,0.0,0.0,0.0,1.5637,1.5945,1.5999,1.5959,1.5985,1.6166,1.6393,1.6533,1.6533,1.664,1.6953,1.7513,1.8274,1.9278,2.037,2.0758,2.1203,2.1841,2.1456,2.0944,0.0,0.0,0.0,0.0,0.0,0.0,0.0,0.0,2.2162,2.2275,2.2529,2.2734,2.2891,2.2891,2.3144,2.3525,2.3525,2.3691,2.3906,2.3906,2.3906,2.3935,2.4111,2.3977,2.3851,2.4386,2.4655,2.4834,2.5081,2.5259,2.5259,2.5347,2.515,2.4954,2.4954,2.4747,2.454,2.454,2.4405,2.4281,2.4281,2.3919,2.3463,2.2998,2.3213,2.3281,0.0,0.0,0.0,0.0,0.0,0.0,0.0,0.0,0.0,0.0,0.0,0.0,0.0,0.0,0.0,0.0,0.0,0.0,2.811,0.0,2.9902,3.0137,3.0699,3.1156,3.1496,3.1731,3.2463,3.3754,3.4835,3.636,3.8277,3.9046,3.9424,3.9424,3.9424,3.9424,3.9424,3.9424,3.9664,4.0008,4.0008,4.0427,4.1055,1.4411,0.0,1.465,0.0,1.5266,1.5563,1.6039,1.6266,1.6506,1.68,1.666,1.6573,1.6693,1.678,1.6834,1.6834,1.6914,1.7225,1.8039,1.8323,1.9261,2.09,2.1036,0.0,2.2418,2.2318,2.1788,2.0917,2.0829,0.0,0.0,0.0,0.0,0.0,2.2473,2.2764,2.291,2.3203,2.3398,2.3516,2.3516,2.3701,2.3975,2.3975,2.416,2.4414,2.4414,2.4414,2.4434,2.456,2.4598,2.4756,2.5118,2.5371,2.5553,2.5795,2.5875,2.5875,2.5875,2.5658,2.542,2.542,2.5171,2.4933,2.4933,2.483,2.4705,2.4571,2.4291,2.4013,2.3861,2.3928,2.4169,2.4282,0.0,0.0,0.0,0.0,0.0,0.0,0.0,2.6533,2.6533,0.0,0.0,0.0,0.0,0.0,0.0,0.0,0.0,0.0,0.0,0.0,0.0,3.0947,3.1444,3.1759,3.2189,3.2856,3.3966,3.52,3.6835,3.8575,3.9119,3.9424,3.9424,3.9424,3.9424,3.9439,3.9634,3.9993,4.0427,4.0621,4.11,4.1728,1.4591,1.5008,1.5484,1.5765,1.6066,1.6359,1.6653,1.67,1.6807,1.7108,1.7141,1.7027,1.674,1.6967,1.7148,1.7148,1.7408,1.7448,1.7264,1.8048,1.9,0.0,0.0,2.1778,2.2857,2.3102,2.3084,2.2684,0.0,0.0,2.1826,0.0,2.239,2.2784,2.296,2.3369,2.3769,2.3779,2.4023,2.4394,2.4394,2.4404,2.4414,2.4414,2.4414,2.4414,2.4414,2.4414,2.4482,2.4912,2.5436,2.5742,2.5319,2.5178,2.527,2.5795,2.5875,2.5875,2.5875,2.5875,2.5875,2.5875,2.5865,2.5854,2.5854,2.5533,2.5099,2.4633,2.454,2.4639,2.5126,2.5755,2.6142,2.5804,0.0,0.0,0.0,0.0,0.0,0.0,2.6533,2.6533,2.6533,0.0,0.0,0.0,0.0,0.0,0.0,0.0,0.0,3.0012,3.0124,0.0,3.096,3.1535,3.1759,3.1772,3.3025,3.402,3.4879,3.7116,3.8575,3.9424,3.9424,3.9424,3.9424,3.9424,3.9424,3.9484,4.0127,4.0382,4.0472,4.113,4.1788,4.2434,1.5757,1.5989,1.6313,1.6413,1.6506,1.6667,1.6967,1.7007,1.7114,1.7402,1.7442,1.7408,1.7315,1.7388,1.7442,0.0,1.7528,1.8164,0.0,2.0005,2.0966,2.2751,2.2806,2.2961,2.3258,2.3079,2.3159,2.3381,0.0,0.0,0.0,2.3457,2.3625,2.3923,2.3923,2.4092,2.4219,2.4219,2.4297,2.4414,2.4414,2.459,2.4863,2.4863,2.5049,2.5322,2.5322,2.5322,2.5332,2.5651,2.5892,2.6064,2.6324,2.6462,2.664,2.6817,2.6817,2.6817,2.6817,2.6589,2.6351,2.6351,2.6113,2.5875,2.5875,2.5771,2.5544,2.5099,2.5016,2.4958,2.4735,2.5362,2.601,2.6086,2.7085,0.0,0.0,0.0,0.0,0.0,0.0,2.7582,0.0,2.7784,0.0,0.0,0.0,0.0,0.0,0.0,0.0,0.0,3.0516,0.0,3.1561,3.1744,3.2241,3.3038,3.3417,3.4553,3.6225,3.6965,3.8084,3.9424,3.9424,3.9424,3.9424,3.9424,3.9694,4.0113,4.0322,4.095,4.1758,4.1968,4.2462,4.3015,1.6433,1.6587,1.674,1.6854,1.6874,1.6974,1.7268,1.7315,1.7375,1.7555,1.7689,1.7756,1.7756,1.7856,0.0,1.7602,1.7582,1.8408,2.0158,2.0261,2.1285,2.3438,2.3305,2.3269,2.3776,0.0,0.0,2.3918,2.3748,2.3858,2.4239,2.4239,2.4239,2.4414,2.4414,2.4502,2.4658,2.4658,2.4756,2.4912,2.4912,2.5078,2.5322,2.5322,2.5488,2.5742,2.5742,2.5742,2.5732,2.6004,2.6197,2.6304,2.6794,2.7081,2.7262,2.7262,2.7262,2.7262,2.7262,2.7044,2.6827,2.6827,2.661,2.6351,2.6175,2.6134,2.61,2.5999,2.5992,2.6009,2.6286,2.6763,2.7254,2.7569,2.8047,2.8405,2.8412,0.0,0.0,0.0,0.0,0.0,0.0,2.8315,0.0,0.0,0.0,0.0,0.0,0.0,0.0,3.0451,3.1013,0.0,3.1759,3.228,3.2868,3.36,3.4109,3.5236,3.688,3.7218,3.8084,3.9424,3.9424,3.9559,3.9783,3.9783,4.0172,4.0786,4.104,4.1639,4.2387,4.2626,4.2985,4.3329,1.6734,1.6754,0.0,0.0,1.7194,0.0,1.7575,1.7635,1.7642,1.7642,1.7896,1.8076,1.8076,1.8323,1.8263,1.7802,0.0,0.0,0.0,1.9294,2.0331,2.2502,2.2679,2.3173,2.4189,2.4655,2.4752,2.4364,2.4426,2.4512,2.4512,2.4512,2.4512,2.4512,2.4512,2.4736,2.5117,2.5117,2.5361,2.5742,2.5742,2.5742,2.5742,2.5742,2.5742,2.5742,2.5742,2.5732,2.5732,2.6004,2.6304,2.6592,2.6794,2.7081,2.7262,2.7262,2.7262,2.7262,2.7262,2.7262,2.7262,2.7262,2.7262,2.7148,2.6713,2.662,2.6752,2.7158,2.7315,2.7687,2.8976,2.9268,2.9423,2.9683,2.9817,2.9603,2.9063,0.0,0.0,0.0,0.0,0.0,0.0,2.8588,2.9023,0.0,0.0,0.0,0.0,0.0,3.0503,3.1026,3.1561,3.1798,3.1876,3.3051,3.3613,3.3652,3.4942,3.6042,3.688,3.7706,3.8604,3.9412,3.9412,3.9858,4.0472,4.0472,4.0846,4.1504,4.2132,4.2387,4.2506,4.3105,4.3329,4.3329,0.0,0.0,1.7395,1.7468,1.7675,1.7856,1.7923,1.813,1.8277,1.8277,1.8343,1.8384,1.8384,1.845,1.8755,1.9571,1.881,1.8694,1.9859,2.0704,2.1876,2.3269,2.395,2.4408,2.4894,2.4687,2.4786,2.5091,2.5276,2.543,2.543,2.543,2.543,2.543,2.543,2.5478,2.5586,2.5586,2.5644,2.5742,2.5742,2.5742,2.5742,2.5742,2.5742,2.5742,2.5742,2.582,2.6004,2.6304,2.6602,2.689,2.7081,2.7262,2.7262,2.7262,2.7262,2.7262,2.7262,2.7262,2.7262,2.7262,2.7262,2.7231,2.7117,2.7096,2.7056,2.6865,2.7388,2.7854,2.7808,2.8677,2.9289,2.9423,2.9638,2.9741,2.9616,2.9591,0.0,0.0,2.9402,2.9466,2.9606,2.982,3.0022,0.0,0.0,0.0,0.0,3.142,3.142,3.164,3.1694,3.2267,3.3169,3.3456,3.3796,3.4201,3.4581,3.5196,3.6042,3.683,3.7949,3.9203,3.9847,4.0531,4.1145,4.1145,4.1534,4.2147,4.2297,4.2671,4.312,4.3284,4.3329,4.3329,1.7515,1.7675,1.7836,1.7976,1.8136,1.825,1.825,1.8384,1.849,1.849,1.8604,1.8691,1.8691,1.8811,1.9224,1.9886,1.9514,1.999,2.1695,2.2338,2.3199,2.4395,2.4841,2.5144,2.5433,2.531,2.55,2.6109,2.6024,2.6035,2.6035,2.583,2.5742,2.5742,2.5742,2.5742,2.5742,2.5742,2.5742,2.5742,2.5742,2.5742,2.5742,2.5742,2.5742,2.5742,2.5742,2.5917,2.61,2.64,2.6699,2.6996,2.7262,2.7262,2.7262,2.7262,2.7262,2.7262,2.7262,2.7262,2.7262,2.7262,2.7262,2.7262,2.7262,2.762,2.8006,2.8191,2.8947,2.9607,2.9624,3.0158,3.0569,3.0311,3.0375,3.0444,3.0206,3.0168,0.0,2.9829,2.9792,2.9869,2.9934,3.0381,3.0675,3.0753,0.0,0.0,3.2032,3.215,3.2228,3.2228,3.2502,3.2947,3.3587,3.3835,3.411,3.4397,3.5182,3.5803,3.6281,3.7825,3.8935,3.9755,4.0547,4.122,4.1833,4.1833,4.2207,4.2806,4.2806,4.3015,4.3329,4.3329,4.3329,4.3329,1.8036,1.8103,1.8196,1.8444,1.8524,1.8557,1.8557,1.8591,1.8624,1.8624,1.8838,1.8991,1.8991,1.9219,1.9482,1.9713,2.0124,2.1223,2.293,2.326,2.3802,2.5002,2.5167,2.5558,2.5984,2.621,2.649,2.7012,2.666,2.6484,2.6475,2.6103,2.5928,2.5928,2.5928,2.5928,2.5928,2.5928,2.5928,2.5928,2.5928,2.5928,2.5928,2.5928,2.5928,2.5928,2.5928,2.6114,2.6396,2.6697,2.6891,2.7191,2.7373,2.7469,2.7469,2.7469,2.7469,2.7438,2.7303,2.7262,2.7262,2.7262,2.7262,2.7262,2.7262,2.7904,2.8724,2.9624,3.0633,3.148,3.1809,3.2084,3.2051,3.1587,3.1449,3.1235,3.0796,0.0,3.0557,3.0093,3.003,3.003,3.0121,3.0694,3.1185,3.1342,3.2029,3.2579,3.2816,3.2829,3.2868,3.2947,3.3365,3.3626,3.3705,3.4162,3.4397,3.4397,3.5965,3.6642,3.6735,3.9124,4.0203,4.0321,4.1204,4.1908,4.2506,4.2506,4.2836,4.3329,4.3329,4.3329,4.3329,4.3329,4.3329,4.3329,1.8404,1.8424,1.8437,1.8484,1.8691,1.8858,1.8858,1.9072,1.9232,1.9232,1.9272,1.9299,1.9299,1.9339,1.9822,2.0838,2.0972,2.08,2.013,2.102,2.224,2.3673,2.4373,2.5405,2.6903,2.6879,2.691,2.7012,2.6953,2.6914,2.6914,2.6846,2.6816,2.6816,2.6816,2.6816,2.6816,2.6816,2.6816,2.6816,2.6816,2.6816,2.6816,2.6816,2.6816,2.6816,2.6999,2.7302,2.7603,2.7893,2.8102,2.8311,2.8411,2.84,2.84,2.84,2.84,2.8235,2.7469,2.7262,2.7262,2.7262,2.7262,2.7262,2.7262,2.7441,2.7536,2.7715,2.9176,3.0418,3.0516,3.1466,3.219,3.2102,3.17,3.1361,3.1286,0.0,3.1235,3.1148,3.1148,3.1228,3.1402,3.1733,3.2024,3.2171,3.2488,3.2921,3.343,3.3443,3.3666,3.4123,3.3783,3.3809,3.4267,3.4358,3.4397,3.4397,3.5147,3.5553,3.5663,3.8017,3.9311,3.9904,4.1573,4.2581,4.318,4.318,4.324,4.3329,4.3329,4.3329,4.3329,4.3329,4.3329,4.3329,1.8691,1.8724,1.8771,1.8938,1.9072,1.9165,1.9165,1.9279,1.9366,1.9366,1.9366,1.9366,1.9366,1.9366,1.9591,2.0155,2.0838,2.0952,2.0385,2.2078,2.3424,2.4086,2.5248,2.6467,2.7554,2.7698,2.7705,2.7705,2.748,2.7363,2.7363,2.7129,2.7012,2.7012,2.7012,2.7012,2.7012,2.7012,2.7012,2.7012,2.7012,2.7012,2.7012,2.7206,2.7206,2.7307,2.751,2.7814,2.7995,2.8196,2.8397,2.8618,2.8618,2.8618,2.8618,2.8618,2.8618,2.8524,2.81,2.7986,2.7935,2.7676,2.7614,2.7552,2.7314,2.8081,2.8899,2.8899,3.0441,3.1801,3.1801,3.2228,3.2679,3.2679,3.2466,0.0,0.0,3.1838,3.1725,3.1424,3.1386,3.148,3.1562,3.2003,3.2439,3.2671,3.32,3.3649,3.4005,3.4018,3.4136,3.4384,3.4162,3.4149,3.4397,3.4724,3.4881,3.4881,3.6434,3.722,3.7234,3.9639,4.0902,4.1208,4.2387,4.3045,4.3329,4.3329,4.3329,4.3329,4.3329,4.3329,4.3329,4.3329,4.3329,4.3329,1.8985,1.9025,1.9098,1.9325,1.9366,1.9366,1.9366,1.9366,1.9366,1.9366,1.9366,1.9366,1.9366,1.9366,1.9366,1.9366,2.027,2.0723,2.0723,2.2757,2.4214,2.488,2.6427,2.7422,2.796,2.8184,2.8291,2.8291,2.7969,2.7812,2.7803,2.7471,2.7314,2.7314,2.7314,2.7314,2.7314,2.7314,2.7314,2.7314,2.7314,2.7314,2.7314,2.7604,2.7706,2.7706,2.8136,2.8432,2.8513,2.8614,2.8726,2.8938,2.8938,2.8938,2.8938,2.8938,2.8938,2.8887,2.8669,2.8618,2.8524,2.8173,2.8275,2.8334,2.7893,2.9157,3.0308,3.0193,3.1536,3.2711,3.2711,3.2896,3.3081,3.3081,0.0,0.0,0.0,3.2416,3.2252,3.1838,3.1775,3.1775,3.1775,3.2415,3.2918,3.3072,3.3733,3.4243,3.4397,3.4397,3.4463,3.4607,3.4607,3.4607,3.4607,3.5195,3.5482,3.5495,3.7463,3.8408,3.8422,4.0865,4.1986,4.2016,4.2947,4.3329,4.3329,4.3329,4.3329,4.3329,4.3329,4.3329,4.3329,4.3329,4.3329,4.3329,1.9332,1.9332,1.9339,1.9366,1.9366,1.9366,1.9366,1.9366,1.9366,1.9366,1.9366,1.9366,1.9366,1.9366,1.9366,1.9366,1.9482,1.9482,1.9482,2.0723,2.2515,2.5075,2.6853,2.796,2.8291,2.8291,2.8291,2.8291,2.8262,2.8252,2.8252,2.8213,2.8203,2.8203,2.8203,2.8203,2.8203,2.8203,2.8203,2.8203,2.8203,2.8203,2.8193,2.8522,2.8638,2.8628,2.9252,2.9452,2.9556,2.9776,2.9891,2.9891,2.9891,2.9891,2.9891,2.9891,2.9891,2.9704,2.8845,2.8618,2.8607,2.8566,2.9317,2.9861,2.9404,3.0135,3.0825,3.0262,3.0991,3.1713,3.1713,3.2438,3.3081,3.3081,0.0,0.0,3.3018,3.3018,3.3006,3.2955,3.2955,3.2955,3.2955,3.3395,3.3661,3.3661,3.4121,3.4397,3.4397,3.4397,3.4659,3.5221,3.5234,3.5234,3.5234,3.577,3.6044,3.6057,3.6823,3.7111,3.72,3.9654,4.0703,4.0873,4.2548,4.3329,4.3329,4.3329,4.3329,4.3329,4.3329,4.3329,4.3329,4.3329,4.3329,4.3329,1.9366,1.9366,1.9366,1.9366,1.9366,1.9366,1.9366,1.9366,1.9366,1.9366,1.9366,1.9366,1.9366,1.9366,1.9366,1.9366,2.0046,2.0838,2.1623,2.2958,2.4181,2.5406,2.707,2.8067,2.8291,2.8291,2.8291,2.8291,2.8291,2.8291,2.8291,2.8291,2.8291,2.8291,2.8291,2.8291,2.8291,2.8291,2.8291,2.8291,2.8291,2.8291,2.8398,2.8824,2.893,2.9036,2.9669,2.9889,2.9879,2.9994,2.9994,2.9994,2.9994,2.9994,2.9994,2.9994,2.9994,2.9922,2.957,2.9466,2.9599,2.9881,3.0283,3.0646,3.0847,3.1669,3.2272,3.1636,3.2374,3.2933,3.2587,3.281,3.3081,3.3081,0.0,3.3081,3.3081,3.3081,3.3081,3.3081,3.3081,3.3081,3.3081,3.3484,3.3713,3.3713,3.4147,3.4554,3.4933,3.5273,3.5561,3.5796,3.6162,3.6175,3.5796,3.6371,3.6658,3.6671,3.7834,3.8634,3.9234,4.076,4.1796,4.2304,4.2996,4.3329,4.3329,4.3329,4.3329,4.3329,4.3329,4.3329,4.3329,4.3329,4.3329,4.3329,1.9366,1.9366,1.9366,1.9366,1.9366,1.9366,1.9366,1.9366,1.9366,1.9366,1.9366,1.9366,1.9366,1.9366,1.9366,1.9366,2.05,2.1509,2.2418,2.43,2.5626,2.6291,2.7295,2.8067,2.8291,2.8291,2.8291,2.8291,2.8291,2.8291,2.8291,2.8291,2.8291,2.8291,2.8291,2.8291,2.8291,2.8291,2.8291,2.8291,2.8291,2.8398,2.8514,2.892,2.9132,2.9343,2.9784,2.9994,2.9994,2.9994,2.9994,2.9994,2.9994,2.9994,2.9994,2.9994,2.9994,2.9994,2.9994,2.9994,3.012,3.0483,3.1083,3.1649,3.1933,3.3066,3.3863,3.321,3.3677,3.4035,3.3658,3.3458,3.3332,3.3332,3.3194,3.3081,3.3081,3.3081,3.3081,3.3081,3.3081,3.3167,3.3154,3.3636,3.3995,3.4067,3.4575,3.5116,3.5534,3.6083,3.6384,3.6384,3.6972,3.709,3.6671,3.7077,3.7286,3.7286,3.8604,3.9549,4.0159,4.1463,4.2333,4.2915,4.317,4.3329,4.3329,4.3329,4.3329,4.3329,4.3329,4.3329,4.3329,4.3329,4.3329,4.3329,1.9366,1.9366,1.9366,1.9366,1.9366,1.9366,1.9366,1.9366,1.9366,1.9366,1.9366,1.9366,1.9366,1.9366,1.9366,1.9366,2.05,2.1174,2.1288,2.3958,2.6291,2.7853,2.7853,2.8067,2.8291,2.8291,2.8291,2.8291,2.8291,2.8291,2.8291,2.8291,2.8291,2.8291,2.8291,2.8291,2.8291,2.8291,2.8291,2.8291,2.8291,2.8514,2.8737,2.9036,2.9343,2.9659,2.9889,2.9994,2.9994,2.9994,2.9994,2.9994,2.9994,2.9994,2.9994,2.9994,2.9994,2.9994,2.9994,2.9994,2.9994,2.9994,3.1597,3.3074,3.2569,3.4006,3.5391,3.4851,3.4726,3.4726,3.4726,3.4274,3.3909,3.3909,3.3445,3.3093,3.3093,3.3093,3.3093,3.3093,3.3093,3.3167,3.3411,3.4104,3.4684,3.4857,3.5622,3.6109,3.6109,3.6684,3.7011,3.7011,3.7586,3.79,3.79,3.79,3.79,3.79,3.8805,3.921,3.9285,4.1113,4.199,4.2073,4.2915,4.3329,4.3329,4.3329,4.3329,4.3329,4.3329,4.3329,4.3329,4.3329,4.3329,4.3329,1.9366,1.9366,1.9366,1.9366,1.9366,1.9366,1.9366,1.9366,1.9366,1.9366,1.9366,1.9366,1.9366,2.0162,2.0608,2.0608,2.1949,2.3279,2.4608,2.6282,2.7511,2.8174,2.8184,2.8184,2.8291,2.8291,2.8291,2.8291,2.8291,2.8291,2.8291,2.8291,2.8291,2.8291,2.8291,2.8291,2.8291,2.8291,2.8291,2.8291,2.8291,2.8514,2.8737,2.9036,2.9343,2.9659,2.9889,2.9994,2.9994,2.9994,2.9994,2.9994,2.9994,2.9994,2.9994,2.9994,2.9994,2.9994,2.9994,2.9994,3.0401,3.1902,3.27,3.3552,3.4872,3.5717,3.5956,3.5416,3.5303,3.519,3.4801,3.4587,3.4474,3.4474,3.4336,3.4223,3.4223,3.4223,3.4223,3.4223,3.4223,3.4236,3.4312,3.4819,3.5186,3.5274,3.6145,3.6737,3.6737,3.7312,3.7639,3.7639,3.7808,3.79,3.79,3.79,3.79,3.79,3.8148,3.8639,3.9197,4.0418,4.138,4.2073,4.2915,4.3329,4.3329,4.3329,4.3329,4.3329,4.3329,4.3329,4.3329,4.3329,4.3329,4.3329,1.9366,1.9366,1.9366,1.9366,1.9366,1.9366,1.9366,1.9366,1.9591,2.0046,2.0162,2.027,2.0723,2.1517,2.1964,2.1964,2.3287,2.4829,2.6717,2.7511,2.8067,2.8291,2.8291,2.8291,2.8291,2.8291,2.8291,2.8291,2.8291,2.8291,2.8291,2.8291,2.8291,2.8291,2.8291,2.8291,2.8291,2.8291,2.8291,2.8291,2.8291,2.8504,2.8834,2.9036,2.9343,2.9774,2.9994,2.9994,2.9994,2.9994,2.9994,2.9994,2.9994,2.9994,2.9994,2.9994,2.9994,2.9994,2.9994,3.0297,3.1094,3.2801,3.3201,3.3697,3.5367,3.6061,3.627,3.5931,3.5868,3.5768,3.5429,3.5203,3.5052,3.5052,3.4864,3.4726,3.4726,3.4726,3.4726,3.4726,3.4726,3.4726,3.4816,3.5378,3.5955,3.638,3.6988,3.7364,3.7364,3.7704,3.79,3.79,3.79,3.79,3.79,3.79,3.79,3.79,3.8666,3.9237,3.9812,4.1099,4.1976,4.2578,4.309,4.3329,4.3329,4.3329,4.3329,4.3329,4.3329,4.3329,4.3329,4.3329,4.3329,4.3329,1.9366,1.9366,1.9366,1.9366,1.9366,1.9366,1.9366,1.9482,1.9931,2.106,2.1288,2.1737,2.2862,2.3087,2.3199,2.3199,2.4633,2.6182,2.7843,2.796,2.8067,2.8291,2.8291,2.8291,2.8291,2.8291,2.8291,2.8291,2.8291,2.8291,2.8291,2.8291,2.8291,2.8291,2.8291,2.8291,2.8291,2.8291,2.8291,2.8291,2.8291,2.8611,2.9132,2.9132,2.9448,2.9994,2.9994,2.9994,2.9994,2.9994,2.9994,2.9994,2.9994,2.9994,2.9994,2.9994,2.9994,2.9994,3.0088,3.0888,3.188,3.3089,3.33,3.3598,3.4678,3.5667,3.6358,3.6358,3.6358,3.6358,3.6358,3.5956,3.5617,3.5617,3.5203,3.4864,3.4864,3.4864,3.4864,3.4864,3.4864,3.4967,3.525,3.5967,3.6845,3.7861,3.79,3.79,3.79,3.79,3.79,3.79,3.79,3.79,3.79,3.79,3.79,3.79,3.959,4.0346,4.0432,4.2222,4.3076,4.3076,4.325,4.3329,4.3329,4.3329,4.3329,4.3329,4.3329,4.3329,4.3329,4.3329,4.3329,4.3329,1.9366,1.9366,1.9366,1.9366,1.9366,1.9366,1.9366,2.0155,2.0952,2.1181,2.2078,2.2741,2.3279,2.4181,2.4855,2.5075,2.6409,2.752,2.8184,2.8184,2.8291,2.8291,2.8291,2.8291,2.8291,2.8291,2.8291,2.8291,2.8291,2.8291,2.8291,2.8291,2.8291,2.8291,2.8291,2.8291,2.8291,2.8291,2.8291,2.8291,2.8291,2.8611,2.9132,2.9132,2.9448,2.9994,2.9994,2.9994,2.9994,2.9994,2.9994,2.9994,2.9994,2.9994,2.9994,2.9994,2.9994,3.0193,3.0981,3.1381,3.2083,3.3981,3.4483,3.4775,3.5763,3.6263,3.6358,3.6358,3.6358,3.6358,3.6358,3.6257,3.6182,3.6182,3.6081,3.6006,3.6006,3.6006,3.6006,3.6006,3.6006,3.61,3.6366,3.6865,3.7376,3.79,3.79,3.79,3.79,3.79,3.79,3.79,3.79,3.79,3.79,3.79,3.79,3.79,3.833,3.8498,3.8589,4.0346,4.1197,4.1281,4.2644,4.3329,4.3329,4.3329,4.3329,4.3329,4.3329,4.3329,4.3329,4.3329,4.3329,4.3329,1.9366,1.9366,1.9366,1.9366,1.9366,1.9591,2.0162,2.0838,2.1631,2.2749,2.3528,2.43,2.5075,2.5744,2.6409,2.6626,2.7403,2.796,2.8291,2.8291,2.8291,2.8291,2.8291,2.8291,2.8291,2.8291,2.8291,2.8291,2.8291,2.8291,2.8291,2.8291,2.8291,2.8291,2.8291,2.8291,2.8291,2.8291,2.8291,2.8291,2.8291,2.8611,2.9132,2.9132,2.9448,2.9994,2.9994,2.9994,2.9994,2.9994,2.9994,2.9994,2.9994,2.9994,2.9994,2.9994,2.9994,3.0088,3.0692,3.1586,3.2588,3.3784,3.4787,3.5667,3.6263,3.6358,3.6358,3.6358,3.6358,3.6358,3.6358,3.6358,3.6358,3.6358,3.6358,3.6358,3.6358,3.6358,3.6358,3.6358,3.6358,3.6546,3.6828,3.7108,3.7505,3.79,3.79,3.79,3.79,3.79,3.79,3.79,3.79,3.79,3.79,3.79,3.79,3.79,3.8304,3.8562,3.8549,4.0432,4.1296,4.138,4.2739,4.3329,4.3329,4.3329,4.3329,4.3329,4.3329,4.3329,4.3329,4.3329,4.3329,4.3329,1.9366,1.9366,1.9366,1.9366,1.9366,1.9822,2.106,2.1174,2.207,2.4548,2.5084,2.5744,2.698,2.7422,2.7647,2.796,2.796,2.8067,2.8291,2.8291,2.8291,2.8291,2.8291,2.8291,2.8291,2.8291,2.8291,2.8291,2.8291,2.8291,2.8291,2.8291,2.8291,2.8291,2.8291,2.8291,2.8291,2.8291,2.8291,2.8291,2.8408,2.8611,2.9132,2.9132,2.9564,2.9994,2.9994,2.9994,2.9994,2.9994,2.9994,2.9994,2.9994,2.9994,2.9994,2.9994,2.9994,3.0099,3.0505,3.1801,3.33,3.3697,3.5078,3.6358,3.6358,3.6358,3.6358,3.6358,3.6358,3.6358,3.6358,3.6358,3.6358,3.6358,3.6358,3.6358,3.6358,3.6358,3.6358,3.6358,3.6452,3.664,3.7015,3.7108,3.7413,3.79,3.79,3.79,3.79,3.79,3.79,3.79,3.79,3.79,3.79,3.79,3.79,3.79,3.8639,3.9046,3.9285,4.0944,4.1825,4.2073,4.2915,4.3329,4.3329,4.3329,4.3329,4.3329,4.3329,4.3329,4.3329,4.3329,4.3329,4.3329,1.9366,1.9366,1.9366,1.9366,1.9366,1.9822,2.106,2.1174,2.2184,2.4855,2.5186,2.5854,2.7628,2.797,2.8184,2.8291,2.8291,2.8291,2.8291,2.8291,2.8291,2.8291,2.8291,2.8291,2.8291,2.8291,2.8291,2.8291,2.8291,2.8291,2.8291,2.8291,2.8291,2.8291,2.8291,2.8291,2.8291,2.8291,2.8291,2.8291,2.8514,2.8834,2.9132,2.9448,2.9774,2.9994,2.9994,2.9994,2.9994,2.9994,2.9994,2.9994,2.9994,2.9994,2.9994,2.9994,2.9994,3.0391,3.2297,3.3001,3.3697,3.5463,3.6168,3.6358,3.6358,3.6358,3.6358,3.6358,3.6358,3.6358,3.6358,3.6358,3.6358,3.6358,3.6358,3.6358,3.6358,3.6358,3.6358,3.6358,3.6534,3.6815,3.7108,3.7307,3.7611,3.79,3.79,3.79,3.79,3.79,3.79,3.79,3.79,3.79,3.79,3.79,3.79,3.79,3.7979,3.8472,3.9197,4.0332,4.1212,4.2073,4.2915,4.3329,4.3329,4.3329,4.3329,4.3329,4.3329,4.3329,4.3329,4.3329,4.3329,4.3329,1.9366,1.9366,1.9366,1.9366,1.9366,1.9815,2.1174,2.1949,2.3175,2.5212,2.6191,2.6961,2.7843,2.8184,2.8291,2.8291,2.8291,2.8291,2.8291,2.8291,2.8291,2.8291,2.8291,2.8291,2.8291,2.8291,2.8291,2.8291,2.8291,2.8291,2.8291,2.8291,2.8291,2.8291,2.8291,2.8291,2.8291,2.8291,2.8291,2.8291,2.8621,2.8834,2.9132,2.9448,2.9774,2.9994,2.9994,2.9994,2.9994,2.9994,2.9994,2.9994,2.9994,2.9994,3.0088,3.0692,3.0888,3.1187,3.2801,3.3598,3.4288,3.5271,3.5966,3.6358,3.6358,3.6358,3.6358,3.6358,3.6358,3.6358,3.6358,3.6358,3.6358,3.6358,3.6358,3.6358,3.6358,3.6358,3.6358,3.6358,3.6534,3.6815,3.7108,3.7307,3.7611,3.79,3.79,3.79,3.79,3.79,3.79,3.79,3.79,3.79,3.79,3.79,3.79,3.79,3.79,3.8057,3.8472,3.9401,4.0073,4.0504,4.1365,4.2058,4.2578,4.2578,4.2835,4.3329,4.3329,4.3329,4.3329,4.3329,4.3329,4.3329]},{"header":{"parameterUnit":"m.s-1","parameterCategory":1,"la1":30.6,"la2":28.766,"lo1":-90.7593,"lo2":-88.6598,"dy":0.0162,"dx":0.0183,"nx":116,"ny":114,"refTime":"2024-03-06T06:00:00:Z","depth":0,"parameterNumber":3,"parameterNumberName":"V-component_of_WINDS"},"data":[0.0,0.0,0.0,0.0,0.0,0.0,0.0,0.0,0.0,0.0,0.0,0.0,0.0,0.0,0.0,0.0,0.0,0.0,0.0,0.0,0.0,0.0,0.0,0.0,0.0,0.0,0.0,0.0,0.0,0.0,0.0,0.0,0.0,0.0,0.0,0.0,0.0,0.0,0.0,0.0,0.0,0.0,0.0,0.0,0.0,0.0,0.0,0.0,0.0,0.0,0.0,0.0,0.0,0.0,0.0,0.0,0.0,0.0,0.0,0.0,0.0,0.0,0.0,0.0,0.0,0.0,0.0,0.0,0.0,0.0,0.0,0.0,0.0,0.0,0.0,0.0,0.0,0.0,0.0,0.0,0.0,0.0,0.0,0.0,0.0,0.0,0.0,0.0,0.0,0.0,0.0,0.0,0.0,0.0,0.0,0.0,0.0,0.0,0.0,0.0,0.0,0.0,0.0,0.0,0.0,0.0,0.0,0.0,0.0,0.0,0.0,0.0,0.0,0.0,0.0,0.0,0.0,0.0,0.0,0.0,0.0,0.0,0.0,0.0,0.0,0.0,0.0,0.0,0.0,0.0,0.0,0.0,0.0,0.0,0.0,0.0,0.0,0.0,0.0,0.0,0.0,0.0,0.0,0.0,0.0,0.0,0.0,0.0,0.0,0.0,0.0,0.0,0.0,0.0,0.0,0.0,0.0,0.0,0.0,0.0,0.0,0.0,0.0,0.0,0.0,0.0,0.0,0.0,0.0,0.0,0.0,0.0,0.0,0.0,0.0,0.0,0.0,0.0,0.0,0.0,0.0,0.0,0.0,0.0,0.0,0.0,0.0,0.0,0.0,0.0,0.0,0.0,0.0,0.0,0.0,0.0,0.0,0.0,0.0,0.0,0.0,0.0,0.0,0.0,0.0,0.0,0.0,0.0,0.0,0.0,0.0,0.0,0.0,0.0,0.0,0.0,0.0,0.0,0.0,0.0,0.0,0.0,0.0,0.0,0.0,0.0,0.0,0.0,0.0,0.0,0.0,0.0,0.0,0.0,0.0,0.0,0.0,0.0,0.0,0.0,0.0,0.0,0.0,0.0,0.0,0.0,0.0,0.0,0.0,0.0,0.0,0.0,0.0,0.0,0.0,0.0,0.0,0.0,0.0,0.0,0.0,0.0,0.0,0.0,0.0,0.0,0.0,0.0,0.0,0.0,0.0,0.0,0.0,0.0,0.0,0.0,0.0,0.0,0.0,0.0,0.0,0.0,0.0,0.0,0.0,0.0,0.0,0.0,0.0,0.0,0.0,0.0,0.0,0.0,0.0,0.0,0.0,0.0,0.0,0.0,0.0,0.0,0.0,0.0,0.0,0.0,0.0,0.0,0.0,0.0,0.0,0.0,0.0,0.0,0.0,0.0,0.0,0.0,0.0,0.0,0.0,0.0,0.0,0.0,0.0,0.0,0.0,0.0,0.0,0.0,0.0,0.0,0.0,0.0,0.0,0.0,0.0,0.0,0.0,0.0,0.0,0.0,0.0,0.0,0.0,0.0,0.0,0.0,0.0,0.0,0.0,0.0,0.0,0.0,0.0,0.0,0.0,0.0,0.0,0.0,0.0,0.0,0.0,0.0,0.0,0.0,0.0,0.0,0.0,0.0,0.0,0.0,0.0,0.0,0.0,0.0,0.0,0.0,0.0,0.0,0.0,0.0,0.0,0.0,0.0,0.0,0.0,0.0,0.0,0.0,0.0,0.0,0.0,0.0,0.0,0.0,0.0,0.0,0.0,0.0,0.0,0.0,0.0,0.0,0.0,0.0,0.0,0.0,0.0,0.0,0.0,0.0,0.0,0.0,0.0,0.0,0.0,0.0,0.0,0.0,0.0,0.0,0.0,0.0,0.0,0.0,0.0,0.0,0.0,0.0,0.0,0.0,0.0,0.0,0.0,0.0,0.0,0.0,0.0,0.0,0.0,0.0,0.0,0.0,0.0,0.0,0.0,0.0,0.0,0.0,0.0,0.0,0.0,0.0,0.0,0.0,0.0,0.0,0.0,0.0,0.0,0.0,0.0,0.0,0.0,0.0,0.0,0.0,0.0,0.0,0.0,0.0,0.0,0.0,0.0,0.0,0.0,0.0,0.0,0.0,0.0,0.0,0.0,0.0,0.0,0.0,0.0,0.0,0.0,0.0,0.0,0.0,0.0,0.0,0.0,0.0,0.0,0.0,0.0,0.0,0.0,0.0,0.0,0.0,0.0,0.0,0.0,0.0,0.0,0.0,0.0,0.0,0.0,0.0,0.0,0.0,0.0,0.0,0.0,0.0,0.0,0.0,0.0,0.0,0.0,0.0,0.0,0.0,0.0,0.0,0.0,0.0,0.0,0.0,0.0,0.0,0.0,0.0,0.0,0.0,0.0,0.0,0.0,0.0,0.0,0.0,0.0,0.0,0.0,0.0,0.0,0.0,0.0,0.0,0.0,0.0,0.0,0.0,0.0,0.0,0.0,0.0,0.0,0.0,0.0,0.0,0.0,0.0,0.0,0.0,0.0,0.0,0.0,0.0,0.0,0.0,0.0,0.0,0.0,0.0,0.0,0.0,0.0,0.0,0.0,0.0,0.0,0.0,0.0,0.0,0.0,0.0,0.0,0.0,0.0,0.0,0.0,0.0,0.0,0.0,0.0,0.0,0.0,0.0,0.0,0.0,0.0,0.0,0.0,0.0,0.0,0.0,0.0,0.0,0.0,0.0,0.0,0.0,0.0,0.0,0.0,0.0,0.0,0.0,0.0,0.0,0.0,0.0,0.0,0.0,0.0,0.0,0.0,0.0,0.0,0.0,0.0,0.0,0.0,0.0,0.0,0.0,0.0,0.0,0.0,0.0,0.0,0.0,0.0,0.0,0.0,0.0,0.0,0.0,0.0,0.0,0.0,0.0,0.0,0.0,0.0,0.0,0.0,0.0,0.0,0.0,0.0,0.0,0.0,0.0,0.0,0.0,0.0,0.0,0.0,0.0,0.0,0.0,0.0,0.0,0.0,0.0,0.0,0.0,0.0,0.0,0.0,0.0,0.0,0.0,0.0,0.0,0.0,0.0,0.0,0.0,0.0,0.0,0.0,0.0,0.0,0.0,0.0,0.0,0.0,0.0,0.0,0.0,0.0,0.0,0.0,0.0,0.0,0.0,0.0,0.0,0.0,0.0,0.0,0.0,0.0,0.0,0.0,0.0,0.0,0.0,0.0,0.0,0.0,0.0,0.0,0.0,0.0,0.0,0.0,0.0,0.0,0.0,0.0,0.0,0.0,0.0,0.0,0.0,0.0,0.0,0.0,0.0,0.0,0.0,0.0,0.0,0.0,0.0,0.0,0.0,0.0,0.0,0.0,0.0,0.0,0.0,0.0,0.0,0.0,0.0,0.0,0.0,0.0,0.0,0.0,0.0,0.0,0.0,0.0,0.0,0.0,0.0,0.0,0.0,0.0,0.0,0.0,0.0,0.0,0.0,0.0,0.0,0.0,0.0,0.0,0.0,0.0,0.0,0.0,0.0,0.0,0.0,0.0,0.0,0.0,0.0,0.0,0.0,0.0,0.0,0.0,0.0,0.0,0.0,0.0,0.0,0.0,0.0,0.0,0.0,0.0,0.0,0.0,0.0,0.0,0.0,0.0,0.0,0.0,0.0,0.0,0.0,0.0,0.0,0.0,0.0,0.0,0.0,0.0,0.0,0.0,0.0,0.0,0.0,0.0,0.0,0.0,0.0,0.0,0.0,0.0,0.0,0.0,0.0,0.0,0.0,0.0,0.0,0.0,0.0,0.0,0.0,0.0,0.0,0.0,0.0,0.0,0.0,0.0,0.0,0.0,0.0,0.0,0.0,0.0,0.0,0.0,0.0,0.0,0.0,0.0,0.0,0.0,0.0,0.0,0.0,0.0,0.0,0.0,0.0,0.0,0.0,0.0,0.0,0.0,0.0,0.0,0.0,0.0,0.0,0.0,0.0,0.0,0.0,0.0,0.0,0.0,0.0,0.0,0.0,0.0,0.0,0.0,0.0,0.0,0.0,0.0,0.0,0.0,0.0,0.0,0.0,0.0,0.0,0.0,0.0,0.0,0.0,0.0,0.0,0.0,0.0,0.0,0.0,0.0,0.0,0.0,0.0,0.0,0.0,0.0,0.0,0.0,0.0,0.0,0.0,0.0,0.0,0.0,0.0,0.0,0.0,0.0,0.0,0.0,0.0,0.0,0.0,0.0,0.0,0.0,0.0,0.0,0.0,0.0,0.0,0.0,0.0,0.0,0.0,0.0,0.0,0.0,0.0,0.0,0.0,0.0,0.0,0.0,0.0,0.0,0.0,0.0,0.0,0.0,0.0,0.0,0.0,0.0,0.0,0.0,0.0,0.0,0.0,0.0,0.0,0.0,0.0,0.0,0.0,0.0,0.0,0.0,0.0,0.0,0.0,0.0,0.0,0.0,0.0,0.0,0.0,0.0,0.0,0.0,0.0,0.0,0.0,0.0,0.0,0.0,0.0,0.0,0.0,0.0,0.0,0.0,0.0,0.0,0.0,0.0,0.0,0.0,0.0,0.0,0.0,0.0,0.0,0.0,0.0,0.0,0.0,0.0,0.0,0.0,0.0,0.0,0.0,0.0,0.0,0.0,0.0,0.0,0.0,0.0,0.0,0.0,0.0,0.0,0.0,0.0,0.0,0.0,0.0,0.0,0.0,0.0,0.0,0.0,0.0,0.0,0.0,0.0,0.0,0.0,0.0,0.0,0.0,0.0,0.0,0.0,0.0,0.0,0.0,0.0,0.0,0.0,0.0,0.0,0.0,0.0,0.0,0.0,0.0,0.0,0.0,0.0,0.0,0.0,0.0,0.0,0.0,0.0,0.0,0.0,0.0,0.0,0.0,0.0,0.0,0.0,0.0,0.0,0.0,0.0,0.0,0.0,0.0,0.0,0.0,0.0,0.0,0.0,0.0,0.0,0.0,0.0,0.0,0.0,0.0,0.0,0.0,0.0,0.0,0.0,0.0,0.0,0.0,0.0,0.0,0.0,0.0,0.0,0.0,0.0,0.0,0.0,0.0,0.0,0.0,0.0,0.0,0.0,0.0,0.0,0.0,0.0,0.0,0.0,0.0,0.0,0.0,0.0,0.0,0.0,0.0,0.0,0.0,0.0,0.0,0.0,0.0,0.0,0.0,0.0,0.0,0.0,0.0,0.0,0.0,0.0,0.0,0.0,0.0,0.0,0.0,0.0,0.0,0.0,0.0,0.0,0.0,0.0,0.0,0.0,0.0,0.0,0.0,0.0,0.0,0.0,0.0,0.0,0.0,0.0,0.0,0.0,0.0,0.0,0.0,0.0,0.0,0.0,0.0,0.0,0.0,0.0,0.0,0.0,0.0,0.0,0.0,0.0,0.0,0.0,0.0,0.0,0.0,0.0,0.0,0.0,0.0,0.0,0.0,0.0,0.0,0.0,0.0,0.0,0.0,0.0,0.0,0.0,0.0,0.0,0.0,0.0,0.0,0.0,0.0,0.0,0.0,0.0,0.0,0.0,0.0,0.0,0.0,0.0,0.0,0.0,0.0,0.0,0.0,0.0,0.0,0.0,0.0,0.0,0.0,0.0,0.0,0.0,0.0,0.0,0.0,0.0,0.0,0.0,0.0,0.0,0.0,0.0,0.0,0.0,0.0,0.0,0.0,0.0,0.0,0.0,0.0,0.0,0.0,0.0,0.0,0.0,0.0,0.0,0.0,0.0,0.0,0.0,0.0,0.0,0.0,0.0,0.0,0.0,0.0,0.0,0.0,0.0,0.0,0.0,0.0,0.0,0.0,0.0,0.0,0.0,0.0,0.0,0.0,0.0,0.0,0.0,0.0,0.0,0.0,0.0,0.0,0.0,0.0,0.0,0.0,0.0,0.0,0.0,0.0,0.0,0.0,0.0,0.0,0.0,0.0,0.0,0.0,0.0,0.0,0.0,0.0,0.0,0.0,0.0,0.0,0.0,0.0,0.0,0.0,0.0,0.0,0.0,0.0,0.0,0.0,0.0,0.0,0.0,0.0,0.0,0.0,0.0,0.0,0.0,0.0,0.0,0.0,0.0,0.0,0.0,0.0,0.0,0.0,-0.9676,0.0,0.0,0.0,0.0,0.0,0.0,0.0,0.0,0.0,0.0,0.0,0.0,0.0,0.0,0.0,0.0,0.0,0.0,0.0,0.0,0.0,0.0,0.0,0.0,0.0,0.0,0.0,2.0317,2.0309,2.0301,2.0226,2.0206,2.0252,2.0252,2.0267,2.0309,2.1085,2.1733,2.2229,2.2991,2.3878,2.482,2.4687,2.493,2.5447,0.0,0.0,0.0,0.0,0.0,0.0,0.0,0.0,0.0,0.0,0.0,0.0,0.0,0.0,0.0,0.0,0.0,0.0,0.0,0.0,0.0,0.0,0.0,0.0,0.0,0.0,0.0,0.0,0.0,0.0,0.0,0.0,0.0,0.0,0.0,0.0,0.0,0.0,0.0,0.0,0.0,0.0,0.0,0.0,0.0,0.0,0.0,0.0,0.0,0.0,0.0,0.0,0.0,0.0,0.0,0.0,0.0,0.0,0.0,0.0,0.0,0.0,0.0,0.0,0.0,0.0,0.0,0.0,0.0,0.0,0.0,-1.425,0.0,0.0,0.0,0.0,0.0,0.0,0.0,0.0,0.0,0.0,0.0,0.0,0.0,0.0,0.0,0.0,0.0,0.0,0.0,0.0,0.0,0.0,0.0,2.0508,2.0508,2.049,2.0447,2.0403,2.0406,2.0341,2.0318,2.0328,2.0309,2.0351,2.0485,2.1266,2.2122,2.3072,2.3821,2.459,2.5382,2.541,2.5434,2.5449,2.5481,0.0,0.0,0.0,0.0,0.0,0.0,0.0,0.0,0.0,0.0,0.0,0.0,0.0,0.0,0.0,0.0,0.0,0.0,0.0,0.0,0.0,0.0,0.0,0.0,0.0,0.0,0.0,0.0,0.0,0.0,0.0,0.0,0.0,0.0,0.0,0.0,0.0,0.0,0.0,0.0,0.0,0.0,0.0,0.0,0.0,0.0,0.0,0.0,0.0,0.0,0.0,0.0,0.0,0.0,0.0,0.0,0.0,0.0,0.0,0.0,0.0,0.0,0.0,-2.0794,-2.0777,-2.0726,-2.0693,-2.0592,-2.0131,-1.5438,-1.5384,-1.865,0.0,0.0,0.0,0.0,0.0,0.0,0.0,0.0,0.0,0.0,0.0,0.0,0.0,0.0,0.0,0.0,0.0,0.0,0.0,0.0,0.0,0.0,2.0505,2.0505,2.0508,2.0484,2.0469,2.0399,2.039,2.0387,2.0391,2.0321,2.0603,2.1244,2.2207,2.3049,2.3764,2.4795,2.5302,2.5324,2.5418,2.5394,2.5251,2.5425,2.5503,2.5493,0.0,0.0,0.0,0.0,0.0,0.0,0.0,0.0,0.0,0.0,0.0,0.0,0.0,0.0,0.0,0.0,0.0,0.0,0.0,0.0,0.0,0.0,0.0,0.0,0.0,0.0,0.0,0.0,0.0,0.0,0.0,0.0,0.0,0.0,0.0,0.0,0.0,0.0,0.0,0.0,0.0,1.7144,1.6509,0.0,0.0,0.0,0.0,0.0,0.0,0.0,0.0,0.0,0.0,0.0,0.0,0.0,0.0,-1.2107,-1.2203,-1.5083,-2.0794,-2.0794,-2.0794,-2.0794,-2.0726,-2.061,-2.0444,-1.9615,0.0,-1.9566,-1.8803,0.0,0.0,0.0,0.0,0.0,0.0,0.0,0.0,0.0,0.0,0.0,0.0,0.0,0.0,0.0,0.0,0.0,0.0,0.0,0.0,0.0,2.0479,2.0458,2.0508,2.0505,2.0479,2.0406,2.0449,2.0405,2.0297,2.0698,2.1022,2.1272,2.2642,2.3774,2.4629,2.5216,2.5476,2.5418,2.5468,2.5418,2.5254,2.535,2.5415,2.5437,2.5452,0.0,0.0,0.0,0.0,0.0,0.0,0.0,0.0,0.0,0.0,0.0,0.0,0.0,0.0,0.0,0.0,0.0,0.0,0.0,0.0,0.0,0.0,0.0,0.0,0.0,0.0,0.0,0.0,0.0,0.0,0.0,0.0,0.0,0.0,0.0,0.0,0.0,0.0,0.0,1.7449,1.6921,1.6454,1.6207,1.5957,0.0,0.0,0.0,0.0,0.0,0.0,0.0,0.0,0.0,0.5164,0.816,0.2724,-1.2059,-0.8979,-1.1904,-2.0794,-2.0777,-2.0695,-2.0628,-2.0543,-2.0491,-2.0407,-2.0339,-2.0166,-1.9848,-1.9066,-1.8263,-1.7516,0.0,0.0,0.0,0.0,-1.4652,-1.3674,0.0,0.0,0.0,0.0,0.0,0.0,0.0,0.0,0.0,0.0,0.0,0.0,2.044,2.043,2.0432,2.0488,2.0495,2.0455,2.0389,2.0425,2.0464,2.0482,2.1043,2.1484,2.1768,2.3246,2.4442,2.5284,2.5378,2.5415,2.5378,2.5415,2.5341,2.5182,2.5254,2.5309,2.534,2.5322,2.5215,0.0,0.0,0.0,0.0,0.0,0.0,0.0,0.0,0.0,0.0,0.0,0.0,0.0,0.0,0.0,0.0,0.0,0.0,0.0,0.0,0.0,0.0,0.0,0.0,0.0,0.0,0.0,0.0,0.0,0.0,0.0,0.0,0.0,0.0,0.0,0.0,0.0,0.0,1.7118,1.6612,1.6225,1.5812,1.5457,0.0,0.0,0.0,0.0,0.0,0.0,1.1242,1.1242,0.8588,0.2822,0.6931,0.2321,-1.2059,-0.9422,-1.2311,-2.0794,-2.0744,-2.0677,-2.0561,-2.0475,-2.0373,-2.0304,-2.027,-2.0096,-1.9797,-1.914,-1.8249,-1.7199,-1.6934,-1.6281,-1.5501,-1.5334,-1.4536,-1.3505,0.0,0.0,0.0,0.0,0.0,0.0,0.0,0.0,0.0,0.0,0.0,1.9978,2.0354,2.0394,2.0435,2.0488,2.0505,2.0433,2.0318,2.0302,2.0592,2.1225,2.1232,2.1881,2.3352,2.4403,2.5111,2.5484,2.538,2.5212,2.5034,2.5171,2.5072,2.485,2.5168,2.5283,2.5215,2.5138,2.5034,2.4898,0.0,0.0,0.0,0.0,0.0,0.0,0.0,0.0,0.0,0.0,0.0,0.0,0.0,0.0,0.0,0.0,0.0,0.0,0.0,0.0,0.0,0.0,0.0,0.0,0.0,0.0,0.0,0.0,0.0,0.0,0.0,0.0,0.0,0.0,0.0,0.0,0.0,0.0,0.0,1.5876,1.5299,0.0,0.0,0.0,0.0,1.4014,0.8341,0.4866,0.4754,0.4829,0.2227,-0.3556,-0.3102,-0.5782,-1.2155,-1.7349,-2.0215,-2.0794,-2.0794,-2.0777,-2.0693,-2.0561,-2.0475,-2.0388,-2.0185,-1.9854,-1.9406,-1.8841,-1.864,-1.8592,-1.7352,-1.682,-1.657,-1.5588,-1.488,-1.4269,0.0,0.0,0.0,0.0,0.0,0.0,0.0,0.0,1.9383,1.9481,1.9669,1.985,2.0003,2.0222,2.0346,2.037,2.0414,2.0412,2.0371,2.0856,2.1185,2.1301,2.222,2.324,2.4308,2.4685,2.4981,2.5234,2.5182,2.5138,2.5072,2.5789,2.5654,2.4888,2.5664,2.5631,2.5012,2.5072,2.4993,2.4845,2.4785,2.4639,0.0,0.0,0.0,0.0,0.0,0.0,0.0,0.0,0.0,0.0,0.0,0.0,0.0,0.0,0.0,0.0,0.0,0.0,0.0,0.0,0.0,0.0,0.0,0.0,0.0,0.0,0.0,0.0,0.0,0.0,0.0,0.0,0.0,0.0,0.0,0.0,0.0,1.5732,1.5311,0.0,0.0,1.4025,1.3884,1.3647,0.7894,0.4391,0.4354,0.0672,-0.3996,-0.9574,-0.6015,-0.8411,-1.7631,-1.6097,-1.7125,-2.0794,-2.0662,-2.0595,-2.0577,-2.0426,-2.0373,-2.0339,-2.027,-2.0045,-1.9756,-1.9402,-1.8798,-1.7988,-1.7018,-1.6466,-1.6088,-1.5626,-1.5096,-1.4575,0.0,0.0,0.0,0.0,0.0,0.0,0.0,0.0,1.9068,1.9276,1.952,1.9741,1.9956,2.016,2.0305,2.0302,2.0336,2.0473,2.0711,2.1092,2.1534,2.2045,2.3303,2.4236,2.479,2.479,2.5037,2.5504,2.5456,2.5584,2.5888,2.656,2.6441,2.5745,2.6447,2.639,2.5768,2.557,2.5221,2.4823,2.4804,2.4689,2.4495,0.0,0.0,0.0,0.0,0.0,0.0,0.0,0.0,0.0,0.0,0.0,0.0,0.0,0.0,0.0,0.0,0.0,0.0,0.0,0.0,0.0,0.0,0.0,0.0,0.0,0.0,0.0,0.0,0.0,0.0,0.0,0.0,0.0,0.0,0.0,1.6044,1.5688,1.5164,1.4547,1.3858,1.3763,1.361,1.3362,0.7776,0.3475,0.1366,-0.0582,-0.6062,-1.5773,-0.8325,-0.9626,-2.107,-1.7229,-1.719,-2.0958,-2.0695,-2.0652,-2.0867,-2.0748,-2.0767,-2.0983,-2.0962,-2.0855,-2.0667,-2.0304,-1.9498,-1.8466,-1.7501,-1.6883,-1.6514,-1.6028,-1.5608,-1.5157,0.0,0.0,0.0,0.0,0.0,0.0,0.0,1.8239,1.8452,1.9188,1.9338,1.961,2.0179,2.0258,2.026,2.0263,2.0291,2.0597,2.1331,2.1001,2.162,2.3544,2.4313,2.4742,2.4847,2.4847,2.5327,2.6327,2.6195,2.6559,2.7392,2.7426,2.7396,2.7315,2.7466,2.7533,2.7437,2.6603,2.5768,2.4977,2.485,2.461,2.4336,0.0,0.0,0.0,0.0,0.0,0.0,0.0,0.0,0.0,0.0,0.0,0.0,0.0,0.0,0.0,0.0,0.0,0.0,0.0,0.0,0.0,0.0,0.0,0.0,0.0,0.0,0.0,0.0,0.0,0.0,0.0,0.0,0.0,1.671,1.6293,1.5901,1.5788,1.4801,1.4082,1.3821,1.3364,1.3113,1.317,0.765,0.1705,-0.4284,0.0918,-0.3969,-2.1661,-1.0638,-1.0062,-2.182,-2.1575,-2.139,-2.1374,-2.0972,-2.1083,-2.165,-2.1517,-2.175,-2.2301,-2.224,-2.2125,-2.1955,-2.145,-2.0864,-2.0187,-1.8911,-1.8273,-1.7881,-1.6811,-1.6322,-1.603,0.0,0.0,0.0,0.0,0.0,0.0,0.0,1.8246,1.831,1.8625,1.887,1.9051,1.9125,1.94,1.9543,1.9445,2.0024,2.0445,2.0593,2.1704,2.2966,2.4267,2.4564,2.4989,2.5672,2.5672,2.6083,2.6959,2.6911,2.7027,2.7271,2.8001,2.7963,2.7333,2.8108,2.8122,2.7559,2.7309,2.7075,2.674,2.5408,2.4818,2.4723,0.0,0.0,0.0,0.0,0.0,0.0,0.0,0.0,0.0,0.0,0.0,0.0,0.0,0.0,0.0,0.0,0.0,0.0,0.0,0.0,0.0,0.0,0.0,0.0,0.0,0.0,0.0,0.0,0.0,0.0,0.0,0.0,1.6392,1.625,1.5724,1.5187,1.472,1.4118,1.3621,1.3316,1.3182,1.3113,1.317,0.765,0.358,0.1875,-0.0736,-0.6414,-1.5597,-1.3128,-1.5194,-2.2615,-2.3152,-2.3354,-2.3257,-2.2815,-2.2655,-2.2757,-2.2379,-2.2229,-2.2286,-2.2301,-2.2225,-2.2117,-2.198,-2.157,-2.0876,-1.9543,-1.8727,-1.8182,-1.7357,-1.6749,-1.6258,0.0,0.0,0.0,0.0,0.0,0.0,0.0,1.8225,1.829,1.8661,1.8806,1.8906,1.8955,1.9161,1.938,1.962,2.0077,2.0628,2.1252,2.2687,2.3739,2.4247,2.4461,2.4955,2.5759,2.5847,2.6444,2.7623,2.7729,2.7968,2.8307,2.8912,2.8938,2.8502,2.9087,2.9103,2.8676,2.8324,2.8198,2.8026,2.6282,2.5507,2.5394,2.4917,2.482,2.4911,2.4892,2.4941,2.5023,2.5091,0.0,0.0,0.0,0.0,0.0,0.0,0.0,0.0,0.0,0.0,0.0,0.0,0.0,0.0,0.0,0.0,0.0,0.0,0.0,0.0,0.0,0.0,0.0,0.0,1.7335,1.6806,1.6623,1.5875,1.5244,1.4915,1.4305,1.3847,1.3678,1.3429,1.3343,1.3461,1.041,0.7413,0.4963,0.3876,-0.0533,-0.9031,-0.7174,-0.8876,-1.4792,-1.8096,-1.9649,-1.9436,-2.2062,-2.3349,-2.3453,-2.3099,-2.308,0.0,-2.3226,-2.3148,-2.3035,-2.3058,-2.2541,0.0,0.0,0.0,0.0,0.0,-1.7159,-1.6581,0.0,0.0,0.0,0.0,0.0,0.0,0.0,1.8159,1.831,1.8943,1.8925,1.8957,1.9188,1.9221,1.9525,2.0268,2.0278,2.097,2.2628,2.3621,2.4061,2.3858,2.4302,2.4894,2.5632,2.5838,2.673,2.8312,2.8574,2.9074,2.9771,2.9969,3.0105,3.0236,3.0236,3.028,3.0294,2.948,2.9136,2.9032,2.7424,2.6572,2.6151,2.5278,2.503,2.5124,2.508,2.5137,2.5244,2.5177,0.0,0.0,0.0,0.0,0.0,0.0,0.0,0.0,0.0,0.0,0.0,0.0,0.0,0.0,0.0,0.0,0.0,0.0,0.0,0.0,0.0,0.0,0.0,0.0,1.7787,1.7412,1.7412,1.656,1.5972,1.5927,1.5073,1.4515,1.4667,1.4128,1.3881,1.4094,1.4345,1.2187,0.6943,0.0,0.0,0.0,0.0,0.2614,-0.3556,-0.9651,-1.2517,-1.2243,-1.8335,-2.1784,-2.2809,-2.2653,-2.3268,-2.4498,-2.4498,-2.4416,-2.4223,-2.4208,-2.2966,-2.1079,-2.0979,-2.0459,-1.972,-1.8441,-1.7567,-1.6899,0.0,0.0,0.0,0.0,0.0,0.0,0.0,1.7988,1.81,1.8565,1.8585,1.8622,1.8715,1.8734,1.9055,1.9861,1.9996,2.0894,2.2835,2.353,2.3964,2.4192,2.4986,2.5783,2.6541,2.7209,2.8025,2.9008,2.9213,2.9439,2.9663,3.0538,3.0978,3.1058,3.1058,3.1134,3.1205,3.0394,3.0087,3.004,2.9014,2.775,2.6439,2.56,2.533,2.536,2.5444,2.5505,2.5512,2.5505,2.5518,2.5531,2.5479,0.0,0.0,0.0,0.0,0.0,0.0,0.0,0.0,0.0,0.0,0.0,0.0,0.0,0.0,0.0,0.0,0.0,0.0,0.0,0.0,1.9787,1.8394,1.7412,1.7412,1.7243,1.6955,1.6569,1.5957,1.5598,1.5659,1.5535,1.5437,1.5488,1.5676,1.5056,1.3426,1.4553,0.0,0.3823,0.4266,0.1765,-0.4346,-0.6204,-0.7085,-0.6978,0.0,0.0,-1.6712,-1.6416,-1.9292,-2.4589,-2.4589,-2.4523,-2.4416,-2.4317,-2.0016,-1.3957,-1.8549,-1.9798,-1.9016,-1.875,-1.7897,-1.6807,0.0,0.0,0.0,0.0,0.0,0.0,0.0,1.7971,1.8014,1.8307,1.8284,1.826,1.8298,1.8606,1.9087,1.9791,2.0759,2.1806,2.2919,2.353,2.3941,2.419,2.4634,2.5445,2.6562,2.7087,2.7941,2.916,2.9494,2.9681,2.9699,3.0389,3.0723,3.0748,3.0791,3.0847,3.0874,3.054,3.0414,3.0381,2.9553,2.8435,2.721,2.6323,2.5779,2.5456,2.549,2.5549,2.5598,2.5605,2.5605,2.5604,2.5609,2.5598,2.56,0.0,0.0,0.0,0.0,0.0,0.0,0.0,0.0,0.0,0.0,0.0,0.0,0.0,0.0,2.3856,2.277,0.0,2.0711,2.0005,1.8958,1.8205,1.8205,1.8205,1.79,1.7128,1.66,1.6289,1.6289,1.6258,1.6247,1.6247,1.6519,1.6545,1.6289,1.6246,1.47,1.1336,1.0957,0.9365,0.6339,0.2297,0.047,0.0854,-0.2797,-0.6225,-0.9281,-0.8844,-1.0561,-1.3817,-1.3192,-1.5417,-1.9343,-1.8508,-1.3238,-0.5808,-0.7864,-1.0793,-1.424,-1.7569,-1.8159,-1.7222,0.0,0.0,0.0,0.0,0.0,0.0,0.0,1.7954,1.7949,1.8166,1.8078,1.8009,1.8048,1.8631,1.929,1.9956,2.1739,2.2855,2.2937,2.357,2.4018,2.4153,2.4318,2.5031,2.6435,2.6783,2.7635,2.9089,2.9551,2.977,2.9806,3.0247,3.0483,3.0477,3.0522,3.0578,3.0583,3.0527,3.051,3.0443,2.964,2.8797,2.7909,2.6997,2.6155,2.5483,2.5434,2.5511,2.5625,2.5604,2.5617,2.5626,2.5689,2.5657,2.5629,2.5603,2.5589,0.0,0.0,0.0,0.0,0.0,0.0,0.0,0.0,0.0,2.7036,2.5781,2.4984,2.4122,2.2922,2.1744,2.0795,2.0258,1.9695,1.9291,1.9291,1.9291,1.8973,1.7957,1.7414,1.7113,1.7113,1.7058,1.6966,1.6966,1.7323,1.749,1.7435,1.7279,1.7179,1.7134,1.7134,1.719,1.719,1.1287,0.8633,0.9226,0.3032,-0.0429,-0.1308,-0.0907,-0.1477,-0.2694,-0.1693,-0.523,-1.1518,-0.8786,-0.3732,0.2412,0.3981,0.0789,-0.5648,-1.3845,-1.6298,-1.5792,0.0,0.0,0.0,0.0,0.0,0.0,0.0,0.0,1.7883,1.8069,1.8044,1.8044,1.8166,1.8775,1.9508,2.0355,2.2141,2.3077,2.2673,2.3605,2.4248,2.4355,2.5042,2.5818,2.6645,2.7398,2.8206,2.9089,2.9456,2.9677,2.982,3.092,3.1469,3.1537,3.1487,3.1515,3.1583,3.0811,3.0539,3.0516,2.971,2.8869,2.8001,2.7117,2.6253,2.5492,2.5485,2.5571,2.5684,2.5625,2.5642,2.5685,2.5691,2.5691,2.5685,2.5616,0.0,2.5508,2.5518,2.5517,2.5821,2.7162,2.7535,2.7401,0.0,0.0,2.6936,2.5524,2.4433,2.3666,2.3493,2.2406,2.1506,2.141,2.0858,2.0409,2.0409,2.0409,2.0206,1.9584,1.8964,1.8567,1.8567,1.8442,1.8359,1.8359,1.8536,1.8344,1.7722,1.7733,1.7523,1.6864,1.6965,1.7067,1.719,1.6567,1.6341,1.6526,1.5644,1.2263,0.6775,0.6718,0.3646,-0.1565,-0.1321,-0.1673,-0.1913,0.5289,0.879,0.9722,1.057,1.0662,0.8743,-0.4925,-0.9128,-0.9105,0.0,0.0,0.0,0.0,0.0,0.0,0.0,0.0,0.0,1.7849,1.7805,1.7777,1.7777,1.8706,1.9641,2.0435,2.2099,2.2988,2.2685,2.3749,2.4356,2.4284,2.4671,2.5264,2.6041,2.6893,2.7687,2.8458,2.9345,2.9799,2.9864,3.0605,3.0964,3.1,3.1002,3.1052,3.1078,3.0762,3.0365,2.9927,2.9544,2.8598,2.7369,2.6953,2.6268,2.5492,2.5414,2.5486,0.0,0.0,2.5546,2.5703,2.5705,2.5661,2.5632,2.5601,2.5547,0.0,2.5453,2.5819,2.6448,0.0,2.8088,2.8332,2.811,2.8176,2.7893,2.648,2.559,2.4914,2.4484,2.3428,2.2669,0.0,2.2158,2.1553,2.1046,2.0962,2.068,1.9888,1.95,1.9158,1.8851,1.8881,1.8922,1.8922,1.9239,1.9239,1.8951,1.891,1.8762,1.8429,1.8471,1.8525,1.859,1.8818,1.9136,1.9432,1.9499,1.8137,1.5567,1.5831,1.4829,1.2518,0.7658,0.8344,1.2724,1.1459,1.346,1.7367,1.7991,1.8246,1.6569,0.2385,-0.2075,-0.2054,0.0,0.0,0.0,0.0,0.0,0.0,0.0,0.0,0.0,0.0,1.7681,1.7673,1.7819,1.8814,1.9745,2.0484,2.2005,2.2884,2.2835,2.385,2.4426,2.4355,2.4459,2.4886,2.5671,2.632,2.7009,2.7733,2.8785,2.9387,2.967,3.0009,3.0298,3.0546,3.0358,3.0273,3.027,3.0101,2.9672,2.9124,2.8841,2.7987,2.6862,2.6579,2.6049,2.5471,2.5337,2.5414,0.0,0.0,2.5402,2.5563,2.5559,2.5526,2.5484,2.5465,2.5453,2.5486,2.5726,0.0,0.0,2.7959,2.8545,2.8974,2.9214,2.9084,2.8625,2.7579,2.6788,2.6118,2.5601,2.4594,2.383,2.383,2.3298,2.2627,2.1955,2.1736,2.1335,2.0521,2.0283,1.9978,1.9463,1.9331,1.9239,1.9239,1.9552,1.9759,1.9708,1.9604,1.9565,1.9565,1.9648,1.9723,1.984,2.0133,2.0513,2.0891,2.0989,2.108,2.1182,2.1768,2.2299,2.2417,1.6182,1.6896,2.1957,1.5934,1.6591,2.1372,2.1498,2.1398,1.9968,0.9528,0.5226,0.3398,0.0,0.0,0.0,0.0,0.0,0.0,0.0,0.0,0.0,0.0,0.0,0.0,0.0,1.9216,1.9899,2.0643,2.1915,2.2835,2.3169,2.389,2.4444,2.4764,2.4787,2.512,2.5864,2.5976,2.6406,2.7115,2.749,2.8152,2.9025,2.9244,2.9829,3.0661,2.9808,2.9469,2.9474,2.8632,2.8262,2.8164,2.7312,2.6943,2.681,2.595,2.5531,2.5387,2.532,0.0,0.0,0.0,2.5222,2.5209,2.5224,2.5216,0.0,2.5129,2.5196,2.5532,0.0,0.0,2.7157,2.8589,2.8934,2.8987,2.9401,2.9092,2.8657,2.8492,2.7518,2.6691,2.675,2.5743,2.4938,2.4938,2.4168,2.3551,2.3537,2.3009,2.2498,2.2081,2.1819,2.1506,0.0,2.0016,1.9368,1.9368,1.9512,1.9565,1.942,1.9512,1.9565,1.942,1.9805,2.0116,2.0453,2.089,2.1163,2.1263,2.1288,2.1473,2.1866,2.2455,2.2519,2.2187,2.1548,2.1331,2.1332,2.01,1.9668,1.9667,1.8649,1.8534,1.87,1.7015,1.2941,0.6432,0.0,0.0,0.0,0.0,0.0,0.0,0.0,0.0,0.0,0.0,0.0,0.0,0.0,0.0,0.0,0.0,2.1975,2.3194,2.3392,2.3968,2.4388,2.4594,2.4779,2.4969,2.5227,2.583,2.6261,2.6503,2.7281,2.7876,2.8261,2.8431,2.8701,2.902,2.8723,2.8618,2.8616,2.8324,2.7881,2.7381,2.7078,2.6617,2.608,2.5736,2.5531,2.5452,0.0,0.0,0.0,2.5088,2.5126,2.5249,2.5215,0.0,2.513,2.5156,2.5235,2.5526,2.6537,0.0,2.7905,2.8948,2.9522,2.986,2.9998,2.9763,2.9474,2.9439,2.8823,2.8291,2.8258,2.7485,2.6814,2.661,2.6184,2.5533,2.4594,2.4312,2.3785,2.2863,2.2684,0.0,0.0,0.0,0.0,2.0657,2.093,2.1055,2.1006,2.1055,2.1242,2.1643,2.1355,2.1432,2.1887,2.1957,2.202,2.1976,2.2339,2.2496,2.2588,2.2822,2.2504,2.1656,2.1879,2.1538,2.0861,2.0065,1.9622,1.9218,1.7717,1.6824,1.63,1.4937,1.339,1.0918,0.0,0.0,0.0,0.0,0.0,0.0,0.0,0.0,0.0,0.0,0.0,0.0,0.0,0.0,0.0,0.0,0.0,0.0,2.3526,2.3986,2.43,2.4389,2.4654,2.476,2.4716,2.5347,2.5674,2.5707,2.6428,2.7045,2.7513,2.7621,2.7872,2.8215,2.7906,2.7774,2.7743,2.7432,2.6983,2.6493,2.6501,2.6152,2.5617,2.5574,2.5511,0.0,0.0,0.0,0.0,2.4975,2.5018,2.5146,2.5091,2.5015,2.4972,2.5118,2.5194,2.5473,2.6537,2.7466,2.832,2.9132,2.9881,3.0413,3.0279,3.0124,2.9983,2.9952,2.9637,2.9377,2.9363,2.871,2.811,2.7924,2.7372,2.6622,2.5579,2.5266,2.4846,2.3952,2.3688,0.0,0.0,0.0,0.0,2.1871,2.1913,2.2066,2.2207,2.209,2.233,2.2949,2.2717,2.2737,2.3138,2.3167,2.2936,2.2611,2.2795,2.2676,2.2358,2.2358,2.18,2.0913,2.0815,2.0485,1.9901,1.9086,1.8566,1.8222,1.6658,1.568,1.4921,1.3596,1.31,1.2462,0.0,0.0,0.0,0.0,0.0,0.0,0.0,0.0,0.0,0.0,0.0,0.0,0.0,0.0,0.0,0.0,0.0,0.0,2.362,2.3983,2.4192,2.421,2.4459,2.4528,2.4424,2.4604,2.4723,2.4809,2.5072,2.5716,2.6714,2.6792,2.7309,2.8139,2.7301,2.6931,2.6873,2.6054,2.5659,2.5601,2.5593,2.555,2.5499,2.5499,0.0,0.0,0.0,0.0,0.0,0.0,0.0,0.0,0.0,2.4779,2.4779,2.5024,2.5145,2.5435,2.6648,2.7605,2.8463,2.9264,3.0092,3.0623,3.0297,3.023,3.0177,3.0056,2.9983,2.9942,0.0,0.0,2.8839,2.8817,2.7825,2.6894,2.6472,2.6011,2.5599,0.0,0.0,0.0,0.0,0.0,0.0,2.301,0.0,2.2597,2.2958,2.271,2.2862,2.3464,2.3797,2.4028,2.4177,2.423,2.3826,2.3065,2.2628,2.2043,2.1415,2.1176,2.0653,1.9913,1.9022,1.8614,1.8583,1.7511,1.6921,1.667,1.5588,1.4885,1.4427,1.3459,1.2451,1.1139,0.0,0.0,0.0,0.0,0.0,0.0,0.0,0.0,0.0,0.0,0.0,0.0,0.0,0.0,0.0,0.0,0.0,0.0,2.4097,2.4118,2.4229,2.4495,2.4526,2.4572,2.47,2.4644,0.0,2.4869,2.5084,2.538,2.5701,2.5803,2.6013,2.6275,2.6061,2.5988,2.6013,2.5732,2.5626,2.56,0.0,2.5595,2.5565,0.0,0.0,0.0,0.0,0.0,0.0,0.0,0.0,0.0,0.0,2.5091,2.5103,2.5215,2.5707,2.645,2.7505,2.8466,2.9374,3.0234,3.0603,3.0745,3.0665,3.0568,3.0482,3.0458,3.0421,3.0405,0.0,0.0,0.0,2.9132,2.842,0.0,2.695,2.6948,0.0,0.0,0.0,2.5931,2.5603,2.5503,0.0,0.0,2.446,2.4058,2.4143,2.4596,2.5072,2.5602,2.5292,2.5015,2.4942,2.391,2.3245,2.2957,2.2439,2.193,2.1558,2.1499,2.0902,1.9936,2.0062,1.9539,1.8401,1.7798,1.7266,1.667,1.5118,1.4279,1.3784,1.3256,1.2522,1.168,0.0,0.0,0.0,0.0,0.0,0.0,0.0,0.0,0.0,0.0,0.0,0.0,0.0,0.0,0.0,0.0,0.0,0.0,0.0,2.4211,2.4265,2.4338,2.4407,2.4524,2.462,2.4601,0.0,0.0,0.0,0.0,2.5305,2.5434,2.5532,2.5563,2.558,2.5609,2.5654,2.5629,0.0,0.0,0.0,0.0,0.0,0.0,0.0,0.0,0.0,0.0,0.0,0.0,0.0,2.5135,2.5214,2.5214,2.5214,2.5283,0.0,2.6863,2.7868,2.8805,2.9716,3.0624,3.0839,3.0835,3.0804,3.0739,3.0682,3.0691,3.0664,0.0,0.0,0.0,0.0,0.0,0.0,0.0,2.7554,2.7643,2.7525,0.0,2.664,0.0,2.5961,2.6052,2.6144,0.0,2.5581,2.5503,2.5998,2.6075,2.6318,2.6763,2.6258,2.5646,2.5147,2.393,2.3012,2.2441,2.226,2.1727,2.0913,2.0961,2.0545,1.9713,0.0,1.883,1.8093,1.7473,1.6941,1.6477,1.542,1.4731,1.4361,1.3805,1.3269,1.2838,0.0,0.0,0.0,0.0,0.0,0.0,0.0,0.0,0.0,0.0,0.0,0.0,0.0,0.0,0.0,0.0,0.0,0.0,0.0,0.0,0.0,0.0,2.4301,2.4424,0.0,0.0,0.0,0.0,0.0,0.0,0.0,0.0,0.0,0.0,0.0,0.0,0.0,0.0,0.0,0.0,0.0,0.0,0.0,0.0,0.0,0.0,0.0,0.0,0.0,0.0,2.5364,2.5335,2.533,2.5303,2.5293,2.547,2.6176,2.7121,2.8099,2.899,2.9862,3.0682,3.0896,3.0873,3.0825,3.0806,3.0804,3.0788,0.0,3.0697,3.0678,0.0,2.9737,2.9706,0.0,2.8583,2.8183,2.8129,2.788,2.7195,2.6839,2.6573,2.627,2.6385,2.655,2.6647,2.6567,2.6856,2.7711,2.7162,2.698,2.7282,2.6759,2.6028,2.5174,2.4358,2.3403,2.2325,2.2433,2.1801,2.0547,2.0442,2.0141,1.9693,0.0,0.0,1.8016,1.7292,1.6862,1.6599,1.6323,1.5938,1.5625,1.4849,1.4438,1.4202,0.0,0.0,0.0,0.0,0.0,0.0,0.0,0.0,0.0,0.0,2.1972,2.2243,0.0,0.0,0.0,0.0,0.0,0.0,0.0,0.0,0.0,0.0,2.4524,2.4554,0.0,0.0,0.0,0.0,0.0,0.0,0.0,0.0,0.0,0.0,0.0,0.0,0.0,0.0,0.0,0.0,0.0,0.0,0.0,0.0,0.0,0.0,0.0,0.0,0.0,0.0,2.5434,2.5479,2.5529,2.5542,2.5667,2.6408,2.7249,2.8119,2.8967,2.9869,3.0602,3.0779,3.0859,3.0894,3.0892,3.0841,0.0,0.0,0.0,3.0665,3.0568,3.0267,0.0,2.9737,0.0,0.0,0.0,0.0,2.8183,0.0,0.0,0.0,0.0,0.0,0.0,0.0,0.0,0.0,2.761,2.7827,2.7807,2.7386,2.6721,2.619,2.5893,2.5766,2.5333,2.4601,2.4182,2.3703,2.3034,2.1975,2.1339,2.098,0.0,0.0,1.9656,1.9694,1.9251,1.8464,1.7797,1.7388,1.7067,1.6054,1.5389,1.4874,0.0,0.0,0.0,0.0,0.0,0.0,0.0,2.3063,2.3342,2.3244,2.3607,2.379,2.3591,2.3927,2.4312,0.0,0.0,0.0,0.0,0.0,0.0,0.0,0.0,0.0,0.0,0.0,0.0,0.0,0.0,0.0,0.0,0.0,0.0,0.0,0.0,0.0,0.0,0.0,0.0,0.0,0.0,0.0,0.0,0.0,0.0,0.0,0.0,0.0,0.0,0.0,2.5522,2.5551,2.5593,2.5593,2.5765,2.6637,2.7528,2.8377,2.9217,3.0117,3.0795,3.0795,3.0829,3.0841,3.0845,0.0,0.0,0.0,3.076,3.0685,3.0614,0.0,0.0,0.0,0.0,0.0,0.0,0.0,0.0,0.0,0.0,0.0,0.0,0.0,0.0,0.0,0.0,0.0,2.8942,2.8498,2.8061,2.7458,2.672,2.6232,2.5951,2.5991,2.554,2.4719,2.4494,2.4041,2.3452,2.2698,2.219,2.1807,2.1497,0.0,1.9878,1.9695,1.9195,1.848,1.7547,1.6979,1.6623,1.5344,1.4649,1.4214,0.0,0.0,0.0,0.0,0.0,0.0,0.0,2.3971,2.4382,2.4261,2.4891,2.5029,2.4194,2.4586,2.4904,0.0,0.0,0.0,0.0,0.0,0.0,0.0,0.0,0.0,0.0,0.0,0.0,0.0,0.0,0.0,0.0,0.0,0.0,0.0,0.0,0.0,0.0,0.0,0.0,0.0,0.0,0.0,0.0,0.0,0.0,0.0,0.0,0.0,0.0,0.0,2.5582,2.5605,2.5603,2.5735,2.6074,2.6932,2.7792,2.868,2.9537,3.0286,3.0798,3.0798,3.0798,3.0801,3.0807,3.0794,0.0,0.0,3.076,3.0672,3.0618,0.0,0.0,0.0,0.0,0.0,0.0,0.0,0.0,0.0,0.0,0.0,0.0,0.0,0.0,0.0,0.0,0.0,2.981,2.8857,2.8191,2.7688,2.7152,2.6632,2.6257,2.6297,2.5834,2.4895,2.4883,2.4517,2.3891,2.3416,2.2948,2.2398,2.162,0.0,0.0,1.9302,1.8851,1.8351,1.7431,1.6825,1.637,1.5102,1.4489,1.4116,0.0,0.0,0.0,0.0,0.0,0.0,0.0,2.5372,2.5435,2.5354,2.5484,2.5513,2.5343,2.513,2.4993,0.0,0.0,0.0,0.0,0.0,0.0,0.0,0.0,0.0,0.0,0.0,0.0,0.0,0.0,0.0,0.0,0.0,0.0,0.0,0.0,0.0,0.0,0.0,0.0,0.0,0.0,0.0,0.0,0.0,0.0,0.0,0.0,0.0,0.0,0.0,0.0,2.5595,2.5605,2.6191,2.702,2.7832,0.0,0.0,3.043,3.0742,3.0798,3.0798,3.0798,3.0798,3.0801,0.0,0.0,3.0651,3.0626,3.0548,3.0371,3.0155,0.0,0.0,0.0,0.0,0.0,0.0,0.0,0.0,0.0,0.0,0.0,0.0,0.0,0.0,0.0,0.0,0.0,2.8521,2.8509,2.833,2.8257,2.8068,2.7709,2.7713,2.7395,2.6823,2.6723,2.6498,2.604,2.4937,2.385,2.2857,0.0,0.0,0.0,2.0068,1.9703,1.9141,1.8896,1.8517,1.81,1.7145,1.6683,1.6362,0.0,0.0,0.0,0.0,0.0,0.0,2.5522,2.5574,2.5598,2.5561,2.5574,2.5598,2.5561,2.5402,2.5271,2.5187,0.0,0.0,0.0,0.0,0.0,0.0,0.0,0.0,0.0,0.0,0.0,0.0,0.0,0.0,0.0,0.0,0.0,0.0,0.0,0.0,0.0,0.0,0.0,0.0,0.0,0.0,0.0,0.0,0.0,0.0,0.0,0.0,0.0,0.0,0.0,0.0,2.6264,2.7026,0.0,0.0,2.882,2.9682,3.0511,3.0735,3.074,3.0793,3.0769,3.0745,3.0782,0.0,3.0714,3.0672,3.0563,3.0462,3.0367,3.0267,3.0099,0.0,0.0,0.0,0.0,0.0,0.0,0.0,0.0,0.0,0.0,0.0,0.0,0.0,0.0,0.0,0.0,2.92,2.9236,2.9313,2.8798,2.8313,2.7894,2.7832,2.7576,2.7064,2.6667,2.6414,2.6289,2.5387,2.4354,2.3112,0.0,0.0,0.0,1.9792,1.9434,1.9068,1.8387,1.788,1.7451,1.6476,1.5889,1.5552,0.0,0.0,0.0,0.0,0.0,2.5637,2.5637,2.5603,2.5603,2.5634,2.5637,2.5634,2.5629,2.559,2.5508,2.5395,2.5395,0.0,0.0,0.0,0.0,0.0,0.0,0.0,0.0,0.0,0.0,0.0,0.0,0.0,0.0,0.0,0.0,0.0,0.0,0.0,0.0,0.0,0.0,0.0,0.0,0.0,0.0,0.0,0.0,0.0,0.0,0.0,0.0,0.0,0.0,0.0,0.0,0.0,0.0,0.0,2.918,2.9985,3.0547,3.071,3.0691,3.0716,3.0685,3.0652,0.0,0.0,3.0595,3.0568,3.0443,3.0317,3.0302,3.015,2.9977,0.0,0.0,2.899,0.0,0.0,0.0,0.0,0.0,0.0,0.0,0.0,0.0,0.0,0.0,0.0,0.0,3.0441,3.0258,3.0137,2.9566,2.9021,2.8608,2.8407,2.7908,2.7268,2.6837,2.6564,2.6302,2.5816,2.4862,2.3519,0.0,0.0,0.0,1.9848,1.9443,1.911,1.8087,1.755,1.7179,1.6229,1.5698,1.5471,0.0,0.0,0.0,0.0,0.0,0.0,2.57,2.5636,2.5616,2.5683,2.5702,2.5703,2.5701,2.57,2.5675,2.5593,2.5473,0.0,0.0,0.0,0.0,0.0,0.0,0.0,0.0,0.0,0.0,2.5492,2.551,0.0,0.0,0.0,0.0,0.0,0.0,0.0,0.0,0.0,0.0,0.0,0.0,0.0,0.0,0.0,0.0,0.0,0.0,0.0,0.0,0.0,0.0,0.0,0.0,2.8049,2.9405,0.0,3.0054,3.0697,3.069,3.069,3.0664,3.0543,3.0498,3.0481,0.0,0.0,3.037,3.0222,3.0196,3.0177,3.0113,2.9715,2.9399,2.9399,2.9079,0.0,0.0,0.0,0.0,0.0,0.0,0.0,0.0,0.0,0.0,0.0,0.0,0.0,0.0,3.2206,3.1653,3.0729,3.0733,3.0598,3.0312,2.9623,2.8853,2.7973,2.7842,2.7377,2.6658,2.6327,2.5465,0.0,0.0,0.0,0.0,2.0625,2.0143,1.9518,1.8586,1.8114,1.791,1.7176,1.6908,1.6839,0.0,0.0,0.0,0.0,0.0,0.0,0.0,2.5601,2.5601,2.5629,2.5627,2.5627,2.5633,2.5661,2.5683,2.5664,2.5631,0.0,0.0,0.0,0.0,0.0,0.0,0.0,0.0,0.0,2.5551,2.5566,2.5561,2.5561,2.5566,0.0,0.0,0.0,0.0,0.0,0.0,0.0,0.0,0.0,0.0,0.0,0.0,0.0,0.0,0.0,0.0,0.0,0.0,0.0,0.0,0.0,0.0,0.0,0.0,3.0075,3.0464,3.0698,3.0642,3.0593,3.0539,3.0518,3.0434,3.0372,3.0383,0.0,3.0247,3.0216,3.0013,2.9864,2.9817,2.9588,2.9399,2.9399,2.9172,0.0,0.0,0.0,0.0,0.0,0.0,0.0,0.0,0.0,0.0,0.0,0.0,0.0,0.0,3.2613,3.2153,3.1294,3.0675,3.0176,2.9931,2.8853,2.8091,2.7617,2.6985,2.6602,2.6314,2.5735,0.0,0.0,0.0,0.0,0.0,2.0236,1.9557,1.8834,1.8355,1.7823,1.7245,1.6978,1.6908,1.6908,0.0,0.0,0.0,0.0,0.0,0.0,0.0,2.5574,2.5574,2.5609,2.5586,2.5566,2.56,2.5637,2.567,2.5696,2.5702,0.0,0.0,0.0,0.0,0.0,0.0,0.0,0.0,2.5609,2.5609,2.5642,2.5639,2.5639,2.5642,2.5645,2.5668,0.0,0.0,0.0,0.0,0.0,0.0,0.0,0.0,0.0,2.5605,0.0,0.0,0.0,0.0,0.0,0.0,0.0,0.0,0.0,0.0,0.0,0.0,0.0,3.0587,3.0579,0.0,3.0482,3.0441,3.0381,3.0302,0.0,0.0,0.0,2.9969,2.9969,2.9746,2.9551,2.9551,2.9378,2.9254,2.9254,2.9038,0.0,0.0,0.0,0.0,0.0,0.0,0.0,0.0,0.0,0.0,0.0,0.0,0.0,0.0,0.0,3.2664,3.1921,3.1175,3.0598,3.019,2.9373,2.8725,2.826,2.7351,2.685,2.6564,2.5469,0.0,0.0,0.0,0.0,0.0,2.0584,2.0063,1.9552,1.9079,1.8623,1.8037,1.7774,1.7638,1.7432,0.0,0.0,0.0,0.0,0.0,0.0,0.0,2.5531,2.5518,2.5576,2.5535,2.5515,2.5585,2.5593,2.5609,2.5681,0.0,0.0,0.0,0.0,0.0,0.0,0.0,0.0,0.0,2.5645,2.5645,2.5709,2.5705,2.5705,2.5709,2.5693,2.5709,2.5693,2.5705,0.0,0.0,0.0,0.0,0.0,2.5691,2.5654,0.0,0.0,0.0,0.0,0.0,0.0,0.0,0.0,0.0,0.0,0.0,0.0,0.0,0.0,0.0,0.0,0.0,3.0386,3.0328,3.0152,3.0094,3.0045,2.9921,0.0,0.0,2.9608,2.9455,2.9293,2.9272,2.9097,2.8957,2.8957,2.8694,0.0,0.0,0.0,0.0,0.0,0.0,0.0,0.0,0.0,0.0,0.0,0.0,0.0,0.0,0.0,3.3198,3.2641,3.2145,3.1537,3.0881,3.0762,3.0312,2.956,2.8634,2.7841,2.7152,2.553,0.0,0.0,0.0,0.0,0.0,2.1526,2.1388,2.1262,2.042,2.0096,1.9966,1.9243,1.8777,1.8365,0.0,0.0,0.0,0.0,0.0,0.0,0.0,0.0,0.0,0.0,2.5476,2.543,2.5444,2.5499,2.5535,0.0,0.0,0.0,0.0,0.0,0.0,0.0,0.0,0.0,0.0,2.5681,2.5681,2.5702,2.5702,2.5702,2.5702,2.5703,2.5702,2.5699,2.5698,2.5701,0.0,0.0,0.0,0.0,2.5639,2.5605,0.0,0.0,0.0,0.0,2.665,2.7551,0.0,0.0,0.0,0.0,0.0,0.0,0.0,0.0,3.0588,3.0519,3.0367,0.0,3.0147,3.0123,3.0015,2.9937,0.0,0.0,0.0,0.0,0.0,2.9188,2.9082,2.8779,2.8536,2.8536,2.8484,0.0,0.0,0.0,0.0,0.0,0.0,0.0,0.0,0.0,0.0,0.0,0.0,0.0,0.0,0.0,3.3351,3.2803,3.2074,3.1637,3.1321,3.0222,2.956,2.9373,2.8352,2.7525,2.6869,2.5445,0.0,0.0,0.0,0.0,2.1862,2.1686,2.1221,2.0613,2.042,1.9901,1.9243,1.9044,1.8633,1.8037,0.0,0.0,0.0,0.0,0.0,0.0,0.0,0.0,0.0,0.0,0.0,2.5339,2.5321,2.5426,0.0,0.0,0.0,0.0,0.0,0.0,0.0,0.0,0.0,0.0,2.5703,2.5703,2.5703,2.5703,2.5703,2.5703,2.5703,2.5703,2.5703,2.5702,2.5702,2.5703,0.0,0.0,0.0,0.0,2.5576,0.0,0.0,0.0,0.0,0.0,2.7709,2.8425,0.0,2.9709,3.0133,3.05,0.0,0.0,0.0,0.0,3.0458,3.0336,3.0253,3.0213,3.0152,3.0003,2.9907,2.9841,2.9825,0.0,0.0,0.0,0.0,2.892,2.8755,2.8518,0.0,2.838,0.0,0.0,0.0,0.0,0.0,0.0,0.0,0.0,0.0,0.0,0.0,0.0,0.0,0.0,0.0,0.0,3.3523,3.3245,3.2422,3.1766,3.1146,3.019,2.9651,2.9651,2.8739,2.7913,2.7247,2.5881,2.476,0.0,0.0,0.0,2.1862,2.1675,2.1273,2.0869,2.0764,2.0431,2.0031,2.0031,1.9628,1.91,0.0,0.0,0.0,0.0,0.0,0.0,0.0,0.0,0.0,0.0,0.0,0.0,0.0,0.0,0.0,0.0,0.0,0.0,0.0,0.0,0.0,0.0,0.0,2.5683,2.5683,2.5683,2.5683,2.5703,2.5682,2.5682,2.5682,2.5683,2.5684,2.5683,2.5703,2.57,0.0,0.0,0.0,0.0,2.5659,0.0,0.0,0.0,0.0,0.0,0.0,0.0,0.0,3.0197,3.0458,3.0499,3.0499,0.0,0.0,0.0,0.0,0.0,3.006,3.0138,3.0152,2.9859,2.979,2.9773,2.9701,0.0,0.0,0.0,0.0,0.0,0.0,0.0,0.0,0.0,0.0,0.0,0.0,0.0,0.0,0.0,0.0,0.0,0.0,0.0,0.0,0.0,0.0,0.0,0.0,0.0,0.0,3.3607,3.2656,3.1781,3.0821,3.0416,3.0111,3.005,2.9261,2.8496,2.7749,2.6494,2.5146,0.0,0.0,0.0,2.1937,2.1526,2.14,2.1336,2.1221,2.1221,2.1221,2.1221,2.0948,2.0423,0.0,0.0,0.0,0.0,0.0,0.0,0.0,0.0,0.0,0.0,0.0,0.0,0.0,0.0,0.0,0.0,0.0,0.0,0.0,0.0,0.0,0.0,2.559,2.562,2.562,2.562,2.5642,2.5705,2.5642,2.5613,2.5619,2.5619,2.5612,2.5629,2.5664,2.5648,2.5539,0.0,0.0,2.557,2.6242,0.0,0.0,0.0,0.0,0.0,0.0,0.0,0.0,3.0184,3.0316,3.0428,3.0479,0.0,0.0,0.0,0.0,0.0,2.9867,2.9851,2.9853,2.9737,2.972,2.9701,2.9701,0.0,0.0,0.0,0.0,0.0,0.0,0.0,0.0,0.0,0.0,0.0,0.0,0.0,0.0,0.0,0.0,0.0,0.0,0.0,0.0,0.0,0.0,0.0,0.0,0.0,0.0,3.3005,3.1838,3.1146,3.097,3.0687,3.0326,2.9822,2.9588,2.8739,2.7387,2.6627,2.5514,0.0,0.0,2.2235,2.2123,2.1486,2.1221,2.1221,2.1221,2.1221,2.1221,2.1221,2.0828,2.0222,0.0,0.0,0.0,0.0,0.0,0.0,0.0,0.0,0.0,0.0,0.0,0.0,0.0,0.0,0.0,0.0,0.0,0.0,0.0,0.0,0.0,2.5393,2.5486,2.5561,2.5609,2.5609,2.5613,2.5642,2.5625,2.5598,2.5601,2.5605,2.5582,2.555,2.5589,2.5795,2.6146,2.613,2.6389,2.6818,0.0,0.0,0.0,0.0,0.0,0.0,0.0,0.0,0.0,0.0,3.0196,3.0216,3.0182,0.0,0.0,0.0,0.0,0.0,2.9715,2.9626,2.9532,2.9272,2.9272,2.9272,2.9086,0.0,0.0,0.0,0.0,0.0,0.0,0.0,0.0,0.0,0.0,0.0,0.0,0.0,0.0,0.0,0.0,0.0,0.0,0.0,0.0,0.0,0.0,0.0,0.0,0.0,0.0,0.0,3.2191,3.1652,3.1379,3.097,3.0433,2.9713,2.9602,2.8759,2.7308,2.701,2.588,2.406,0.0,2.2739,2.2669,2.2034,2.1862,2.2093,2.205,2.1984,2.2007,2.2082,2.1801,2.1322,0.0,0.0,0.0,0.0,0.0,0.0,0.0,0.0,0.0,0.0,0.0,0.0,0.0,0.0,0.0,0.0,0.0,0.0,0.0,0.0,2.5283,2.5233,2.5348,2.5439,2.5551,2.5561,2.5591,2.5576,2.5566,2.5542,2.5537,2.5522,2.5613,2.577,2.5771,2.6202,2.6955,2.6892,2.7248,2.7874,0.0,0.0,0.0,0.0,0.0,0.0,0.0,0.0,0.0,0.0,0.0,0.0,0.0,0.0,0.0,2.9836,2.9698,2.9551,2.9551,2.9491,2.9304,2.8902,0.0,2.8925,2.8554,0.0,0.0,0.0,0.0,0.0,0.0,0.0,0.0,0.0,0.0,0.0,0.0,0.0,0.0,0.0,0.0,0.0,0.0,0.0,0.0,0.0,0.0,0.0,0.0,0.0,0.0,0.0,3.2413,3.2064,3.1667,3.1014,3.0372,2.9789,2.9665,2.8842,2.7396,2.7396,2.6343,2.4478,2.3974,2.3666,2.3597,2.2823,2.2718,2.3001,2.2936,2.2857,2.2867,2.2878,2.2711,2.2442,0.0,0.0,0.0,0.0,0.0,0.0,0.0,0.0,0.0,0.0,0.0,0.0,0.0,0.0,0.0,0.0,0.0,0.0,0.0,0.0,2.5031,2.5019,2.5084,2.5225,2.5403,2.5485,2.5506,2.5506,2.543,2.5382,2.5329,2.5321,2.5755,2.6516,2.6524,2.6978,2.7717,2.7708,2.7723,2.7783,2.8668,0.0,0.0,0.0,0.0,0.0,0.0,0.0,0.0,0.0,0.0,0.0,0.0,0.0,2.9626,2.9626,2.9531,2.9409,2.9409,2.9407,2.9304,2.891,2.8957,0.0,2.8428,2.8299,0.0,0.0,0.0,0.0,0.0,0.0,0.0,0.0,0.0,0.0,0.0,0.0,0.0,0.0,0.0,0.0,0.0,0.0,0.0,0.0,0.0,0.0,0.0,0.0,0.0,0.0,0.0,3.1667,3.1537,3.0404,3.0007,3.0251,2.9789,2.8927,2.7659,2.7659,2.6948,2.5631,2.5192,2.4963,2.4861,2.3862,2.3411,2.3427,2.3398,2.3376,2.3379,2.3112,2.3009,2.2949,0.0,0.0,0.0,0.0,0.0,0.0,0.0,0.0,0.0,0.0,0.0,0.0,0.0,0.0,0.0,0.0,0.0,0.0,0.0,0.0,2.4936,2.4942,2.5006,2.5072,2.5152,2.5254,2.5303,2.5312,2.5284,2.5543,2.6041,2.6051,2.6502,2.7294,2.7338,2.7777,2.8492,2.8528,2.8835,2.9347,2.9697,2.9755,0.0,0.0,0.0,0.0,0.0,0.0,0.0,0.0,2.9662,2.9698,2.9626,2.955,2.9471,2.9471,2.945,2.9386,2.924,2.9115,2.8966,2.8676,2.8669,0.0,0.0,0.0,0.0,0.0,0.0,0.0,0.0,0.0,0.0,0.0,0.0,0.0,0.0,0.0,0.0,0.0,0.0,0.0,0.0,0.0,0.0,0.0,0.0,0.0,0.0,0.0,0.0,3.2398,3.2231,3.2104,3.2048,3.1233,3.0703,3.0418,2.9449,2.8642,2.8023,2.7602,2.6791,2.5762,2.5307,2.5242,2.5481,2.4809,2.4466,2.44,2.4371,2.4393,2.4502,2.4371,2.4147,2.395,0.0,0.0,0.0,0.0,0.0,0.0,0.0,0.0,0.0,0.0,0.0,0.0,0.0,0.0,0.0,0.0,0.0,0.0,2.4779,2.4785,2.4814,2.4832,2.4902,2.5075,2.5367,2.5463,2.5535,2.5584,2.5819,2.6247,2.684,2.6833,2.7261,2.8045,2.8122,2.8568,2.9306,2.9371,2.9723,3.0247,3.0228,3.0114,0.0,0.0,0.0,0.0,0.0,0.0,0.0,0.0,2.9532,2.9531,2.9429,2.9407,2.9407,2.9386,2.9286,2.9181,2.9026,2.8855,2.8694,0.0,0.0,0.0,0.0,0.0,0.0,0.0,0.0,0.0,0.0,0.0,0.0,0.0,0.0,0.0,0.0,0.0,0.0,0.0,0.0,0.0,0.0,0.0,0.0,0.0,0.0,0.0,0.0,0.0,0.0,0.0,3.2398,3.2342,3.2287,3.1652,3.1175,3.0777,2.9484,2.8661,2.8138,2.7709,2.7048,2.6296,2.5975,2.605,2.6317,2.5782,2.5656,2.5769,2.535,2.5363,2.5606,2.5289,2.484,2.454,0.0,0.0,0.0,0.0,0.0,0.0,0.0,0.0,0.0,0.0,0.0,0.0,0.0,0.0,0.0,0.0,0.0,0.0,2.45,2.4566,2.4629,2.4726,2.4768,2.5253,2.619,2.6223,2.6287,2.64,2.7204,2.7597,2.7616,2.7547,2.7985,2.8827,2.8874,2.9393,3.0204,3.0204,3.0199,3.0194,3.0037,3.0041,3.0094,0.0,0.0,0.0,0.0,0.0,0.0,0.0,2.9407,2.9407,2.9407,2.9407,2.9386,2.9323,2.9071,2.879,2.8724,2.87,2.8578,0.0,0.0,0.0,0.0,0.0,0.0,0.0,0.0,0.0,0.0,0.0,0.0,0.0,0.0,0.0,0.0,0.0,0.0,0.0,0.0,0.0,0.0,0.0,0.0,0.0,0.0,0.0,0.0,0.0,0.0,0.0,3.2398,3.2287,3.1981,3.1349,3.1175,3.1467,3.0133,2.903,2.8079,2.8079,2.7868,2.7523,2.7523,2.7523,2.7469,2.693,2.7022,2.7384,2.6244,2.6253,2.6648,2.56,2.4871,2.454,0.0,0.0,0.0,0.0,0.0,0.0,0.0,0.0,0.0,0.0,0.0,0.0,0.0,0.0,0.0,0.0,0.0,0.0,2.4566,2.4599,2.4909,2.5571,2.564,2.6064,2.6934,2.7619,2.7698,2.7167,2.7419,2.7837,2.8441,2.8417,2.8884,2.9713,2.9775,2.9975,3.0204,3.0213,3.0118,2.9992,2.9992,2.9946,2.9867,0.0,0.0,0.0,0.0,0.0,0.0,0.0,0.0,0.0,2.9407,2.9407,2.9407,2.9386,2.9262,2.9115,2.8962,2.8639,0.0,0.0,0.0,0.0,0.0,0.0,0.0,0.0,0.0,0.0,0.0,0.0,0.0,0.0,0.0,0.0,0.0,0.0,0.0,0.0,0.0,0.0,0.0,0.0,0.0,0.0,0.0,0.0,0.0,0.0,0.0,0.0,3.2302,3.2247,3.215,3.1754,3.1394,3.1029,2.995,2.9331,2.9093,2.861,2.8039,2.7523,2.7523,2.7523,2.7496,2.7408,2.7873,2.86,2.74,2.6886,2.673,2.5957,2.5221,2.454,0.0,0.0,0.0,0.0,0.0,0.0,0.0,0.0,0.0,0.0,2.4534,2.45,0.0,0.0,0.0,0.0,0.0,0.0,2.5213,2.5227,2.5603,2.6541,2.655,2.6927,2.7837,2.8717,2.8938,2.8446,2.8495,2.8757,2.9285,2.9307,2.9599,3.0109,3.0171,3.0204,3.0204,3.0213,3.0147,3.0071,3.0007,2.9931,2.9817,0.0,0.0,0.0,0.0,0.0,0.0,0.0,0.0,0.0,2.9365,2.9365,2.9344,2.9156,2.9003,2.8803,2.854,2.8255,0.0,0.0,0.0,0.0,0.0,0.0,0.0,0.0,0.0,0.0,0.0,0.0,0.0,0.0,0.0,0.0,0.0,0.0,0.0,0.0,0.0,0.0,0.0,0.0,0.0,0.0,0.0,0.0,0.0,0.0,0.0,0.0,3.2342,3.2247,3.215,3.194,3.1582,3.1087,3.0524,3.0147,2.9889,2.8661,2.7908,2.7536,2.7771,2.7863,2.7861,2.8164,2.8749,2.9461,2.8387,2.762,2.7128,2.6362,2.5464,2.454,0.0,0.0,2.4707,2.4707,0.0,0.0,0.0,0.0,0.0,0.0,2.4534,2.4517,0.0,0.0,0.0,2.4794,2.4817,2.5246,2.6243,2.6237,2.6624,2.7571,2.7547,2.7932,2.879,2.9529,2.9888,2.9888,2.9956,3.0007,3.0022,3.0064,3.0109,3.0109,3.0171,3.0204,3.0204,3.0204,3.0213,3.0253,3.0041,2.9931,2.9853,2.9662,0.0,0.0,0.0,0.0,0.0,0.0,0.0,0.0,2.9323,2.9302,2.9218,2.8839,2.8507,2.8174,2.7946,0.0,0.0,0.0,0.0,0.0,0.0,0.0,0.0,0.0,0.0,0.0,0.0,0.0,0.0,0.0,0.0,0.0,0.0,0.0,0.0,0.0,0.0,0.0,0.0,0.0,0.0,0.0,0.0,0.0,0.0,0.0,0.0,0.0,3.2342,3.2247,3.1996,3.194,3.1826,0.0,3.1409,3.1087,3.0329,2.8532,2.759,2.7562,2.8137,2.8412,2.8543,2.9061,2.9622,3.0034,2.9155,2.8359,2.7683,2.6753,2.5611,2.454,0.0,0.0,2.4749,2.4707,0.0,0.0,0.0,0.0,0.0,0.0,0.0,0.0,0.0,0.0,0.0,2.5662,2.5718,2.6105,2.7002,2.7047,2.7459,2.8389,2.9017,2.9437,2.9642,2.9813,2.9888,2.9888,2.9956,3.0022,3.0087,3.0079,3.0123,3.0171,3.0185,3.0204,3.0204,3.0204,3.0128,2.9969,2.9769,2.9716,2.9716,2.9532,2.9415,0.0,0.0,0.0,0.0,0.0,0.0,0.0,2.924,2.9218,2.92,2.9112,2.8863,2.8703,2.9214,2.8945,0.0,0.0,0.0,0.0,0.0,0.0,0.0,0.0,0.0,0.0,0.0,0.0,0.0,0.0,0.0,0.0,0.0,0.0,0.0,0.0,0.0,0.0,0.0,0.0,0.0,0.0,0.0,0.0,0.0,0.0,0.0,3.2094,3.1996,3.1898,3.1841,3.1712,3.1582,0.0,3.097,3.0329,2.969,2.9268,2.8519,2.7562,2.8137,2.8647,2.9144,2.9691,3.0177,3.0441,2.9032,2.8108,2.7383,2.6019,2.5031,2.454,0.0,0.0,0.0,0.0,0.0,0.0,0.0,0.0,0.0,0.0,0.0,0.0,0.0,2.5681,0.0,0.0,2.6692,2.7074,2.8056,2.804,2.8373,2.9225,2.968,2.9888,2.9888,2.9888,2.9924,2.9956,3.0022,3.0072,3.0102,3.0128,3.0171,3.0204,3.0204,3.0204,3.0185,3.0098,3.0,2.9902,2.9716,2.9626,2.9551,2.9436,2.9375,0.0,0.0,0.0,0.0,0.0,0.0,0.0,0.0,0.0,2.9701,2.9544,2.9357,2.9318,2.9751,0.0,0.0,0.0,0.0,0.0,0.0,0.0,0.0,0.0,0.0,0.0,0.0,0.0,0.0,0.0,0.0,0.0,0.0,0.0,0.0,0.0,0.0,0.0,0.0,0.0,0.0,0.0,0.0,0.0,0.0,3.2191,3.215,3.1981,3.194,3.1841,3.1799,3.1727,3.1597,3.1482,3.1161,3.0644,2.995,2.8953,2.8304,2.7968,2.8556,2.9144,2.9732,3.0307,3.0651,3.0761,2.9716,2.8912,2.8119,2.7151,2.634,2.5684,0.0,0.0,0.0,0.0,0.0,0.0,0.0,0.0,0.0,0.0,0.0,0.0,0.0,2.6857,2.7374,0.0,0.0,0.0,2.9084,2.9046,2.9266,2.9886,2.9888,2.9888,2.9888,2.9905,2.994,3.0007,3.0068,0.0,0.0,0.0,0.0,3.0204,3.0157,3.0142,3.0142,2.9921,2.9929,3.004,2.9906,2.9813,2.9788,0.0,0.0,0.0,0.0,2.958,2.9673,3.0356,0.0,0.0,0.0,0.0,3.0441,3.017,3.0041,3.0071,3.0308,0.0,3.0414,0.0,0.0,0.0,0.0,0.0,0.0,0.0,0.0,0.0,0.0,0.0,0.0,0.0,0.0,0.0,0.0,0.0,0.0,0.0,0.0,0.0,0.0,0.0,0.0,0.0,0.0,0.0,3.2191,3.2135,3.2038,3.194,3.1925,3.1883,3.1727,3.1727,3.167,3.1482,3.1409,3.097,3.0269,2.8563,2.8131,2.8605,2.9083,2.9601,3.0103,3.0677,3.0911,3.0823,3.0368,2.9651,2.8924,2.845,2.7799,2.6987,0.0,0.0,0.0,0.0,0.0,0.0,0.0,0.0,0.0,0.0,2.6086,2.646,2.7218,2.7407,2.7748,2.8483,2.854,2.8881,2.9709,0.0,0.0,2.9888,2.9888,2.9888,2.9888,2.9956,2.9988,3.0007,0.0,0.0,0.0,0.0,0.0,3.0185,0.0,2.9937,2.994,2.9716,3.0039,3.0659,3.0478,3.0801,3.137,0.0,0.0,0.0,0.0,0.0,0.0,3.1225,3.1262,0.0,0.0,0.0,0.0,3.1212,3.1016,3.0994,0.0,0.0,0.0,0.0,0.0,0.0,0.0,0.0,0.0,0.0,0.0,0.0,0.0,0.0,0.0,0.0,0.0,0.0,0.0,0.0,0.0,0.0,0.0,0.0,0.0,0.0,0.0,0.0,0.0,0.0,3.2038,3.1898,3.1784,3.1582,3.1597,3.1539,3.1539,3.1539,3.1539,3.1482,3.0896,3.0269,2.9594,2.9323,2.916,2.9268,2.9293,2.9601,3.0103,3.054,3.0609,3.0355,2.9419,2.887,2.8462,2.7637,2.7232,2.6987,0.0,0.0,0.0,0.0,0.0,0.0,0.0,0.0,0.0,0.0,0.0,2.7744,2.8123,2.8578,2.8995,2.9339,2.9358,2.951,2.9869,2.9888,2.9888,2.9888,2.9888,2.9888,2.9888,2.9956,3.0022,3.0072,0.0,0.0,0.0,3.057,3.0587,0.0,0.0,0.0,0.0,3.0859,3.0982,3.1297,3.1094,3.1223,0.0,0.0,0.0,0.0,0.0,0.0,0.0,0.0,0.0,3.2063,3.2063,0.0,0.0,0.0,3.1986,0.0,3.2325,3.2287,0.0,0.0,0.0,0.0,0.0,0.0,0.0,0.0,0.0,0.0,0.0,0.0,0.0,0.0,0.0,0.0,0.0,0.0,0.0,0.0,0.0,0.0,0.0,0.0,0.0,0.0,0.0,3.2602,3.2453,3.2053,3.1727,3.1539,3.1482,3.1482,3.1482,3.1482,3.1482,3.1482,3.1219,3.0896,3.0613,3.0178,2.9751,2.9382,2.9639,3.0012,3.0423,3.0594,3.0609,3.0368,2.9754,2.9431,2.9353,2.8791,2.8633,2.8462,0.0,0.0,0.0,0.0,0.0,0.0,0.0,0.0,0.0,0.0,0.0,2.8771,2.8979,0.0,0.0,0.0,2.9888,2.9888,2.9888,2.9888,2.9888,2.9888,2.9888,2.9888,2.9888,2.9972,3.0136,0.0,0.0,0.0,3.1316,3.1205,3.128,0.0,3.1183,0.0,0.0,0.0,0.0,0.0,0.0,0.0,0.0,0.0,0.0,0.0,0.0,0.0,0.0,0.0,0.0,0.0,0.0,0.0,0.0,0.0,0.0,0.0,0.0,0.0,0.0,0.0,0.0,0.0,0.0,0.0,0.0,0.0,0.0,0.0,0.0,0.0,0.0,0.0,0.0,0.0,0.0,0.0,0.0,0.0,0.0,0.0,0.0,0.0,0.0,0.0,0.0,3.2841,3.2547,3.2038,3.167,3.1482,3.1482,3.1482,3.1482,3.1482,3.1482,3.1482,3.1482,3.1498,3.1486,3.1065,3.0588,3.0121,3.0086,3.0316,3.0698,3.0622,3.0533,3.0292,3.0075,3.0011,3.0011,2.9869,2.9792,2.9714,0.0,0.0,0.0,0.0,0.0,0.0,0.0,0.0,0.0,0.0,0.0,2.8979,2.9737,2.9869,2.9888,2.9888,2.9888,2.9888,2.9888,2.9888,2.9888,2.9888,2.9888,0.0,2.9888,3.0022,0.0,0.0,0.0,0.0,3.1952,3.2009,3.2299,3.2767,3.2005,3.1689,3.1704,0.0,0.0,0.0,0.0,0.0,0.0,0.0,0.0,0.0,0.0,0.0,0.0,0.0,0.0,0.0,0.0,0.0,0.0,0.0,0.0,0.0,0.0,0.0,0.0,0.0,0.0,0.0,0.0,0.0,0.0,0.0,0.0,0.0,0.0,0.0,0.0,0.0,0.0,0.0,0.0,0.0,0.0,0.0,0.0,0.0,0.0,0.0,0.0,0.0,0.0,3.2547,3.1898,3.1655,3.1539,3.1482,3.1482,3.1482,3.1482,3.1482,3.1482,3.1482,3.1482,3.1486,3.15,3.2043,3.2291,3.219,3.0735,3.0316,3.0698,3.052,3.0305,3.0075,2.9869,2.9792,2.9792,2.9792,2.9792,2.9714,0.0,0.0,0.0,0.0,0.0,0.0,0.0,0.0,0.0,0.0,0.0,0.0,0.0,2.994,2.9924,2.9956,2.9921,2.9888,2.9888,2.9888,2.9888,2.9888,2.9787,0.0,0.0,0.0,0.0,0.0,0.0,3.1864,3.2598,3.2479,3.2804,3.3442,3.2826,3.2728,3.3055,3.2952,0.0,0.0,0.0,0.0,0.0,0.0,0.0,0.0,0.0,0.0,0.0,0.0,0.0,0.0,0.0,0.0,0.0,0.0,0.0,0.0,0.0,0.0,0.0,0.0,0.0,0.0,0.0,0.0,0.0,0.0,0.0,0.0,0.0,0.0,0.0,0.0,0.0,0.0,0.0,0.0,0.0,0.0,0.0,0.0,0.0,0.0,0.0,0.0,0.0,0.0,3.2342,3.1811,3.1482,3.1482,3.1482,3.1482,3.1482,3.1482,3.1482,3.1482,3.1482,3.1752,3.2137,3.1832,3.1843,3.2027,3.0917,3.0777,3.1172,3.0659,3.0228,2.9856,2.9869,2.9792,2.9792,2.9792,2.9792,2.9842,0.0,0.0,0.0,0.0,0.0,0.0,0.0,0.0,0.0,0.0,0.0,0.0,0.0,0.0,2.9924,2.9855,2.9839,2.9805,2.9735,2.9753,2.977,2.977,2.9908,0.0,0.0,0.0,0.0,0.0,0.0,0.0,0.0,3.316,3.3353,3.377,3.3519,3.3549,0.0,0.0,0.0,3.3807,0.0,0.0,3.3807,0.0,0.0,0.0,0.0,0.0,0.0,0.0,0.0,0.0,0.0,0.0,0.0,0.0,0.0,0.0,0.0,0.0,0.0,0.0,0.0,0.0,0.0,0.0,0.0,0.0,0.0,0.0,0.0,0.0,0.0,0.0,0.0,0.0,0.0,0.0,0.0,0.0,0.0,0.0,0.0,0.0,0.0,0.0,0.0,0.0,3.2216,3.1739,3.1482,3.1482,3.1482,3.1482,3.1482,3.1482,3.1482,3.1482,3.1482,3.2003,3.2796,3.2315,3.2419,3.3018,3.1911,3.1307,3.1009,3.0508,3.0075,2.9792,2.9792,2.9792,2.9792,2.9792,2.9905,3.0118,0.0,0.0,0.0,0.0,0.0,0.0,0.0,0.0,0.0,0.0,0.0,0.0,0.0,0.0,0.0,2.9626,2.9662,2.9626,2.9414,2.9491,2.9549,2.953,3.0312,0.0,0.0,0.0,0.0,0.0,0.0,0.0,0.0,0.0,3.4049,3.3807,3.4074,3.4049,3.3807,0.0,3.3807,3.3807,0.0,3.3807,3.3807,0.0,0.0,0.0,3.3788,3.3788,0.0,0.0,0.0,0.0,0.0,0.0,0.0,0.0,0.0,0.0,0.0,0.0,0.0,0.0,0.0,0.0,0.0,0.0,0.0,0.0,0.0,0.0,0.0,0.0,0.0,0.0,0.0,0.0,0.0,0.0,0.0,0.0,0.0,0.0,0.0,0.0,0.0,0.0,0.0,3.2272,3.1539,3.1482,3.1482,3.1482,3.1482,3.1482,3.1482,3.1482,3.1482,3.1482,3.1497,3.2243,3.3499,3.3514,3.4185,3.5294,3.3616,3.1769,3.0075,3.0075,3.0011,2.9792,2.9792,2.9792,2.9792,2.9817,3.0156,3.062,0.0,0.0,0.0,0.0,0.0,0.0,0.0,0.0,0.0,0.0,0.0,0.0,0.0,0.0,2.9839,2.9754,2.9891,2.9891,2.97,3.0264,3.0508,3.0368,3.1002,3.1635,0.0,0.0,0.0,0.0,0.0,0.0,0.0,0.0,0.0,0.0,3.3868,3.3868,3.3807,3.3807,0.0,0.0,3.3807,3.3807,0.0,0.0,0.0,0.0,0.0,3.3661,0.0,0.0,3.3643,3.3698,0.0,0.0,0.0,0.0,0.0,0.0,3.3605,0.0,0.0,0.0,0.0,0.0,0.0,3.1466,0.0,0.0,0.0,0.0,0.0,0.0,0.0,0.0,0.0,0.0,0.0,0.0,0.0,0.0,0.0,0.0,0.0,0.0,0.0,0.0,3.2104,3.1697,3.1539,3.1482,3.1482,3.1482,3.1482,3.1482,3.1482,3.1482,3.1482,3.1482,3.2018,3.2617,3.33,3.3255,3.3226,3.3115,3.2132,3.0996,2.9869,3.0011,3.0011,2.9792,2.9792,2.9792,2.9842,3.0244,3.0482,3.0721,0.0,0.0,2.8292,2.8807,0.0,0.0,0.0,0.0,0.0,0.0,0.0,0.0,0.0,0.0,0.0,2.9644,2.9681,2.9776,2.9919,3.0385,3.0772,3.0973,3.1647,3.2244,3.2748,0.0,0.0,0.0,0.0,0.0,0.0,0.0,0.0,0.0,3.3807,3.3807,0.0,0.0,0.0,0.0,3.3807,0.0,0.0,3.3753,3.3726,0.0,0.0,0.0,3.3615,3.3577,3.3577,0.0,0.0,0.0,0.0,0.0,0.0,0.0,0.0,0.0,0.0,0.0,0.0,0.0,3.1787,3.1562,3.1351,0.0,0.0,0.0,0.0,0.0,0.0,0.0,0.0,0.0,0.0,0.0,0.0,0.0,0.0,0.0,0.0,0.0,0.0,3.2437,3.1853,3.1482,3.1482,3.1482,3.1482,3.1482,3.1482,3.1482,3.1482,3.1482,3.1482,3.1482,3.2198,3.2796,3.3315,3.351,3.3532,3.3478,3.2205,3.1341,3.0771,3.0216,2.9934,2.9792,2.9792,2.993,3.0168,3.0495,3.0896,3.1373,0.0,0.0,2.8984,2.8984,2.9613,3.0142,0.0,0.0,0.0,0.0,0.0,0.0,0.0,0.0,0.0,0.0,2.9574,2.9717,3.0222,3.0436,3.0803,3.1494,3.2302,3.2742,3.2742,3.2742,0.0,0.0,0.0,0.0,0.0,0.0,0.0,0.0,3.4082,3.4082,0.0,0.0,0.0,3.4045,3.388,3.3807,0.0,0.0,3.3726,0.0,3.3671,3.3671,3.3643,3.352,3.3509,0.0,0.0,0.0,0.0,0.0,3.3382,0.0,0.0,0.0,0.0,0.0,0.0,0.0,3.1908,3.1709,3.1562,0.0,0.0,0.0,0.0,0.0,0.0,0.0,0.0,0.0,0.0,0.0,0.0,0.0,0.0,0.0,0.0,3.3614,3.2986,3.2437,3.1853,3.1482,3.1482,3.1482,3.1482,3.1482,3.1482,3.1482,3.1482,3.1482,3.1511,3.1601,3.2258,3.29,3.3557,3.3947,3.436,3.4787,3.2904,3.2105,3.1901,3.0432,2.9792,2.9804,2.9867,3.0181,3.0633,3.0746,3.1399,3.2227,2.9042,2.9323,2.9471,2.9471,2.9603,2.9769,0.0,0.0,0.0,0.0,0.0,0.0,0.0,0.0,0.0,0.0,3.1374,3.143,3.1395,3.2024,3.2373,3.2375,3.3146,3.3568,3.3568,3.3568,3.3642,0.0,0.0,0.0,0.0,0.0,0.0,0.0,3.5807,3.5807,0.0,0.0,0.0,3.5538,3.4293,0.0,3.3726,3.3643,3.3605,3.352,3.3481,3.3452,3.3452,0.0,3.3509,3.3509,0.0,0.0,0.0,0.0,0.0,0.0,0.0,0.0,0.0,0.0,0.0,0.0,3.2275,3.1715,3.1291,0.0,0.0,0.0,0.0,0.0,0.0,0.0,0.0,0.0,0.0,0.0,0.0,0.0,0.0,0.0,0.0,3.3578,3.2986,3.2437,3.1853,3.1482,3.1482,3.1482,3.1482,3.1482,3.1482,3.1482,3.1482,3.1482,3.1735,3.2332,3.2794,3.3386,3.3928,3.3729,3.3309,3.2648,3.1623,3.0833,3.0292,2.9934,2.9792,2.9829,3.0281,3.052,3.0721,3.1587,3.2039,3.2277,2.9438,2.957,2.9681,2.9787,2.9735,2.983,0.0,0.0,0.0,0.0,0.0,0.0,0.0,0.0,0.0,0.0,0.0,0.0,0.0,0.0,3.2889,3.3183,3.3587,3.3807,3.3807,3.3807,3.4009,3.4412,0.0,0.0,0.0,0.0,0.0,0.0,0.0,0.0,0.0,0.0,3.6256,3.6135,3.5292,0.0,3.4783,3.4353,3.4149,3.4055,3.3597,3.3422,3.3393,3.3481,3.3481,0.0,0.0,3.3605,3.3862,0.0,3.4329,3.4216,0.0,0.0,0.0,3.4297,0.0,0.0,0.0,3.2723,3.2429,3.1856,0.0,0.0,0.0,0.0,0.0,0.0,0.0,0.0,0.0,0.0,0.0,0.0,0.0,0.0,0.0,3.3527,3.2826,3.2007,3.1697,3.1482,3.1482,3.1482,3.1482,3.1482,3.1482,3.1482,3.1482,3.1482,3.1869,3.2527,3.2987,3.3502,3.4105,3.408,3.3811,3.3311,3.2074,3.1281,3.0872,3.0152,2.9955,3.0231,3.0507,3.0771,3.1097,3.1913,3.239,3.2692,2.9448,2.9624,2.9889,3.005,3.0057,3.0321,0.0,0.0,0.0,0.0,0.0,0.0,0.0,0.0,0.0,0.0,0.0,0.0,0.0,0.0,0.0,3.377,3.3807,3.3807,3.3807,3.3954,3.4357,3.499,0.0,0.0,0.0,0.0,0.0,0.0,0.0,0.0,0.0,0.0,0.0,3.6685,0.0,3.6267,3.5957,3.5283,3.4987,3.4824,3.4093,3.3768,3.3737,3.3798,0.0,3.3737,3.3834,3.4083,0.0,0.0,0.0,0.0,0.0,0.0,0.0,0.0,0.0,3.4471,0.0,0.0,0.0,3.2693,0.0,0.0,0.0,0.0,0.0,0.0,0.0,0.0,0.0,0.0,0.0,0.0,0.0,0.0,0.0,3.3266,3.2461,3.1582,3.1482,3.1482,3.1482,3.1482,3.1482,3.1482,3.1482,3.1482,3.1482,3.1482,3.187,3.2646,3.2971,3.3576,3.4283,3.4368,3.4332,3.4113,3.2577,3.1796,3.1589,3.0407,3.0218,3.062,3.0721,3.1085,3.1612,3.2177,3.2679,3.3081,2.9521,2.9817,3.032,3.0342,3.0936,3.1459,0.0,0.0,0.0,0.0,0.0,0.0,0.0,0.0,0.0,0.0,0.0,0.0,3.366,0.0,0.0,3.3807,3.3807,3.3807,3.3807,3.4504,3.4899,3.499,0.0,0.0,0.0,0.0,0.0,0.0,3.8432,0.0,0.0,0.0,3.8303,0.0,3.7745,3.6993,0.0,3.5914,3.5836,3.5696,3.5119,3.4898,3.4916,0.0,3.4898,3.4983,0.0,3.5571,0.0,0.0,0.0,0.0,0.0,0.0,0.0,0.0,3.5566,0.0,0.0,0.0,3.3414,3.3288,0.0,0.0,0.0,0.0,0.0,0.0,0.0,0.0,0.0,0.0,0.0,0.0,0.0,0.0,0.0,0.0,3.164,3.1539,3.1482,3.1482,3.1482,3.1482,3.1482,3.1482,3.1482,3.1482,3.1482,3.1482,3.2035,3.3119,3.3084,3.3588,3.4581,3.3768,3.3017,3.2362,3.1415,3.0709,3.0049,3.0398,3.0557,3.0658,3.1122,3.1637,3.219,3.2767,3.3018,3.3081,3.0798,3.0927,3.1195,3.1306,3.1518,3.1862,0.0,0.0,0.0,0.0,0.0,0.0,0.0,0.0,0.0,0.0,0.0,3.3807,0.0,0.0,0.0,0.0,0.0,0.0,3.4504,3.533,3.5991,3.645,3.6817,0.0,0.0,0.0,0.0,0.0,3.8609,0.0,3.8267,0.0,0.0,0.0,0.0,0.0,0.0,3.6161,3.5508,3.5047,3.4818,3.4729,3.4729,0.0,3.4924,0.0,0.0,0.0,0.0,0.0,0.0,0.0,0.0,0.0,0.0,0.0,0.0,0.0,0.0,0.0,3.4573,0.0,0.0,0.0,0.0,0.0,0.0,0.0,0.0,0.0,0.0,0.0,0.0,0.0,0.0,0.0,0.0,0.0,0.0,0.0,0.0,3.1482,3.1482,3.1482,3.1482,3.1482,3.1482,3.1482,3.1482,3.1781,3.2377,3.3223,3.3372,3.3856,3.4698,3.3659,3.3003,3.2648,3.1402,3.0758,3.0457,3.0527,3.0796,3.1122,3.165,3.2001,3.2277,3.2867,3.3081,3.3081,3.2405,0.0,0.0,0.0,0.0,0.0,0.0,0.0,0.0,0.0,0.0,0.0,3.4137,3.4339,0.0,0.0,0.0,3.4486,0.0,0.0,3.4486,0.0,0.0,0.0,0.0,0.0,3.6909,3.7507,3.7716,0.0,0.0,0.0,0.0,0.0,0.0,3.8364,3.808,0.0,0.0,3.7843,3.772,3.7488,3.7197,3.6365,3.5764,3.5271,3.5063,3.4987,3.4987,3.4987,3.5214,0.0,3.5214,0.0,0.0,0.0,0.0,0.0,3.6131,0.0,0.0,0.0,0.0,0.0,0.0,0.0,0.0,0.0,0.0,0.0,0.0,0.0,0.0,0.0,0.0,0.0,0.0,0.0,0.0,0.0,0.0,0.0,0.0,0.0,0.0,0.0,0.0,0.0,3.1482,3.1482,3.1482,3.1482,3.1482,3.1482,3.1482,3.199,3.2524,3.3176,3.351,3.4039,3.4563,3.3879,3.3437,3.3143,3.1769,3.1211,3.1094,3.0887,3.1135,3.1675,3.2227,3.2453,3.2503,3.2918,3.3081,3.3081,3.4123,3.3491,0.0,0.0,0.0,0.0,0.0,0.0,0.0,0.0,0.0,0.0,0.0,0.0,0.0,0.0,0.0,3.6211,3.6211,0.0,3.6211,0.0,0.0,3.6266,0.0,0.0,0.0,3.7507,0.0,0.0,0.0,0.0,0.0,0.0,0.0,3.8609,3.846,3.8491,3.8201,3.7667,3.7228,3.6464,3.5766,0.0,3.712,3.7306,3.6528,0.0,0.0,3.6232,3.6274,0.0,0.0,0.0,0.0,0.0,0.0,0.0,0.0,0.0,0.0,3.5622,0.0,0.0,0.0,0.0,3.5577,0.0,0.0,0.0,0.0,0.0,0.0,0.0,0.0,0.0,0.0,0.0,0.0,0.0,0.0,0.0,0.0,0.0,0.0,0.0,0.0,0.0,3.1482,3.1482,3.1482,3.1482,3.1482,3.1482,3.1482,3.199,3.2463,3.3018,3.346,3.3974,3.4414,3.4414,3.3962,3.3143,3.2362,3.1883,3.1694,3.1432,3.1687,3.224,3.283,3.3056,3.3056,3.3068,3.3081,3.3081,3.4197,0.0,0.0,0.0,0.0,0.0,0.0,3.4574,0.0,0.0,0.0,0.0,0.0,0.0,3.6303,0.0,0.0,3.6303,3.6303,3.6303,0.0,0.0,0.0,3.7074,0.0,0.0,0.0,0.0,0.0,0.0,0.0,0.0,0.0,0.0,0.0,3.8216,0.0,0.0,0.0,0.0,0.0,3.6539,3.6457,0.0,0.0,3.6207,3.5941,3.5827,0.0,3.5827,3.6045,3.6259,3.6097,3.6416,3.6741,3.6028,3.6045,0.0,0.0,0.0,3.5566,3.5577,0.0,0.0,0.0,0.0,0.0,0.0,0.0,0.0,0.0,0.0,0.0,0.0,0.0,0.0,0.0,0.0,0.0,0.0,0.0,0.0,0.0,0.0,0.0,0.0,0.0,0.0,0.0,3.1482,3.1482,3.1482,3.1482,3.1467,3.1351,3.2241,3.2768,3.2815,3.3704,3.4263,3.4414,3.3825,3.3157,3.2461,3.2038,3.1511,3.1042,3.1644,3.2051,3.2277,3.2855,3.3081,3.3081,3.3081,3.3081,3.3081,3.4197,0.0,0.0,0.0,0.0,0.0,0.0,0.0,0.0,0.0,3.6325,0.0,3.6725,0.0,3.7147,0.0,3.7147,3.7147,3.7147,3.7009,0.0,3.693,3.7312,0.0,0.0,0.0,0.0,0.0,0.0,3.8707,0.0,0.0,0.0,0.0,0.0,0.0,3.7451,0.0,3.7248,0.0,0.0,3.6249,0.0,0.0,3.6088,3.6028,0.0,3.5622,3.5622,3.5622,3.5783,3.6002,3.5711,3.5985,3.635,3.5783,3.5827,3.5958,3.5667,3.552,0.0,3.5503,3.5383,0.0,3.54,0.0,0.0,0.0,0.0,0.0,0.0,0.0,0.0,0.0,0.0,0.0,0.0,3.4448,0.0,0.0,0.0,0.0,0.0,0.0,0.0,0.0,0.0,0.0,0.0,0.0,3.1482,3.1482,3.1467,3.1455,3.1634,3.2458,3.2918,3.3089,3.3972,3.4414,3.4414,3.3879,3.3354,3.2791,3.2345,3.1928,3.1627,3.2009,3.234,3.2554,3.293,3.3081,3.3081,3.3081,3.3081,3.3081,3.4253,3.429,0.0,0.0,3.4309,0.0,0.0,0.0,3.5769,0.0,3.7182,3.7621,3.7581,3.823,3.8707,3.8707,3.8707,0.0,3.8707,3.8336,0.0,0.0,3.7721,3.7542,3.7542,0.0,0.0,0.0,0.0,0.0,0.0,0.0,0.0,0.0,3.8707,0.0,3.7773,3.7773,3.719,3.6216,3.5783,3.5622,3.5622,3.5622,3.6139,3.6741,3.5898,3.5622,3.5622,3.5622,3.5622,3.5622,3.5622,3.5622,3.5622,3.5622,3.5577,3.5594,3.5537,3.5492,3.5446,3.5337,0.0,0.0,0.0,0.0,3.5245,0.0,0.0,0.0,0.0,0.0,0.0,0.0,0.0,0.0,0.0,0.0,0.0,0.0,0.0,0.0,0.0,0.0,0.0,0.0,0.0,0.0,0.0,0.0,3.1482,3.1482,3.1351,3.1589,3.2183,3.254,3.3059,3.3703,3.4161,3.4414,3.4414,3.4346,3.4252,3.3966,3.3233,3.3061,3.3264,3.2574,3.2579,3.3081,3.3081,3.3081,3.3081,3.3081,3.3081,3.3081,3.5163,3.5646,3.6055,0.0,3.6055,3.6129,0.0,0.0,0.0,0.0,3.8,3.8426,3.8395,3.8579,3.8707,3.8707,3.8707,0.0,0.0,0.0,0.0,3.8564,3.8168,3.7948,3.7948,3.8068,0.0,3.8101,0.0,0.0,3.8252,0.0,0.0,0.0,0.0,0.0,3.736,3.736,3.6746,3.5756,3.5667,3.5783,0.0,0.0,3.5958,3.6367,3.5783,3.5622,3.5622,3.5622,3.5622,3.5622,3.5622,3.5622,3.5622,3.5622,3.5549,3.552,3.5492,3.5337,3.5198,3.5291,3.5152,3.5041,0.0,0.0,0.0,0.0,0.0,0.0,0.0,0.0,0.0,0.0,0.0,0.0,0.0,0.0,0.0,0.0,0.0,0.0,0.0,0.0,0.0,0.0,0.0,0.0,0.0,0.0,0.0,3.1482,3.1351,3.1545,3.2031,3.2478,3.2995,3.3536,3.4109,3.4414,3.4414,3.3742,3.3423,3.3219,3.2834,3.259,3.2574,3.2764,3.2943,3.3081,3.3081,3.3081,3.3081,3.3081,3.3081,3.3081,3.6017,0.0,0.0,3.7206,0.0,0.0,3.7227,0.0,0.0,3.819,3.8516,0.0,3.875,3.8738,3.8836,3.9184,3.8909,0.0,0.0,0.0,0.0,3.8186,3.7614,3.7303,3.7303,3.7505,0.0,3.7844,0.0,0.0,3.8368,0.0,0.0,0.0,0.0,3.7879,0.0,3.6626,3.6249,3.5871,3.5667,0.0,0.0,3.622,3.6514,3.6966,3.6712,3.6417,3.618,3.6518,3.662,3.662,3.662,3.662,3.6574,3.6527,3.6481,3.6468,3.6326,3.5933,3.5571,3.5588,3.5243,3.4899,3.4994,3.4947,3.4899,0.0,0.0,0.0,0.0,0.0,0.0,0.0,0.0,0.0,0.0,0.0,0.0,0.0,0.0,0.0,0.0,0.0,0.0,0.0,0.0,0.0,0.0,0.0,0.0,3.1409,3.1292,3.1575,3.232,3.2499,3.3027,3.3891,3.424,3.4414,3.4414,3.4249,3.3828,3.3238,3.3459,3.319,3.2616,3.2943,3.3081,3.3081,3.3081,3.3081,3.3081,3.3081,3.3081,3.3081,3.6983,0.0,0.0,0.0,0.0,0.0,0.0,3.7942,0.0,3.8818,0.0,3.8939,3.8939,3.8977,3.9294,3.9992,0.0,3.9313,4.001,3.8668,3.7882,3.7882,3.7031,3.654,3.654,3.6771,0.0,0.0,0.0,0.0,0.0,0.0,0.0,0.0,0.0,0.0,0.0,3.5854,3.5895,0.0,3.5936,3.6231,3.6924,3.6924,3.733,3.7922,3.8024,3.7567,3.7026,3.7686,3.7905,3.7905,3.7905,3.7905,3.7858,3.7745,3.7696,3.7599,3.7369,3.6804,3.6305,3.6141,3.5661,3.5181,3.5181,3.5114,3.5032,3.5032,3.4965,3.4899,0.0,0.0,0.0,0.0,0.0,0.0,0.0,0.0,0.0,0.0,0.0,0.0,0.0,0.0,0.0,0.0,0.0,0.0,0.0,0.0,0.0,3.1278,3.1205,0.0,3.266,0.0,3.3238,3.4414,3.4414,3.4457,3.4559,3.4889,3.4621,3.3846,3.4229,3.3917,3.3081,3.3081,3.3081,3.3081,3.3081,3.3081,3.3081,3.3081,3.3081,3.3081,0.0,0.0,0.0,0.0,0.0,3.8942,3.8736,3.8659,3.8685,3.8803,3.935,3.9711,3.9711,4.0286,4.0744,4.0891,4.0763,0.0,0.0,0.0,0.0,3.9896,3.8557,3.7778,3.7778,3.7193,3.6939,0.0,0.0,0.0,0.0,0.0,0.0,0.0,0.0,0.0,3.6374,3.5854,0.0,3.6707,3.6615,3.7026,3.7719,3.7719,3.7787,3.799,3.8582,3.8328,3.7736,3.7872,3.7905,3.7905,3.7905,3.7905,3.7858,3.7745,3.7648,3.7484,3.7369,3.712,3.692,3.692,3.682,3.6721,3.6721,3.6241,3.581,3.581,3.5313,3.4899,3.4899,0.0,0.0,0.0,0.0,0.0,0.0,0.0,0.0,0.0,0.0,0.0,0.0,0.0,0.0,0.0,0.0,0.0,0.0,0.0,0.0,0.0,3.1529,0.0,0.0,0.0,3.3674,3.4414,3.4414,3.469,3.5198,3.3882,3.3793,3.4468,3.3213,3.2782,3.3081,3.3081,3.3081,3.3081,3.3081,3.3081,3.3081,3.3081,3.3081,3.3081,0.0,0.0,0.0,0.0,0.0,0.0,0.0,3.9786,0.0,3.9473,4.0086,4.057,4.057,4.0905,4.1277,4.1699,4.135,4.1295,4.1699,4.0921,4.0348,4.0146,3.9248,0.0,3.8372,3.8007,3.7778,3.7792,0.0,0.0,0.0,0.0,0.0,0.0,0.0,3.7089,0.0,0.0,0.0,3.7638,3.7441,3.7804,3.8464,3.8464,3.87,3.9089,3.9428,3.9326,3.9039,3.9039,3.9039,3.9039,3.894,3.8957,3.8907,3.869,3.8589,3.8487,3.8384,3.8015,3.7682,3.7682,3.7384,3.7102,3.7102,3.6837,3.6572,3.6572,3.5976,3.5346,3.4965,3.4899,0.0,0.0,0.0,0.0,0.0,0.0,0.0,0.0,0.0,0.0,0.0,0.0,0.0,0.0,0.0,0.0,0.0,0.0,0.0,0.0,0.0,0.0,0.0,0.0,0.0,3.4414,3.4414,3.4748,3.5372,3.4867,3.4691,3.4643,3.4204,3.3611,3.3081,3.3081,3.3081,3.3081,3.3081,3.3081,3.3081,3.3081,3.3081,3.3081,0.0,3.9203,0.0,0.0,3.9845,0.0,4.0265,4.0868,4.1075,4.0344,4.0933,4.1429,4.1429,4.1695,4.2121,4.2745,4.2396,4.2323,4.2782,4.1741,4.0885,4.0417,3.9735,3.9216,3.8819,3.8663,3.8599,0.0,0.0,0.0,0.0,0.0,0.0,0.0,0.0,0.0,0.0,0.0,3.8146,3.8574,3.8252,3.8582,3.9225,3.9225,3.958,4.007,4.007,4.007,4.0104,4.0257,4.0206,4.0087,3.9952,3.9901,3.9849,3.9606,3.9501,3.9501,3.9342,3.8874,3.8444,3.8444,3.7996,3.7566,3.7566,3.745,3.7334,3.7334,3.6754,3.6009,3.5263,3.5018,0.0,0.0,0.0,0.0,0.0,0.0,0.0,0.0,0.0,0.0,0.0,0.0,0.0,0.0,0.0,0.0,0.0,0.0,0.0,0.0,0.0,3.2174,3.2716,0.0,3.392,0.0,3.4545,3.4868,3.535,3.5755,3.5479,3.4687,3.4955,3.4345,3.3081,3.3081,3.3081,3.3081,3.3081,3.3081,3.3081,3.3081,3.3156,3.3257,0.0,0.0,0.0,0.0,0.0,0.0,4.1093,4.1728,4.1901,4.1093,4.1699,4.2194,4.2194,4.3497,4.4397,4.447,4.5076,4.5168,4.4525,4.3617,4.2798,4.2019,4.0508,3.964,3.9595,3.8939,3.8587,0.0,0.0,0.0,0.0,0.0,0.0,0.0,0.0,0.0,0.0,3.7872,3.8326,3.8935,3.8886,3.9326,3.9969,3.9969,4.002,4.007,4.007,4.007,4.0172,4.0865,4.0646,4.0087,3.9952,3.9901,3.9849,3.9606,3.9501,3.9501,3.9342,3.9222,3.9172,3.9172,3.9123,3.9073,3.9073,3.8576,3.8112,3.8112,3.7516,3.6771,3.6025,3.5447,3.5017,0.0,0.0,0.0,0.0,0.0,0.0,0.0,0.0,0.0,0.0,0.0,0.0,0.0,0.0,0.0,0.0,0.0,0.0,3.1745,0.0,3.273,3.3369,3.4008,3.4356,3.4428,3.4994,3.5224,3.5071,3.4871,3.4713,3.4402,3.3628,3.324,3.3081,3.3081,3.3081,3.3081,3.3081,3.3081,3.3081,3.3081,3.3395,3.3822,0.0,0.0,0.0,0.0,0.0,0.0,0.0,4.3256,4.3809,4.3956,4.3846,4.392,4.4415,4.5039,4.5424,4.5424,4.5718,4.5645,4.5035,4.4668,4.4074,4.3191,4.2093,4.1389,4.1078,4.0353,3.9807,0.0,0.0,0.0,0.0,0.0,0.0,0.0,0.0,3.858,3.8582,3.9022,3.9377,3.9648,3.9648,4.0087,4.0747,4.0747,4.1035,4.1407,4.1407,4.1407,4.1457,4.1762,4.1321,4.0693,4.099,4.1033,4.0925,4.0729,4.0619,4.0619,4.0564,4.0249,3.9934,3.9934,3.9603,3.9272,3.9272,3.9056,3.8858,3.8858,3.8278,3.7549,3.6804,3.6437,3.6022,0.0,0.0,0.0,0.0,0.0,0.0,0.0,0.0,0.0,0.0,0.0,0.0,0.0,0.0,0.0,0.0,0.0,0.0,3.1772,0.0,3.3209,3.347,3.4095,3.4603,3.498,3.5241,3.5739,3.6356,3.5759,3.5113,3.4314,3.3496,3.3081,3.3081,3.3081,3.3081,3.3081,3.3081,3.3282,3.3571,3.3571,3.3922,3.4449,4.1267,0.0,4.1659,0.0,4.2518,4.3345,4.4066,4.469,4.5351,4.6159,4.5773,4.5535,4.5865,4.6104,4.625,4.625,4.6471,4.6377,4.5794,4.5639,4.5102,4.4064,4.3371,0.0,4.2386,4.1753,4.1194,4.0613,4.0659,0.0,0.0,0.0,0.0,0.0,3.9122,3.9428,3.9681,4.0189,4.0527,4.073,4.073,4.1052,4.1525,4.1525,4.1847,4.2286,4.2286,4.2286,4.232,4.254,4.2179,4.1611,4.1804,4.181,4.1699,4.1481,4.1409,4.1409,4.1409,4.1061,4.068,4.068,4.0282,3.9901,3.9901,3.9736,3.9537,3.9322,3.8874,3.8242,3.7275,3.7023,3.6515,3.5331,0.0,0.0,0.0,0.0,0.0,0.0,0.0,3.1482,3.1482,0.0,0.0,0.0,0.0,0.0,0.0,0.0,0.0,0.0,0.0,0.0,0.0,3.437,3.4922,3.5427,3.5749,3.6331,3.6905,3.5976,3.4955,3.3979,3.3411,3.3081,3.3081,3.3081,3.3081,3.3093,3.3257,3.3558,3.3922,3.4085,3.4487,3.5014,4.1204,4.1801,4.2543,4.3314,4.414,4.4947,4.5755,4.5883,4.6177,4.7003,4.7095,4.6783,4.5993,4.6617,4.7113,4.7113,4.7829,4.7939,4.7112,4.6713,4.5869,0.0,0.0,4.368,4.3214,4.2995,4.2516,4.1778,0.0,0.0,3.9375,0.0,3.9574,4.0271,4.0171,4.0476,4.117,4.1187,4.161,4.2252,4.2252,4.2269,4.2286,4.2286,4.2286,4.2286,4.2286,4.2286,4.2405,4.3149,4.3182,4.2842,4.2138,4.1904,4.1849,4.1481,4.1409,4.1409,4.1409,4.1409,4.1409,4.1409,4.1392,4.1375,4.1375,4.0862,4.0166,3.9421,3.9272,3.8863,3.7426,3.6782,3.6147,3.5354,0.0,0.0,0.0,0.0,0.0,0.0,3.1482,3.1482,3.1482,0.0,0.0,0.0,0.0,0.0,0.0,0.0,0.0,3.3478,3.3456,0.0,3.4385,3.5024,3.5427,3.5441,3.6678,3.6802,3.5961,3.4915,3.3979,3.3081,3.3081,3.3081,3.3081,3.3081,3.3081,3.3131,3.3671,3.3884,3.396,3.4512,3.5064,3.5449,4.3587,4.423,4.4819,4.5094,4.5351,4.5792,4.6617,4.6728,4.7021,4.781,4.7921,4.7829,4.7572,4.7774,4.7921,0.0,4.8159,4.7944,0.0,4.6845,4.6272,4.5137,4.4518,4.4108,4.3974,4.3406,4.2876,4.2398,0.0,0.0,0.0,4.1461,4.1545,4.1645,4.1645,4.1728,4.1948,4.1948,4.2083,4.2286,4.2286,4.2591,4.3064,4.3064,4.3386,4.3859,4.3859,4.3859,4.3876,4.3985,4.3956,4.3809,4.338,4.3181,4.3049,4.2916,4.2916,4.2916,4.2916,4.2551,4.217,4.217,4.1789,4.1409,4.1409,4.1243,4.0878,4.0166,4.0034,3.9747,3.8826,3.8137,3.7319,3.6235,3.5298,0.0,0.0,0.0,0.0,0.0,0.0,3.2871,0.0,3.2675,0.0,0.0,0.0,0.0,0.0,0.0,0.0,0.0,3.3891,0.0,3.5053,3.5256,3.5807,3.6693,3.7114,3.6731,3.5754,3.5386,3.4441,3.3081,3.3081,3.3081,3.3081,3.3081,3.3307,3.3658,3.3834,3.4361,3.5039,3.5215,3.5629,3.6094,4.5149,4.5571,4.5993,4.6305,4.6361,4.6636,4.7443,4.7572,4.7737,4.8233,4.86,4.8783,4.8783,4.9058,0.0,4.8361,4.8306,4.7955,4.7204,4.716,4.6707,4.5752,4.5249,4.4938,4.4716,0.0,0.0,4.315,4.2843,4.2602,4.2409,4.2409,4.2409,4.2286,4.2286,4.2439,4.2709,4.2709,4.2878,4.3149,4.3149,4.3436,4.3859,4.3859,4.4147,4.4587,4.4587,4.4587,4.457,4.4367,4.4253,4.4212,4.3939,4.3763,4.3628,4.3628,4.3628,4.3628,4.3628,4.328,4.2932,4.2932,4.2585,4.217,4.1889,4.1823,4.1567,4.0614,4.0409,4.005,3.8788,3.8222,3.7512,3.6255,3.5738,3.5078,3.401,0.0,0.0,0.0,0.0,0.0,0.0,3.33,0.0,0.0,0.0,0.0,0.0,0.0,0.0,3.3819,3.4443,0.0,3.5427,3.5851,3.6504,3.7317,3.7224,3.6648,3.5615,3.5318,3.4441,3.3081,3.3081,3.3194,3.3382,3.3382,3.3709,3.4223,3.4437,3.4939,3.5567,3.5768,3.6069,3.6358,4.5975,4.603,0.0,0.0,4.7241,0.0,4.8288,4.8453,4.8471,4.8471,4.9169,4.9664,4.9664,5.0343,5.0178,4.8579,0.0,0.0,0.0,4.7753,4.7321,4.6393,4.6242,4.5974,4.5492,4.5174,4.4653,4.3953,4.2955,4.2455,4.2455,4.2455,4.2455,4.2455,4.2455,4.2844,4.3504,4.3504,4.3927,4.4587,4.4587,4.4587,4.4587,4.4587,4.4587,4.4587,4.4587,4.457,4.457,4.4367,4.4212,4.4039,4.3939,4.3763,4.3628,4.3628,4.3628,4.3628,4.3628,4.3628,4.3628,4.3628,4.3628,4.3446,4.275,4.2601,4.2195,4.0837,4.0496,3.9911,3.7933,3.7461,3.699,3.5849,3.5534,3.528,3.4637,0.0,0.0,0.0,0.0,0.0,0.0,3.3324,3.3387,0.0,0.0,0.0,0.0,0.0,3.3877,3.4457,3.5053,3.547,3.5558,3.6707,3.7331,3.7375,3.7144,3.6517,3.5615,3.4855,3.4004,3.3217,3.3217,3.3445,3.396,3.396,3.4274,3.4826,3.5353,3.5567,3.5667,3.6169,3.6358,3.6358,0.0,0.0,4.7792,4.7994,4.8563,4.9058,4.9242,4.9811,5.0215,5.0215,5.0398,5.0508,5.0508,5.0692,5.0497,4.9683,4.9976,4.9998,4.9463,4.9073,4.8562,4.7975,4.7004,4.6393,4.6089,4.5468,4.4947,4.4575,4.4224,4.4045,4.4045,4.4045,4.4045,4.4045,4.4045,4.413,4.4316,4.4316,4.4418,4.4587,4.4587,4.4587,4.4587,4.4587,4.4587,4.4587,4.4587,4.4497,4.4367,4.4212,4.4056,4.3881,4.3763,4.3628,4.3628,4.3628,4.3628,4.3628,4.3628,4.3628,4.3628,4.3628,4.3628,4.3578,4.3396,4.3363,4.3089,4.2169,4.1575,4.091,3.9898,3.8404,3.732,3.699,3.6114,3.5444,3.5295,3.5265,0.0,0.0,3.504,3.4961,3.4818,3.4608,3.4537,0.0,0.0,0.0,0.0,3.5049,3.5049,3.514,3.5354,3.5836,3.6838,3.7157,3.7535,3.7984,3.7904,3.7414,3.6517,3.5722,3.508,3.4684,3.4033,3.401,3.4525,3.4525,3.4851,3.5366,3.5491,3.5805,3.6182,3.632,3.6358,3.6358,4.8122,4.8563,4.9003,4.9389,4.9829,5.0141,5.0141,5.0508,5.0802,5.0802,5.1114,5.1353,5.1353,5.1683,5.176,5.1468,5.0836,5.0105,4.9305,4.9017,4.8637,4.8136,4.7467,4.7041,4.6842,4.6374,4.6003,4.5682,4.5303,4.5094,4.5094,4.4739,4.4587,4.4587,4.4587,4.4587,4.4587,4.4587,4.4587,4.4587,4.4587,4.4587,4.4587,4.4587,4.4587,4.4587,4.4587,4.444,4.431,4.4155,4.3998,4.3839,4.3628,4.3628,4.3628,4.3628,4.3628,4.3628,4.3628,4.3628,4.3628,4.3628,4.3628,4.3628,4.3628,4.3355,4.2921,4.219,4.1533,4.0751,3.9671,3.86,3.7749,3.743,3.6848,3.6282,3.5998,3.5953,0.0,3.5549,3.5504,3.5439,3.5359,3.5414,3.5444,3.5377,0.0,0.0,3.5889,3.5863,3.5793,3.5793,3.6098,3.6591,3.7302,3.7578,3.7883,3.8202,3.74,3.6752,3.6281,3.5272,3.4751,3.4558,3.4325,3.4587,3.5102,3.5102,3.5416,3.5918,3.5918,3.6094,3.6358,3.6358,3.6358,3.6358,4.9554,4.9738,4.9994,5.0674,5.0894,5.0986,5.0986,5.1077,5.1169,5.1169,5.1756,5.2179,5.2179,5.2803,5.3164,5.3078,5.1417,4.9998,4.9174,4.9041,4.8802,4.8286,4.809,4.7817,4.7609,4.7284,4.706,4.6786,4.6177,4.5872,4.5855,4.5213,4.4908,4.4908,4.4908,4.4908,4.4908,4.4908,4.4908,4.4908,4.4908,4.4908,4.4908,4.4908,4.4908,4.4908,4.4908,4.4778,4.4589,4.4432,4.4315,4.4155,4.4019,4.3959,4.3959,4.3959,4.3959,4.391,4.3694,4.3628,4.3628,4.3628,4.3628,4.3628,4.3628,4.3174,4.2585,4.1917,4.1209,4.0293,3.9107,3.8577,3.8197,3.7644,3.7479,3.7225,3.6701,0.0,3.6417,3.5863,3.5789,3.5789,3.5738,3.6097,3.6191,3.6055,3.6362,3.6501,3.6446,3.646,3.6504,3.6591,3.7056,3.7346,3.7433,3.7941,3.8202,3.8202,3.6758,3.6166,3.6099,3.492,3.4488,3.459,3.4728,3.5165,3.5667,3.5667,3.5943,3.6358,3.6358,3.6358,3.6358,3.6358,3.6358,3.6358,5.0563,5.0618,5.0655,5.0784,5.1353,5.1811,5.1811,5.2399,5.2839,5.2839,5.2949,5.3023,5.3023,5.3133,5.3017,5.2563,5.2236,5.2137,5.2441,5.2027,5.1454,5.0767,4.9696,4.8803,4.8038,4.7267,4.6844,4.6786,4.6684,4.6616,4.6616,4.6498,4.6447,4.6447,4.6447,4.6447,4.6447,4.6447,4.6447,4.6447,4.6447,4.6447,4.6447,4.6447,4.6447,4.6447,4.6296,4.6118,4.5939,4.574,4.5635,4.5528,4.5467,4.545,4.545,4.545,4.545,4.5185,4.3959,4.3628,4.3628,4.3628,4.3628,4.3628,4.3628,4.3492,4.3432,4.3295,4.2253,4.1295,4.1053,3.9558,3.8362,3.8257,3.7778,3.7375,3.7285,0.0,3.7225,3.712,3.712,3.7052,3.693,3.6828,3.6678,3.6523,3.6399,3.6562,3.7128,3.7143,3.7389,3.7897,3.752,3.7549,3.8057,3.8159,3.8202,3.8202,3.8525,3.8629,3.8581,3.7359,3.7142,3.7538,3.598,3.573,3.6232,3.6232,3.6282,3.6358,3.6358,3.6358,3.6358,3.6358,3.6358,3.6358,5.1353,5.1444,5.1573,5.2032,5.2399,5.2656,5.2656,5.2968,5.3206,5.3206,5.3206,5.3206,5.3206,5.3206,5.3103,5.285,5.2563,5.2518,5.2761,5.2012,5.1398,5.107,5.009,4.9258,4.8702,4.8216,4.7986,4.7986,4.7597,4.7394,4.7394,4.6989,4.6786,4.6786,4.6786,4.6786,4.6786,4.6786,4.6786,4.6786,4.6786,4.6786,4.6786,4.665,4.665,4.6591,4.6471,4.629,4.6135,4.6012,4.5889,4.5798,4.5798,4.5798,4.5798,4.5798,4.5798,4.5649,4.497,4.4787,4.4705,4.4291,4.4191,4.4092,4.3711,4.3035,4.2443,4.2443,4.1327,4.0339,4.0339,3.9622,3.8945,3.8945,3.8691,0.0,0.0,3.7943,3.7808,3.7449,3.7404,3.7351,3.7282,3.7471,3.7482,3.7254,3.7361,3.7535,3.7767,3.7781,3.7912,3.8188,3.7941,3.7926,3.8202,3.8565,3.8739,3.8739,3.8394,3.8207,3.8221,3.6964,3.6506,3.6779,3.6202,3.6119,3.6358,3.6358,3.6358,3.6358,3.6358,3.6358,3.6358,3.6358,3.6358,3.6358,5.216,5.227,5.2472,5.3096,5.3206,5.3206,5.3206,5.3206,5.3206,5.3206,5.3206,5.3206,5.3206,5.3206,5.3206,5.3206,5.2806,5.2608,5.2608,5.1719,5.1052,5.0731,4.9965,4.9471,4.9168,4.9063,4.9001,4.9001,4.8443,4.8173,4.8156,4.7581,4.731,4.731,4.731,4.731,4.731,4.731,4.731,4.731,4.731,4.731,4.731,4.7096,4.7036,4.7036,4.6826,4.6624,4.6529,4.6466,4.642,4.6311,4.6311,4.6311,4.6311,4.6311,4.6311,4.6228,4.5881,4.5798,4.5649,4.5086,4.4814,4.4476,4.3784,4.2622,4.1715,4.1557,4.0547,3.9681,3.9681,3.9553,3.9424,3.9424,0.0,0.0,0.0,3.8631,3.8437,3.7943,3.7868,3.7868,3.7868,3.8121,3.8204,3.8045,3.8297,3.8366,3.8202,3.8202,3.8275,3.8434,3.8434,3.8434,3.8434,3.9088,3.9407,3.9421,3.8625,3.8241,3.8255,3.6957,3.6338,3.6363,3.6357,3.6358,3.6358,3.6358,3.6358,3.6358,3.6358,3.6358,3.6358,3.6358,3.6358,3.6358,5.3115,5.3115,5.3133,5.3206,5.3206,5.3206,5.3206,5.3206,5.3206,5.3206,5.3206,5.3206,5.3206,5.3206,5.3206,5.3206,5.3164,5.3164,5.3164,5.2608,5.1782,5.057,4.9715,4.9168,4.9001,4.9001,4.9001,4.9001,4.8951,4.8934,4.8934,4.8866,4.8849,4.8849,4.8849,4.8849,4.8849,4.8849,4.8849,4.8849,4.8849,4.8849,4.8832,4.8664,4.8618,4.8601,4.8206,4.8061,4.7996,4.7884,4.7835,4.7835,4.7835,4.7835,4.7835,4.7835,4.7835,4.7537,4.6162,4.5798,4.5781,4.5715,4.5144,4.448,4.3799,4.3037,4.2232,4.1652,4.094,4.0409,4.0409,3.9879,3.9424,3.9424,0.0,0.0,3.9349,3.9349,3.9334,3.9275,3.9275,3.9275,3.9275,3.8928,3.8723,3.8723,3.8397,3.8202,3.8202,3.8202,3.8492,3.9117,3.9131,3.9131,3.9131,3.9726,4.0031,4.0046,4.0538,4.0856,4.0775,3.9481,3.8965,3.8787,3.715,3.6358,3.6358,3.6358,3.6358,3.6358,3.6358,3.6358,3.6358,3.6358,3.6358,3.6358,5.3206,5.3206,5.3206,5.3206,5.3206,5.3206,5.3206,5.3206,5.3206,5.3206,5.3206,5.3206,5.3206,5.3206,5.3206,5.3206,5.2912,5.2563,5.2203,5.1565,5.0982,5.0404,4.9598,4.9107,4.9001,4.9001,4.9001,4.9001,4.9001,4.9001,4.9001,4.9001,4.9001,4.9001,4.9001,4.9001,4.9001,4.9001,4.9001,4.9001,4.9001,4.9001,4.894,4.869,4.8627,4.8564,4.8179,4.8066,4.8049,4.8001,4.8001,4.8001,4.8001,4.8001,4.8001,4.8001,4.8001,4.7885,4.7322,4.7156,4.6911,4.6012,4.5537,4.501,4.385,4.2994,4.2248,4.1603,4.0882,4.0308,3.9884,3.9625,3.9424,3.9424,0.0,3.9424,3.9424,3.9424,3.9424,3.9424,3.9424,3.9424,3.9424,3.9031,3.8782,3.8782,3.8427,3.8376,3.8797,3.9175,3.9494,3.9755,4.0162,4.0176,3.9755,4.0394,4.0713,4.0728,4.075,4.0534,3.9925,3.8849,3.7965,3.7428,3.6722,3.6358,3.6358,3.6358,3.6358,3.6358,3.6358,3.6358,3.6358,3.6358,3.6358,3.6358,5.3206,5.3206,5.3206,5.3206,5.3206,5.3206,5.3206,5.3206,5.3206,5.3206,5.3206,5.3206,5.3206,5.3206,5.3206,5.3206,5.2717,5.225,5.1866,5.0947,5.0293,4.9971,4.9496,4.9107,4.9001,4.9001,4.9001,4.9001,4.9001,4.9001,4.9001,4.9001,4.9001,4.9001,4.9001,4.9001,4.9001,4.9001,4.9001,4.9001,4.9001,4.894,4.8894,4.861,4.8483,4.8356,4.8131,4.8001,4.8001,4.8001,4.8001,4.8001,4.8001,4.8001,4.8001,4.8001,4.8001,4.8001,4.8001,4.8001,4.7737,4.6716,4.6083,4.541,4.4155,4.3092,4.2193,4.1565,4.1036,4.0561,4.0113,3.9873,3.9723,3.9723,3.9559,3.9424,3.9424,3.9424,3.9424,3.9424,3.9424,3.9352,3.9337,3.9209,3.9106,3.9017,3.8908,3.9,3.9465,4.0075,4.0408,4.0408,4.1062,4.1192,4.0728,4.1178,4.141,4.141,4.0858,4.0246,3.9637,3.8328,3.7453,3.6815,3.6546,3.6358,3.6358,3.6358,3.6358,3.6358,3.6358,3.6358,3.6358,3.6358,3.6358,3.6358,5.3206,5.3206,5.3206,5.3206,5.3206,5.3206,5.3206,5.3206,5.3206,5.3206,5.3206,5.3206,5.3206,5.3206,5.3206,5.3206,5.2717,5.2408,5.2361,5.1087,4.9971,4.9229,4.9229,4.9107,4.9001,4.9001,4.9001,4.9001,4.9001,4.9001,4.9001,4.9001,4.9001,4.9001,4.9001,4.9001,4.9001,4.9001,4.9001,4.9001,4.9001,4.8894,4.8786,4.8564,4.8356,4.8163,4.8066,4.8001,4.8001,4.8001,4.8001,4.8001,4.8001,4.8001,4.8001,4.8001,4.8001,4.8001,4.8001,4.8001,4.8001,4.8001,4.6844,4.5523,4.4828,4.3525,4.2177,4.1534,4.1384,4.1384,4.1384,4.0846,4.0412,4.0412,3.9858,3.9439,3.9439,3.9439,3.9439,3.9439,3.9439,3.9352,3.9119,3.958,3.9723,3.9572,3.9911,4.0104,4.0104,4.0742,4.1105,4.1105,4.1744,4.2092,4.2092,4.2092,4.2092,4.2092,4.1071,4.0603,4.0504,3.8675,3.7808,3.7717,3.6815,3.6358,3.6358,3.6358,3.6358,3.6358,3.6358,3.6358,3.6358,3.6358,3.6358,3.6358,5.3206,5.3206,5.3206,5.3206,5.3206,5.3206,5.3206,5.3206,5.3206,5.3206,5.3206,5.3206,5.3206,5.2868,5.2654,5.2654,5.2024,5.1378,5.0734,4.9953,4.9376,4.9046,4.9063,4.9063,4.9001,4.9001,4.9001,4.9001,4.9001,4.9001,4.9001,4.9001,4.9001,4.9001,4.9001,4.9001,4.9001,4.9001,4.9001,4.9001,4.9001,4.8894,4.8786,4.8564,4.8356,4.8163,4.8066,4.8001,4.8001,4.8001,4.8001,4.8001,4.8001,4.8001,4.8001,4.8001,4.8001,4.8001,4.8001,4.8001,4.7721,4.6636,4.6056,4.5342,4.4037,4.3328,4.2851,4.2207,4.2073,4.1938,4.1474,4.122,4.1085,4.1085,4.092,4.0786,4.0786,4.0786,4.0786,4.0786,4.0786,4.0801,4.0711,4.0588,4.0477,4.04,4.0675,4.08,4.08,4.1439,4.1802,4.1802,4.199,4.2092,4.2092,4.2092,4.2092,4.2092,4.1814,4.1254,4.0589,3.9373,3.8419,3.7717,3.6815,3.6358,3.6358,3.6358,3.6358,3.6358,3.6358,3.6358,3.6358,3.6358,3.6358,3.6358,5.3206,5.3206,5.3206,5.3206,5.3206,5.3206,5.3206,5.3206,5.3103,5.2912,5.2868,5.2806,5.2608,5.2268,5.206,5.206,5.1396,5.0626,4.9722,4.9376,4.9107,4.9001,4.9001,4.9001,4.9001,4.9001,4.9001,4.9001,4.9001,4.9001,4.9001,4.9001,4.9001,4.9001,4.9001,4.9001,4.9001,4.9001,4.9001,4.9001,4.9001,4.8877,4.8707,4.8564,4.8356,4.8115,4.8001,4.8001,4.8001,4.8001,4.8001,4.8001,4.8001,4.8001,4.8001,4.8001,4.8001,4.8001,4.8001,4.7787,4.7202,4.5985,4.5697,4.5332,4.4066,4.3551,4.3225,4.2821,4.2746,4.2626,4.2222,4.1953,4.1773,4.1773,4.1549,4.1384,4.1384,4.1384,4.1384,4.1384,4.1384,4.1384,4.1308,4.124,4.118,4.1301,4.1441,4.1497,4.1497,4.1874,4.2092,4.2092,4.2092,4.2092,4.2092,4.2092,4.2092,4.2092,4.1283,4.0631,3.9986,3.8662,3.7795,3.7176,3.664,3.6358,3.6358,3.6358,3.6358,3.6358,3.6358,3.6358,3.6358,3.6358,3.6358,3.6358,5.3206,5.3206,5.3206,5.3206,5.3206,5.3206,5.3206,5.3164,5.2955,5.2454,5.2361,5.2155,5.1651,5.1551,5.15,5.15,5.0786,5.0028,4.9212,4.9168,4.9107,4.9001,4.9001,4.9001,4.9001,4.9001,4.9001,4.9001,4.9001,4.9001,4.9001,4.9001,4.9001,4.9001,4.9001,4.9001,4.9001,4.9001,4.9001,4.9001,4.9001,4.8815,4.8483,4.8483,4.8292,4.8001,4.8001,4.8001,4.8001,4.8001,4.8001,4.8001,4.8001,4.8001,4.8001,4.8001,4.8001,4.8001,4.7919,4.7337,4.6604,4.5753,4.5624,4.5405,4.4586,4.3849,4.3329,4.3329,4.3329,4.3329,4.3329,4.2851,4.2447,4.2447,4.1953,4.1549,4.1549,4.1549,4.1549,4.1549,4.1549,4.1488,4.1273,4.1558,4.1829,4.2049,4.2092,4.2092,4.2092,4.2092,4.2092,4.2092,4.2092,4.2092,4.2092,4.2092,4.2092,4.2092,4.0287,3.9475,3.9387,3.752,3.6628,3.6628,3.6452,3.6358,3.6358,3.6358,3.6358,3.6358,3.6358,3.6358,3.6358,3.6358,3.6358,3.6358,5.3206,5.3206,5.3206,5.3206,5.3206,5.3206,5.3206,5.285,5.2518,5.2426,5.2012,5.1683,5.1378,5.0982,5.0678,5.057,4.993,4.9394,4.9063,4.9063,4.9001,4.9001,4.9001,4.9001,4.9001,4.9001,4.9001,4.9001,4.9001,4.9001,4.9001,4.9001,4.9001,4.9001,4.9001,4.9001,4.9001,4.9001,4.9001,4.9001,4.9001,4.8815,4.8483,4.8483,4.8292,4.8001,4.8001,4.8001,4.8001,4.8001,4.8001,4.8001,4.8001,4.8001,4.8001,4.8001,4.8001,4.7853,4.7253,4.6965,4.6464,4.5095,4.4737,4.451,4.3771,4.3409,4.3329,4.3329,4.3329,4.3329,4.3329,4.321,4.312,4.312,4.3,4.291,4.291,4.291,4.291,4.291,4.291,4.2832,4.258,4.2408,4.2246,4.2092,4.2092,4.2092,4.2092,4.2092,4.2092,4.2092,4.2092,4.2092,4.2092,4.2092,4.2092,4.2092,4.1647,4.1465,4.1381,3.9475,3.8585,3.8496,3.707,3.6358,3.6358,3.6358,3.6358,3.6358,3.6358,3.6358,3.6358,3.6358,3.6358,3.6358,5.3206,5.3206,5.3206,5.3206,5.3206,5.3103,5.2868,5.2563,5.2221,5.1701,5.1329,5.0947,5.057,5.0254,4.993,4.9815,4.9436,4.9168,4.9001,4.9001,4.9001,4.9001,4.9001,4.9001,4.9001,4.9001,4.9001,4.9001,4.9001,4.9001,4.9001,4.9001,4.9001,4.9001,4.9001,4.9001,4.9001,4.9001,4.9001,4.9001,4.9001,4.8815,4.8483,4.8483,4.8292,4.8001,4.8001,4.8001,4.8001,4.8001,4.8001,4.8001,4.8001,4.8001,4.8001,4.8001,4.8001,4.7919,4.7488,4.6828,4.6111,4.5243,4.4526,4.3849,4.3409,4.3329,4.3329,4.3329,4.3329,4.3329,4.3329,4.3329,4.3329,4.3329,4.3329,4.3329,4.3329,4.3329,4.3329,4.3329,4.3329,4.317,4.293,4.2688,4.2392,4.2092,4.2092,4.2092,4.2092,4.2092,4.2092,4.2092,4.2092,4.2092,4.2092,4.2092,4.2092,4.2092,4.1619,4.1353,4.1339,3.9387,3.8509,3.8419,3.6989,3.6358,3.6358,3.6358,3.6358,3.6358,3.6358,3.6358,3.6358,3.6358,3.6358,3.6358,5.3206,5.3206,5.3206,5.3206,5.3206,5.3017,5.2454,5.2408,5.1994,5.0893,5.0587,5.0254,4.9691,4.9471,4.9367,4.9168,4.9168,4.9107,4.9001,4.9001,4.9001,4.9001,4.9001,4.9001,4.9001,4.9001,4.9001,4.9001,4.9001,4.9001,4.9001,4.9001,4.9001,4.9001,4.9001,4.9001,4.9001,4.9001,4.9001,4.9001,4.8956,4.8815,4.8483,4.8483,4.8244,4.8001,4.8001,4.8001,4.8001,4.8001,4.8001,4.8001,4.8001,4.8001,4.8001,4.8001,4.8001,4.7935,4.7654,4.6705,4.5624,4.5332,4.4297,4.3329,4.3329,4.3329,4.3329,4.3329,4.3329,4.3329,4.3329,4.3329,4.3329,4.3329,4.3329,4.3329,4.3329,4.3329,4.3329,4.3329,4.325,4.309,4.2769,4.2688,4.2474,4.2092,4.2092,4.2092,4.2092,4.2092,4.2092,4.2092,4.2092,4.2092,4.2092,4.2092,4.2092,4.2092,4.1254,4.0788,4.0504,3.8854,3.7991,3.7717,3.6815,3.6358,3.6358,3.6358,3.6358,3.6358,3.6358,3.6358,3.6358,3.6358,3.6358,3.6358,5.3206,5.3206,5.3206,5.3206,5.3206,5.3017,5.2454,5.2408,5.1946,5.0678,5.0515,5.0198,4.9333,4.9185,4.9063,4.9001,4.9001,4.9001,4.9001,4.9001,4.9001,4.9001,4.9001,4.9001,4.9001,4.9001,4.9001,4.9001,4.9001,4.9001,4.9001,4.9001,4.9001,4.9001,4.9001,4.9001,4.9001,4.9001,4.9001,4.9001,4.8894,4.8707,4.8483,4.8292,4.8115,4.8001,4.8001,4.8001,4.8001,4.8001,4.8001,4.8001,4.8001,4.8001,4.8001,4.8001,4.8001,4.7704,4.634,4.5841,4.5332,4.3989,4.3488,4.3329,4.3329,4.3329,4.3329,4.3329,4.3329,4.3329,4.3329,4.3329,4.3329,4.3329,4.3329,4.3329,4.3329,4.3329,4.3329,4.3329,4.3155,4.2915,4.2688,4.2541,4.2325,4.2092,4.2092,4.2092,4.2092,4.2092,4.2092,4.2092,4.2092,4.2092,4.2092,4.2092,4.2092,4.2092,4.1995,4.1437,4.0589,3.9461,3.8599,3.7717,3.6815,3.6358,3.6358,3.6358,3.6358,3.6358,3.6358,3.6358,3.6358,3.6358,3.6358,3.6358,5.3206,5.3206,5.3206,5.3206,5.3206,5.2999,5.2408,5.2024,5.1447,5.0567,5.0045,4.9656,4.9212,4.9063,4.9001,4.9001,4.9001,4.9001,4.9001,4.9001,4.9001,4.9001,4.9001,4.9001,4.9001,4.9001,4.9001,4.9001,4.9001,4.9001,4.9001,4.9001,4.9001,4.9001,4.9001,4.9001,4.9001,4.9001,4.9001,4.9001,4.8832,4.8707,4.8483,4.8292,4.8115,4.8001,4.8001,4.8001,4.8001,4.8001,4.8001,4.8001,4.8001,4.8001,4.7919,4.7488,4.7337,4.7118,4.5985,4.5405,4.4887,4.4143,4.363,4.3329,4.3329,4.3329,4.3329,4.3329,4.3329,4.3329,4.3329,4.3329,4.3329,4.3329,4.3329,4.3329,4.3329,4.3329,4.3329,4.3329,4.3155,4.2915,4.2688,4.2541,4.2325,4.2092,4.2092,4.2092,4.2092,4.2092,4.2092,4.2092,4.2092,4.2092,4.2092,4.2092,4.2092,4.2092,4.2092,4.1897,4.1437,4.0446,3.9724,3.9285,3.8405,3.7704,3.7176,3.7176,3.6909,3.6358,3.6358,3.6358,3.6358,3.6358,3.6358,3.6358]}]]